[[{"header":{"parameterUnit":"m.s-1","parameterCategory":1,"la1":31.0,"la2":29.5877,"lo1":-88.7671,"lo2":-86.6584,"dy":0.0162,"dx":0.0185,"nx":115,"ny":88,"refTime":"2023-10-13T12:00:00:Z","depth":0,"parameterNumber":2,"parameterNumberName":"U-component_of_WINDS"},"data":[0.0,0.0,0.0,0.0,0.0,0.0,0.0,0.0,0.0,0.0,0.0,0.0,0.0,0.0,0.0,0.0,0.0,0.0,0.0,0.0,0.0,0.0,0.0,0.0,0.0,0.0,0.0,0.0,0.0,0.0,0.0,0.0,0.0,0.0,0.0,0.0,0.0,0.0,0.0,0.0,0.0,0.0,0.0,0.0,0.0,0.0,0.0,0.0,0.0,0.0,0.0,0.0,0.0,0.0,0.0,0.0,0.0,0.0,0.0,0.0,0.0,0.0,0.0,0.0,0.0,0.0,0.0,0.0,0.0,0.0,0.0,0.0,0.0,0.0,0.0,0.0,0.0,0.0,0.0,0.0,0.0,0.0,0.0,0.0,0.0,0.0,0.0,0.0,0.0,0.0,0.0,0.0,0.0,0.0,0.0,0.0,0.0,0.0,0.0,0.0,0.0,0.0,0.0,0.0,0.0,0.0,0.0,0.0,0.0,0.0,0.0,0.0,0.0,0.0,0.0,0.0,0.0,0.0,0.0,0.0,0.0,0.0,0.0,0.0,0.0,0.0,0.0,0.0,0.0,0.0,0.0,0.0,0.0,0.0,0.0,0.0,0.0,0.0,0.0,0.0,0.0,0.0,0.0,0.0,0.0,0.0,0.0,0.0,0.0,0.0,0.0,0.0,0.0,0.0,0.0,0.0,0.0,0.0,0.0,0.0,0.0,0.0,0.0,0.0,0.0,0.0,0.0,0.0,0.0,0.0,0.0,0.0,0.0,0.0,0.0,0.0,0.0,0.0,0.0,0.0,0.0,0.0,0.0,0.0,0.0,0.0,0.0,0.0,0.0,0.0,0.0,0.0,0.0,0.0,0.0,0.0,0.0,0.0,0.0,0.0,0.0,0.0,0.0,0.0,0.0,0.0,0.0,0.0,0.0,0.0,0.0,0.0,0.0,0.0,0.0,0.0,0.0,0.0,0.0,0.0,0.0,0.0,0.0,0.0,0.0,0.0,0.0,0.0,0.0,0.0,0.0,0.0,0.0,0.0,0.0,0.0,0.0,0.0,0.0,0.0,0.0,0.0,0.0,0.0,0.0,0.0,0.0,0.0,0.0,0.0,0.0,0.0,0.0,0.0,0.0,0.0,0.0,0.0,0.0,0.0,0.0,0.0,0.0,0.0,0.0,0.0,0.0,0.0,0.0,0.0,0.0,0.0,0.0,0.0,0.0,0.0,0.0,0.0,0.0,0.0,0.0,0.0,0.0,0.0,0.0,0.0,0.0,0.0,0.0,0.0,0.0,0.0,0.0,0.0,0.0,0.0,0.0,0.0,0.0,0.0,0.0,0.0,0.0,0.0,0.0,0.0,0.0,0.0,0.0,0.0,0.0,0.0,0.0,0.0,0.0,0.0,0.0,0.0,0.0,0.0,0.0,0.0,0.0,0.0,0.0,0.0,0.0,0.0,0.0,0.0,0.0,0.0,0.0,0.0,0.0,0.0,0.0,0.0,0.0,0.0,0.0,0.0,0.0,0.0,0.0,0.0,0.0,0.0,0.0,0.0,0.0,0.0,0.0,0.0,0.0,0.0,0.0,0.0,0.0,0.0,0.0,0.0,0.0,0.0,0.0,0.0,0.0,0.0,0.0,0.0,0.0,0.0,0.0,0.0,0.0,0.0,0.0,0.0,0.0,0.0,0.0,0.0,0.0,0.0,0.0,0.0,0.0,0.0,0.0,0.0,0.0,0.0,0.0,0.0,0.0,0.0,0.0,0.0,0.0,0.0,0.0,0.0,0.0,0.0,0.0,0.0,0.0,0.0,0.0,0.0,0.0,0.0,0.0,0.0,0.0,0.0,0.0,0.0,0.0,0.0,0.0,0.0,0.0,0.0,0.0,0.0,0.0,0.0,0.0,0.0,0.0,0.0,0.0,0.0,0.0,0.0,0.0,0.0,0.0,0.0,0.0,0.0,0.0,0.0,0.0,0.0,0.0,0.0,0.0,0.0,0.0,0.0,0.0,0.0,0.0,0.0,0.0,0.0,0.0,0.0,0.0,0.0,0.0,0.0,0.0,0.0,0.0,0.0,0.0,0.0,0.0,0.0,0.0,0.0,0.0,0.0,0.0,0.0,0.0,0.0,0.0,0.0,0.0,0.0,0.0,0.0,0.0,0.0,0.0,0.0,0.0,0.0,0.0,0.0,0.0,0.0,0.0,0.0,0.0,0.0,0.0,0.0,0.0,0.0,0.0,0.0,0.0,0.0,0.0,0.0,0.0,0.0,0.0,0.0,0.0,0.0,0.0,0.0,0.0,0.0,0.0,0.0,0.0,0.0,0.0,0.0,0.0,0.0,0.0,0.0,0.0,0.0,0.0,0.0,0.0,0.0,0.0,0.0,0.0,0.0,0.0,0.0,0.0,0.0,0.0,0.0,0.0,0.0,0.0,0.0,0.0,0.0,0.0,0.0,0.0,0.0,0.0,0.0,0.0,0.0,0.0,0.0,0.0,0.0,0.0,0.0,0.0,0.0,0.0,0.0,0.0,0.0,0.0,0.0,0.0,0.0,0.0,0.0,0.0,0.0,0.0,0.0,0.0,0.0,0.0,0.0,0.0,0.0,0.0,0.0,0.0,0.0,0.0,0.0,0.0,0.0,0.0,0.0,0.0,0.0,0.0,0.0,0.0,0.0,0.0,0.0,0.0,0.0,0.0,0.0,0.0,0.0,0.0,0.0,0.0,0.0,0.0,0.0,0.0,0.0,0.0,0.0,0.0,0.0,0.0,0.0,0.0,0.0,0.0,0.0,0.0,0.0,0.0,0.0,0.0,0.0,0.0,0.0,0.0,0.0,0.0,0.0,0.0,0.0,0.0,0.0,0.0,0.0,0.0,0.0,0.0,0.0,0.0,0.0,0.0,0.0,0.0,0.0,0.0,0.0,0.0,0.0,0.0,0.0,0.0,0.0,0.0,0.0,0.0,0.0,0.0,0.0,0.0,0.0,0.0,0.0,0.0,0.0,0.0,0.0,0.0,0.0,0.0,0.0,0.0,0.0,0.0,0.0,0.0,0.0,0.0,0.0,0.0,0.0,0.0,0.0,0.0,0.0,0.0,0.0,0.0,0.0,0.0,0.0,0.0,0.0,0.0,0.0,0.0,0.0,0.0,0.0,0.0,0.0,0.0,0.0,0.0,0.0,0.0,0.0,0.0,0.0,0.0,0.0,0.0,0.0,0.0,0.0,0.0,0.0,0.0,0.0,0.0,0.0,0.0,0.0,0.0,0.0,0.0,0.0,0.0,0.0,0.0,0.0,0.0,0.0,0.0,0.0,0.0,0.0,0.0,0.0,0.0,0.0,0.0,0.0,0.0,0.0,0.0,0.0,0.0,0.0,0.0,0.0,0.0,0.0,0.0,0.0,0.0,0.0,0.0,0.0,0.0,0.0,0.0,0.0,0.0,0.0,0.0,0.0,0.0,0.0,0.0,0.0,0.0,0.0,0.0,0.0,0.0,0.0,0.0,0.0,0.0,0.0,0.0,0.0,0.0,0.0,0.0,0.0,0.0,0.0,0.0,0.0,0.0,0.0,0.0,0.0,0.0,0.0,0.0,0.0,0.0,0.0,0.0,0.0,0.0,0.0,0.0,0.0,0.0,0.0,0.0,0.0,0.0,0.0,0.0,0.0,0.0,0.0,0.0,0.0,0.0,0.0,0.0,0.0,0.0,0.0,0.0,0.0,0.0,0.0,0.0,0.0,0.0,0.0,0.0,0.0,0.0,0.0,0.0,0.0,0.0,0.0,0.0,0.0,0.0,0.0,0.0,0.0,0.0,0.0,0.0,0.0,0.0,0.0,0.0,0.0,0.0,0.0,0.0,0.0,0.0,0.0,0.0,0.0,0.0,0.0,0.0,0.0,0.0,0.0,0.0,0.0,0.0,0.0,0.0,0.0,0.0,0.0,0.0,0.0,0.0,0.0,0.0,0.0,0.0,0.0,0.0,0.0,0.0,0.0,0.0,0.0,0.0,0.0,0.0,0.0,0.0,0.0,0.0,0.0,0.0,0.0,0.0,0.0,0.0,0.0,0.0,0.0,0.0,0.0,0.0,0.0,0.0,0.0,0.0,0.0,0.0,0.0,0.0,0.0,0.0,0.0,0.0,0.0,0.0,0.0,0.0,0.0,0.0,0.0,0.0,0.0,0.0,0.0,0.0,0.0,0.0,0.0,0.0,0.0,0.0,0.0,0.0,0.0,0.0,0.0,0.0,0.0,0.0,0.0,0.0,0.0,0.0,0.0,0.9546,0.0,0.0,0.0,0.0,0.0,0.0,0.0,0.0,0.0,0.0,0.0,0.0,0.0,0.0,0.0,0.0,0.0,0.0,0.0,0.0,0.0,0.0,0.0,0.0,0.0,0.0,0.0,0.0,0.0,0.0,0.0,0.0,0.0,0.0,0.0,0.0,0.0,0.0,0.0,0.0,0.0,0.0,0.0,0.0,0.0,0.0,0.0,0.0,0.0,0.0,0.0,0.0,0.0,0.0,0.0,0.0,0.0,0.0,0.0,0.0,0.0,0.0,0.0,0.0,0.0,0.0,0.0,0.0,0.0,0.0,0.0,0.0,0.0,0.0,0.0,0.0,0.0,0.0,0.0,0.0,0.0,0.0,0.0,0.0,0.0,0.0,0.0,0.0,0.0,0.0,0.0,0.0,0.0,0.0,0.0,0.0,0.0,0.0,0.0,0.0,0.0,0.0,0.0,0.0,0.0,0.0,0.0,0.0,0.0,0.0,0.9686,0.9388,0.7234,0.6012,0.5806,0.0,0.0,0.0,0.0,0.0,0.0,0.0,0.0,0.0,0.0,0.0,0.0,0.0,0.0,0.0,0.0,0.0,0.0,0.0,0.0,0.0,0.0,0.0,0.0,0.0,0.0,0.0,0.0,0.0,0.0,0.0,0.0,0.0,0.0,0.0,0.0,0.0,0.0,0.0,0.0,0.0,0.0,0.0,0.0,0.0,0.0,0.0,0.0,0.0,0.0,0.0,0.0,0.0,0.0,0.0,0.0,0.0,0.0,0.0,0.0,0.0,0.0,0.0,0.0,0.0,0.0,0.0,0.0,0.0,0.0,0.0,0.0,0.0,0.0,0.0,0.0,0.0,0.0,0.0,0.0,0.0,0.0,0.0,0.0,0.0,0.0,0.0,0.0,0.0,0.0,0.0,0.0,0.0,0.0,0.0,0.0,0.0,0.0,0.0,0.0,0.0,0.0,0.0,0.0,0.0,0.0,0.0,0.0,0.0,0.0,0.0,0.0,0.5298,0.4103,0.4087,0.0,0.0,0.0,0.0,0.0,0.0,0.0,0.0,0.0,0.0,0.0,0.0,0.0,0.0,0.0,0.0,0.0,0.0,0.0,0.0,0.0,0.0,0.0,0.0,0.0,0.0,0.0,0.0,0.0,0.0,0.0,0.0,0.0,0.0,0.0,0.0,0.0,0.0,0.0,0.0,0.0,0.0,0.0,0.0,0.0,0.0,0.0,0.0,0.0,0.0,0.0,0.0,0.0,0.0,0.0,0.0,0.0,0.0,0.0,0.0,0.0,0.0,0.0,0.0,0.0,0.0,0.0,0.0,0.0,0.0,0.0,0.0,0.0,0.0,0.0,0.0,0.0,0.0,0.0,0.0,0.0,0.0,0.0,0.0,0.0,0.0,0.0,0.0,0.0,0.0,0.0,0.0,0.0,0.0,0.0,0.0,0.0,0.0,0.0,0.0,0.0,0.0,0.0,0.0,0.0,0.0,0.0,0.0,0.0,0.0,0.3717,0.3039,0.5289,0.0,0.9225,0.0,0.0,0.0,0.0,0.0,0.0,0.0,0.0,0.0,0.0,0.0,0.0,0.0,0.0,0.0,0.0,0.0,0.0,0.0,0.0,0.0,0.0,0.0,0.0,0.0,0.0,0.0,0.0,0.0,0.0,0.0,0.0,0.0,0.0,0.0,0.0,0.0,0.0,0.0,0.0,0.0,0.0,0.0,0.0,0.0,0.0,0.0,0.0,0.0,0.0,0.0,0.0,0.0,0.0,0.0,0.0,0.0,0.0,0.0,0.0,0.0,0.0,0.0,0.0,0.0,0.0,0.0,0.0,0.0,0.0,0.0,0.0,0.0,0.0,0.0,0.0,0.0,0.0,0.0,0.0,0.0,0.0,0.0,0.0,0.0,0.0,0.0,0.0,0.0,0.0,0.0,0.0,0.0,0.0,0.0,0.0,0.0,0.0,0.0,0.0,0.0,0.0,0.0,0.0,0.0,0.0,0.0,0.0,0.0,0.0,0.1082,0.0862,0.1137,0.2075,0.0,0.0,0.0,0.0,0.0,0.0,0.0,0.0,0.0,0.0,0.0,0.0,0.0,0.0,0.0,0.0,0.0,0.0,0.0,0.0,0.0,0.0,0.0,0.0,0.0,0.0,0.0,0.0,0.0,0.0,0.0,0.0,0.0,0.0,0.0,0.0,0.0,0.0,0.0,0.0,0.0,0.0,0.0,0.0,0.0,0.0,0.0,0.0,0.0,0.0,0.0,0.0,0.0,0.0,0.0,0.0,0.0,0.0,0.0,0.0,0.0,0.0,0.0,0.0,0.0,0.0,0.0,0.0,0.0,0.0,0.0,0.0,0.0,0.0,0.0,0.0,0.0,0.0,0.0,0.0,0.0,0.0,0.0,0.0,0.0,0.0,0.0,0.0,0.0,0.0,0.0,0.0,0.0,0.0,0.0,0.0,0.0,0.0,0.0,0.0,0.0,0.0,0.0,0.0,0.0,0.0,0.0,0.0,0.0,0.0,-0.1723,-0.1318,-0.0172,-0.1379,-0.0984,0.1421,0.0,0.0,0.0,0.0,0.0,0.0,0.0,0.0,0.0,0.0,0.0,0.0,0.0,0.0,0.0,0.0,0.0,0.0,0.0,0.0,0.0,0.0,0.0,0.0,0.0,0.0,0.0,0.0,0.0,0.0,0.0,0.0,0.0,0.0,0.0,0.0,0.0,0.0,0.0,0.0,0.0,0.0,0.0,0.0,0.0,0.0,0.0,0.0,0.0,0.0,0.0,0.0,0.0,0.0,0.0,0.0,0.0,0.0,0.0,0.0,0.0,0.0,0.0,0.0,0.0,0.0,0.0,0.0,0.0,0.0,0.0,0.0,0.0,0.0,0.0,0.0,0.0,0.0,0.0,0.0,0.0,0.0,0.0,0.0,0.0,0.0,0.0,0.0,0.0,0.0,0.0,0.0,0.0,0.0,0.0,0.0,0.0,0.0,0.0,0.0,0.0,0.0,0.0,0.0,0.0,0.0,0.0,0.0,-0.401,-0.5063,-0.3696,0.0133,-0.0454,0.1411,0.0,0.0,0.0,0.0,0.0,0.0,0.0,0.0,0.0,0.0,0.0,0.0,0.0,0.0,0.0,0.0,0.0,0.0,0.0,0.0,0.0,0.0,0.0,0.0,0.0,0.0,0.0,0.0,0.0,0.0,0.0,0.0,0.0,0.0,0.0,0.0,0.0,0.0,0.0,0.0,0.0,0.0,0.0,0.0,0.0,0.0,0.0,0.0,0.0,0.0,0.0,0.0,0.0,0.0,0.0,0.0,0.0,0.0,0.0,0.0,0.0,0.0,0.0,0.0,0.0,0.0,0.0,0.0,0.0,0.0,0.0,0.0,0.0,0.0,0.0,0.0,0.0,0.0,0.0,0.0,0.0,0.0,0.0,0.0,0.0,0.0,0.0,0.0,0.0,0.0,0.0,0.0,0.0,0.0,0.0,0.0,0.0,0.0,0.0,0.0,0.0,0.0,0.0,0.0,0.0,0.0,0.0,0.0,0.0,-0.7303,-0.6598,-0.4637,-0.1512,-0.1082,0.0739,0.0,0.0,0.0,0.0,0.0,0.0,0.0,0.0,0.0,0.0,0.0,0.0,0.0,0.0,0.0,0.0,0.0,0.0,0.0,0.0,0.0,0.0,0.0,0.0,0.0,0.0,0.0,0.0,0.0,0.0,0.0,0.0,0.0,0.0,0.0,0.0,0.0,0.0,0.0,0.0,0.0,0.0,0.0,0.0,0.0,0.0,0.0,0.0,0.0,0.0,0.0,0.0,0.0,0.0,0.0,0.0,0.0,0.0,0.0,0.0,0.0,0.0,0.0,0.0,0.0,0.0,0.0,0.0,0.0,0.0,0.0,0.0,0.0,0.0,0.0,0.0,0.0,0.0,0.0,0.0,0.0,0.0,0.0,0.0,0.0,0.0,0.0,0.0,0.0,0.0,0.0,0.0,0.0,0.0,0.0,0.0,0.0,0.0,0.0,0.0,0.0,0.0,0.0,0.0,0.0,0.0,0.0,0.0,0.0,-0.8768,0.0,-0.5208,-0.2262,-0.0606,0.0861,0.0,0.0,0.0,0.0,0.0,0.0,0.0,0.0,0.0,0.0,0.0,0.0,0.0,0.0,0.0,0.0,0.0,0.0,0.0,0.0,0.0,0.0,0.0,0.0,0.0,0.0,0.0,0.0,0.0,0.0,0.0,0.0,0.0,0.0,0.0,0.0,0.0,0.0,0.0,0.0,0.0,0.0,0.0,0.0,0.0,0.0,0.0,0.0,0.0,0.0,0.0,0.0,0.0,0.0,0.0,0.0,0.0,0.0,0.0,0.0,0.0,0.0,0.0,0.0,0.0,0.0,0.0,0.0,0.0,0.0,0.0,0.0,0.0,0.0,0.0,0.0,0.0,0.0,0.0,0.0,0.0,0.0,0.0,0.0,0.0,0.0,0.0,0.0,0.0,0.0,0.0,0.0,0.0,0.0,0.0,0.0,0.0,0.0,0.0,0.0,0.0,0.0,0.0,0.0,0.0,0.0,0.0,0.0,-0.9043,-0.7987,-0.7455,-0.5373,-0.1885,0.1096,0.2123,0.0,0.0,0.0,0.0,0.0,0.0,0.0,0.0,0.0,0.0,0.0,0.0,0.0,0.0,0.0,0.0,0.0,0.0,0.0,0.0,0.0,0.0,0.0,0.0,0.0,0.0,0.0,0.0,0.0,0.0,0.0,0.0,0.0,0.0,0.0,0.0,0.0,0.0,0.0,0.0,0.0,0.0,0.0,0.0,0.0,0.0,0.0,0.0,0.0,0.0,0.0,0.0,0.0,0.0,0.0,0.0,0.0,0.0,0.0,0.0,0.0,0.0,0.0,0.0,0.0,0.0,0.0,0.0,0.0,0.0,0.0,0.0,0.0,0.0,0.0,0.0,0.0,0.0,0.0,0.0,0.0,0.0,0.0,0.0,0.0,0.0,0.0,0.0,0.0,0.0,0.0,0.0,0.0,0.0,0.0,0.0,0.0,0.0,0.0,0.0,0.0,0.0,0.0,0.0,0.0,0.0,0.0,0.0,0.0,-0.6253,-0.5309,-0.352,-0.0845,0.1141,0.1925,0.0,0.0,0.0,0.0,0.0,0.0,0.0,0.0,0.0,0.0,0.0,0.0,0.0,0.0,0.0,0.0,0.0,0.0,0.0,0.0,0.0,0.0,0.0,0.0,0.0,0.0,0.0,0.0,0.0,0.0,0.0,0.0,0.0,0.0,0.0,0.0,0.0,0.0,0.0,0.0,0.0,0.0,0.0,0.0,0.0,0.0,0.0,0.0,0.0,0.0,0.0,0.0,0.0,0.0,0.0,0.0,0.0,0.0,0.0,0.0,0.0,0.0,0.0,0.0,0.0,0.0,0.0,0.0,0.0,0.0,0.0,0.0,0.0,0.0,0.0,0.0,0.0,0.0,0.0,0.0,0.0,0.0,0.0,0.0,0.0,0.0,0.0,0.0,0.0,0.0,0.0,0.0,0.0,0.0,0.0,0.0,0.0,0.0,0.0,0.0,0.0,0.0,0.0,0.0,0.0,0.0,0.0,0.0,0.0,-0.4434,-0.3961,-0.2805,-0.0779,0.0823,0.1456,0.1092,0.0,0.0,0.0,0.0,0.0,0.0,0.0,0.0,0.0,0.0,0.0,0.0,0.0,0.0,0.0,0.0,0.0,0.0,0.0,0.0,0.0,0.0,0.0,0.0,0.0,0.0,0.0,0.0,0.0,0.0,0.0,0.0,0.0,0.0,0.0,0.0,0.0,0.0,0.0,0.0,0.0,0.0,0.0,0.0,0.0,0.0,0.0,0.0,0.0,0.0,0.0,0.0,0.0,0.0,0.0,0.0,0.0,0.0,0.0,0.0,0.0,0.0,0.0,0.0,0.0,0.0,0.0,0.0,0.0,0.0,0.0,0.0,0.0,0.0,0.0,0.0,0.0,0.0,0.0,0.0,0.0,0.0,0.0,0.0,0.0,0.0,0.0,0.0,0.0,0.0,0.0,0.0,0.0,0.0,0.0,0.0,0.0,0.0,0.0,0.0,0.0,0.0,0.0,0.0,0.0,0.0,0.0,0.0,-0.2571,-0.3332,-0.295,-0.1382,0.027,0.0832,0.0,0.0,0.0,0.0,0.0,0.0,0.0,0.0,0.0,0.0,0.0,0.0,0.0,0.0,0.0,0.0,0.0,0.0,0.0,0.0,0.0,0.0,0.0,0.0,0.0,0.0,0.0,0.0,0.0,0.0,0.0,0.0,0.0,0.0,0.0,0.0,0.0,0.0,0.0,0.0,0.0,0.0,0.0,0.0,0.0,0.0,0.0,0.0,0.0,0.0,0.0,0.0,0.0,0.0,0.0,0.0,0.0,0.0,0.0,0.0,0.0,0.0,0.0,0.0,0.0,0.0,0.0,0.0,0.0,0.0,0.0,0.0,0.0,0.0,0.0,0.0,0.0,0.0,0.0,0.0,0.0,0.0,0.0,0.0,0.0,0.0,0.0,0.0,0.0,0.0,0.0,0.0,0.0,0.0,0.0,0.0,0.0,0.0,0.0,0.0,0.0,0.0,0.0,0.0,0.0,0.0,0.0,0.0,0.0,-0.1767,-0.182,-0.1605,-0.0952,-0.0081,0.0423,0.0,0.0,0.0,0.0,0.0,0.0,0.0,0.0,0.0,0.0,0.0,0.0,0.0,0.0,0.0,0.0,0.0,0.0,0.0,0.0,0.0,0.0,0.0,0.0,0.0,0.0,0.0,0.0,0.0,0.0,0.0,0.0,0.0,0.0,0.0,0.0,0.0,0.0,0.0,0.0,0.0,0.0,0.0,0.0,0.0,0.0,0.0,0.0,0.0,0.0,0.0,0.0,0.0,0.0,0.0,0.0,0.0,0.0,0.0,0.0,0.0,0.0,0.0,0.0,0.0,0.0,0.0,0.0,0.0,0.0,0.0,0.0,0.0,0.0,0.0,0.0,0.0,0.0,0.0,0.0,0.0,0.0,0.0,0.0,0.0,0.0,0.0,0.0,0.0,0.0,0.0,0.0,0.0,0.0,0.0,0.0,0.0,0.0,0.0,0.0,0.0,0.0,0.0,0.0,0.0,0.0,0.0,0.0,-0.2887,-0.1355,-0.1245,-0.1222,-0.121,-0.0667,-0.016,0.0,0.0,0.0,0.0,0.0,0.0,0.0,0.0,0.0,0.0,0.0,0.0,0.0,0.0,0.0,0.0,0.0,0.0,0.0,0.0,0.0,0.0,0.0,0.0,0.0,0.0,0.0,0.0,0.0,0.0,0.0,0.0,0.0,0.0,0.0,0.0,0.0,0.0,0.0,0.0,0.0,0.0,0.0,0.0,0.0,0.0,0.0,0.0,0.0,0.0,0.0,0.0,0.0,0.0,0.0,0.0,0.0,0.0,0.0,0.0,0.0,0.0,0.0,0.0,0.0,0.0,0.0,0.0,0.0,0.0,0.0,0.0,0.0,0.0,0.0,0.0,0.0,0.0,0.0,0.0,0.0,0.0,0.0,0.0,0.0,0.0,0.0,0.0,0.0,0.0,0.0,0.0,0.0,0.0,0.0,0.0,0.0,0.0,0.0,0.0,0.0,0.0,0.0,0.0,0.0,0.0,0.0,0.0,-0.1764,-0.1222,-0.1208,-0.138,-0.1709,-0.1295,-0.0836,0.0,0.0,0.0,0.0,0.0,0.0,0.0,0.0,0.0,0.0,0.0,0.0,0.0,0.0,0.0,0.0,0.0,0.0,0.0,0.0,0.0,0.0,0.0,0.0,0.0,0.0,0.0,0.0,0.0,0.0,0.0,0.0,0.0,0.0,0.0,0.0,0.0,0.0,0.0,0.0,0.0,0.0,0.0,0.0,0.0,0.0,0.0,0.0,0.0,0.0,0.0,0.0,0.0,0.0,0.0,0.0,0.0,0.0,0.0,0.0,0.0,0.0,0.0,0.0,0.0,0.0,0.0,0.0,0.0,0.0,0.0,0.0,0.0,0.0,0.0,0.0,0.0,0.0,0.0,0.0,0.0,0.0,0.0,0.0,0.0,0.0,0.0,0.0,0.0,0.0,0.0,0.0,0.0,0.0,0.0,0.0,0.0,0.0,0.0,0.0,0.0,0.0,0.0,0.0,0.0,0.0,0.0,0.0,-0.0362,-0.0583,-0.0652,-0.0907,-0.1414,-0.1397,-0.1293,0.0,0.0,0.0,0.0,0.0,0.0,0.0,0.0,0.0,0.0,0.0,0.0,0.0,0.0,0.0,0.0,0.0,0.0,0.0,0.0,0.0,0.0,0.0,0.0,0.0,0.0,0.0,0.0,0.0,0.0,0.0,0.0,0.0,0.0,0.0,0.0,0.0,0.0,0.0,0.0,0.0,0.0,0.0,0.0,0.0,0.0,0.0,0.0,0.8922,0.0,0.0,0.0,0.0,0.0,0.0,0.0,0.0,0.0,0.0,0.0,0.0,0.0,0.0,0.0,0.0,0.0,0.0,0.0,0.0,0.0,0.0,0.0,0.0,0.0,0.0,0.0,0.0,0.0,0.0,0.0,0.0,0.0,0.0,0.0,0.0,0.0,0.0,0.0,0.0,0.0,0.0,0.0,0.0,0.0,0.0,0.0,0.0,0.0,0.0,0.0,0.0,0.0,0.0,0.0,0.0,0.0,0.0,0.0,0.0119,-0.0864,-0.0761,-0.101,-0.165,-0.1746,-0.1555,0.0,0.0,0.0,0.0,0.0,0.0,0.0,0.0,0.0,0.0,0.0,0.0,0.0,0.0,0.0,0.0,0.0,0.0,0.0,0.0,0.0,0.0,0.0,0.0,0.0,0.0,0.0,0.0,0.0,0.0,0.0,0.0,0.0,0.0,0.0,0.0,0.0,0.0,0.0,0.0,0.0,0.0,0.0,0.0,0.0,0.0,0.0,0.0,0.0,0.0,0.0,0.0,0.0,0.0,0.0,0.0,0.0,0.0,0.0,0.0,0.0,0.0,0.0,0.0,0.0,0.0,0.0,0.0,0.0,0.0,0.0,0.0,0.0,0.0,0.0,0.0,0.0,0.0,0.0,0.0,0.0,0.0,0.0,0.0,0.0,0.0,0.0,0.0,0.0,0.0,0.0,0.0,0.0,0.0,0.0,0.0,0.0,0.0,0.0,0.0,0.0,0.0,0.0,0.0,0.0,0.0,0.0,-0.0143,0.0311,-0.127,-0.0974,-0.1177,-0.1923,-0.1983,-0.1654,-0.0872,0.0,0.0,0.0,0.0,0.0,0.0,0.0,0.0,0.0,0.0,0.0,0.0,0.0,0.0,0.0,0.0,0.0,0.0,0.0,0.0,0.0,0.0,0.0,0.0,0.0,0.0,0.0,0.0,0.0,0.0,0.0,0.0,0.0,0.0,0.0,0.0,0.0,0.0,0.9591,0.921,0.0,0.0,0.0,0.0,0.0,0.0,0.0,0.0,0.9377,0.0,0.0,0.0,0.0,0.0,0.0,0.0,0.0,0.0,0.0,0.0,0.0,0.0,0.0,0.0,0.0,0.0,0.0,0.0,0.0,0.0,0.0,0.0,0.0,0.0,0.0,0.0,0.0,0.0,0.0,0.0,0.0,0.0,0.0,0.0,0.0,0.0,0.0,0.0,0.0,0.0,0.0,0.0,0.0,0.0,0.0,0.0,0.0,0.0,0.0,0.0,0.0,0.0,0.0,0.0,0.0,-0.1638,0.0595,0.0921,-0.077,-0.0436,-0.0604,-0.1306,-0.1509,-0.143,-0.1044,0.0,0.0,0.0,0.0,0.0,0.0,0.0,0.0,0.0,0.0,0.0,0.0,0.0,0.0,0.0,0.0,0.0,0.0,0.0,0.0,0.0,0.0,0.0,0.0,0.0,0.0,0.0,0.0,0.0,0.0,0.0,0.0,0.0,0.0,0.0,0.0,0.0,0.0,0.0,1.0109,1.0278,0.0,0.0,0.0,0.0,0.0,0.0,0.0,0.0,0.9047,0.0,0.0,0.0,0.0,0.0,0.0,0.0,0.0,0.0,0.0,0.0,0.0,0.0,0.0,0.0,0.0,0.0,0.0,0.0,0.0,0.0,0.0,0.0,0.0,0.0,0.0,0.0,0.0,0.0,0.0,0.0,0.0,0.0,0.0,0.0,0.0,0.0,0.0,0.0,0.0,0.0,0.0,0.0,0.0,0.0,0.0,0.0,0.0,0.0,0.0,0.0,0.0,0.0,0.0,0.0,-0.0661,0.0722,0.0916,-0.0235,0.0034,-0.0168,-0.0972,-0.1109,-0.1014,0.0,0.0,0.0,0.0,0.0,0.0,0.0,0.0,0.0,0.0,0.0,0.0,0.0,0.0,0.0,0.0,0.0,0.0,0.0,0.0,0.0,0.0,0.0,0.0,0.0,0.0,0.0,0.0,0.0,0.0,0.0,0.0,0.0,0.0,0.0,0.0,0.0,0.0,0.0,0.0,1.0521,1.0916,1.1076,0.0,0.0,0.0,0.0,0.0,0.0,0.9844,0.9756,0.0,0.0,0.0,0.0,0.0,0.0,0.0,0.0,0.0,0.0,0.0,0.0,0.0,0.0,0.0,0.0,0.0,0.0,0.0,0.0,0.0,0.0,0.0,0.0,0.0,0.0,0.0,0.0,0.0,0.0,0.0,0.0,0.0,0.0,0.0,0.0,0.0,0.0,0.0,0.0,0.0,0.0,0.0,0.0,0.0,0.0,0.0,0.0,0.0,0.0,0.0,0.0,0.0,0.0,0.0,-0.0168,0.0626,0.0698,0.0101,0.0403,0.0168,-0.0672,-0.0837,-0.0726,0.0,0.0,0.0,0.0,0.0,0.0,0.0,0.0,0.0,0.0,0.0,0.0,0.0,0.0,0.0,0.0,0.0,0.0,0.0,0.0,0.0,0.0,0.0,0.0,0.0,0.0,0.0,0.0,0.0,0.0,0.0,0.0,0.0,0.0,0.0,0.0,0.0,0.0,0.0,0.0,0.0,1.1757,1.2123,1.1083,0.0,0.0,0.0,0.0,1.0406,1.0804,0.0,0.0,0.0,0.0,0.0,0.0,0.0,0.0,0.0,0.0,0.0,0.0,0.0,0.0,0.0,0.0,0.0,0.0,0.0,0.0,0.0,0.0,0.0,0.0,0.0,0.0,0.0,0.0,0.0,0.0,0.0,0.0,0.0,0.0,0.0,0.0,0.0,0.0,0.0,0.0,0.0,0.0,0.0,0.0,0.0,0.0,0.0,0.0,0.0,0.0,0.0,0.0,0.0,0.0,0.0,0.0,-0.0279,0.039,0.0479,-0.0,0.0538,0.0437,-0.0403,-0.0969,-0.0853,0.0,0.0,0.0,0.0,0.0,0.0,0.0,0.0,0.0,0.0,0.0,0.0,0.0,0.0,0.0,0.0,0.0,0.0,0.0,0.0,0.0,0.0,0.0,0.0,0.0,0.0,0.0,0.0,0.0,0.0,0.0,0.0,0.0,0.0,0.0,0.0,0.0,0.0,0.0,0.0,0.0,1.3725,1.2088,1.2186,1.2579,0.0,0.0,1.1229,1.2813,1.1871,0.0,0.0,0.0,0.0,0.0,0.0,0.0,0.0,0.0,0.0,0.0,0.0,0.0,0.0,0.0,0.0,0.0,0.0,0.0,0.0,0.0,0.0,0.0,0.0,0.0,0.0,0.0,0.0,0.0,0.0,0.0,0.0,0.0,0.0,0.0,0.0,0.0,0.0,0.0,0.0,0.0,0.0,0.0,0.0,0.0,0.0,0.0,0.0,0.0,0.0,0.0,0.0,0.0,0.0,0.0,-0.1027,-0.0616,0.0154,0.0491,0.0269,0.0639,0.0505,-0.0168,-0.0536,-0.0711,0.0,0.0,0.0,0.0,0.0,0.0,0.0,0.0,0.0,0.0,0.0,0.0,0.0,0.0,0.0,0.0,0.0,0.0,0.0,0.0,0.0,0.0,0.0,0.0,0.0,0.0,0.0,0.0,0.0,0.0,0.0,0.0,0.0,0.0,0.0,0.0,0.0,0.0,0.0,0.0,0.0,0.0,1.3001,1.3116,0.0,0.0,0.0,1.2877,1.3282,0.0,0.0,0.0,0.0,0.0,0.0,0.0,0.0,0.0,0.0,0.0,0.0,0.0,0.0,0.0,0.0,0.0,0.0,0.0,0.0,0.0,0.0,0.0,0.0,0.0,0.0,0.0,0.0,0.0,0.0,0.0,0.0,0.0,0.0,0.0,0.0,0.0,0.0,0.0,0.0,0.0,0.0,0.0,0.0,0.0,0.0,0.0,0.0,0.0,0.0,0.0,0.0,0.0,0.0,0.0,0.0,0.0,-0.0896,-0.0032,0.0437,0.0505,0.0774,0.0673,0.0134,-0.0152,0.0,0.0,0.0,0.0,0.0,0.0,0.0,0.0,0.0,0.0,0.0,0.0,0.0,0.0,0.0,0.0,0.0,0.0,0.0,0.0,0.0,0.0,0.0,0.0,0.0,0.0,0.0,0.4626,0.0,0.0,0.0,0.0,0.0,0.0,0.0,0.0,0.0,0.0,0.0,0.0,0.0,0.0,1.2885,1.3561,1.405,1.4393,0.0,0.0,1.4262,1.3805,1.4077,1.3423,0.0,0.0,0.0,0.0,0.0,0.0,0.0,0.0,0.0,0.0,0.0,0.0,0.0,0.0,0.0,0.0,0.0,0.0,0.0,0.0,0.0,0.0,0.0,0.0,0.0,0.0,0.0,0.0,0.0,0.0,0.0,0.0,0.0,0.0,0.0,0.0,0.0,0.0,0.0,0.0,0.0,0.0,0.0,0.0,0.0,0.0,0.0,0.0,0.0,0.0,0.0,0.0,0.0,0.0,-0.1723,-0.0899,-0.0222,0.0269,0.0505,0.101,0.101,0.0471,-0.0095,-0.0357,0.0,0.0,0.0,0.0,0.0,0.0,0.0,0.0,0.0,0.0,0.0,0.0,0.0,0.0,0.0,0.0,0.0,0.0,0.0,0.0,0.0,0.0,0.0,0.0,0.0,0.0,0.0,0.0,0.0,0.0,0.0,0.0,0.0,0.0,0.0,0.0,0.0,0.0,0.0,0.0,0.0,1.3797,1.3066,1.5105,1.635,0.0,1.5209,1.5068,1.5131,1.468,1.3751,1.2084,0.0,0.0,0.0,0.0,0.0,0.0,0.0,0.0,0.0,0.0,0.0,0.0,0.0,0.0,0.0,0.0,0.0,0.0,0.0,0.0,0.0,0.0,0.0,0.0,0.0,0.0,0.0,0.0,0.0,0.0,0.0,0.0,0.0,0.0,0.0,0.0,0.0,0.0,0.0,0.0,0.0,0.0,0.0,0.0,0.0,0.0,0.0,0.0,0.0,0.0,0.0,0.0,0.0,-0.1725,-0.0896,-0.0284,0.0368,0.104,0.1341,0.1308,0.087,0.0569,0.0328,0.0,0.0,0.0,0.0,0.0,0.0,0.0,0.0,0.0,0.0,0.0,0.0,0.0,0.0,0.0,0.0,0.0,0.0,0.0,0.0,0.0,0.0,0.0,0.0,0.0,0.0,0.0,0.0,0.6198,0.639,0.6592,0.0,0.0,0.0,0.0,0.0,0.0,0.0,0.0,0.0,0.0,1.3315,1.377,1.5196,0.0,0.0,1.5858,1.6011,1.5243,1.4896,1.4096,1.2256,1.1476,0.0,0.0,0.0,0.0,0.0,0.0,0.0,0.0,0.0,0.0,0.0,0.0,0.0,0.0,0.0,0.0,0.0,0.0,0.0,0.0,0.0,0.0,0.0,0.0,0.0,0.0,0.0,0.0,0.0,0.0,0.0,0.0,0.0,0.0,0.0,0.0,0.0,0.0,0.0,0.0,0.0,0.0,0.0,0.0,0.0,0.0,0.0,0.0,0.0,0.0,0.0,0.0,-0.1838,-0.0982,-0.041,0.0367,0.1271,0.1507,0.154,0.1336,0.1202,0.1041,0.0,0.0,0.0,0.0,0.0,0.0,0.0,0.0,0.0,0.0,0.0,0.0,0.0,0.0,0.0,0.0,0.0,0.0,0.0,0.0,0.0,0.0,0.0,0.0,0.0,0.0,0.0,0.0,0.6117,0.6362,0.6373,0.0,0.0,0.0,0.0,0.0,0.0,0.0,0.0,0.0,0.0,1.344,1.4538,1.5631,1.6187,1.5808,1.6032,1.5934,1.5002,1.4716,1.3888,1.1844,0.0,0.0,0.0,0.0,0.0,0.0,0.0,0.0,0.0,0.0,0.0,0.0,0.0,0.0,0.0,0.0,0.0,0.0,0.0,0.0,0.0,0.0,0.0,0.0,0.0,0.0,0.0,0.1066,0.0,0.0,0.1837,0.0,0.0,0.0,0.0,0.0,0.0,0.0,0.0,0.0,0.0,0.0,0.0,0.0,0.0,0.0,0.0,0.0,0.0,0.0,0.0,0.0,0.0,-0.2124,-0.1215,-0.0664,0.01,0.1103,0.1507,0.1742,0.1773,0.1713,0.1703,0.1744,0.0,0.0,0.0,0.0,0.0,0.0,0.0,0.0,0.0,0.0,0.0,0.0,0.0,0.0,0.0,0.0,0.0,0.0,0.0,0.0,0.0,0.0,0.0,0.0,0.0,0.0,0.6158,0.6356,0.6224,0.0,0.0,0.0,0.0,0.0,0.0,0.0,0.0,0.0,0.0,1.3077,1.4443,1.5265,1.6581,1.7311,1.7069,1.5675,1.4585,1.4586,1.4106,1.3015,0.0,0.0,0.0,0.0,0.0,0.0,0.0,0.0,0.0,0.0,0.0,0.0,0.0,0.0,0.0,0.0,0.0,0.0,0.0,0.0,0.0,0.0,0.0,0.0,0.0,0.0,0.0,-0.1375,-0.0822,0.0,0.0,0.0,0.0,0.0,0.0,0.0,0.0,0.0,0.0,0.0,-0.0058,-0.1552,0.0,0.0,0.0,0.0,0.0,0.0,0.0,0.0,0.0,0.0,0.0,0.0,-0.2232,-0.1249,-0.0727,0.0366,0.2032,0.2103,0.2272,0.2606,0.2365,0.2116,0.188,0.0,0.0,0.0,0.0,0.0,0.0,0.0,0.0,0.0,0.0,0.0,0.0,0.0,0.0,0.0,0.0,0.0,0.0,0.0,0.0,0.0,0.0,0.0,0.0,0.0,0.5502,0.0,0.0,0.0,0.0,0.0,0.0,0.0,0.0,0.0,0.0,0.0,0.9521,1.2001,1.3368,1.4546,1.5718,1.662,1.7142,0.0,0.0,0.0,0.0,0.0,0.0,0.0,0.0,0.0,0.0,0.0,0.0,0.0,0.0,1.2805,0.9938,0.9723,0.9824,0.9255,0.0,0.0,0.0,0.0,0.0,0.0,0.0,0.0,0.0,0.0,0.0,0.0,0.0,0.0,-0.3293,0.0,-0.2009,0.0,0.0,0.0,0.0,0.0,0.0,0.0,0.0,-0.0482,-0.1492,-0.2414,-0.3492,-0.4693,0.0,-0.677,-0.7174,0.0,0.0,0.0,0.0,0.0,0.0,0.0,0.0,-0.2012,-0.1099,-0.0588,0.049,0.2062,0.2368,0.2669,0.3101,0.2974,0.2716,0.2367,0.2346,0.2235,0.0,0.0,0.0,0.0,0.0,0.0,0.0,0.0,0.0,0.0,0.0,0.0,0.0,0.0,0.0,0.0,0.0,0.0,0.0,0.0,0.0,0.0,0.0,0.558,0.0,0.0,0.0,0.0,0.0,0.0,0.0,0.0,0.0,0.8393,0.9243,1.0649,1.2872,1.3941,1.4974,1.6169,0.0,0.0,0.0,0.0,0.0,0.0,0.0,1.481,1.4315,1.4156,1.393,1.3575,1.3854,1.4025,1.3642,0.0,0.0,1.0855,1.0302,1.0267,1.0253,1.0594,1.1241,1.2495,1.316,1.3816,0.0,0.0,0.0,0.0,0.0,0.0,0.0,0.0,-0.5037,-0.494,0.0,-0.3684,0.0,0.0,0.0,0.0,-0.0486,-0.1183,0.0,0.0,-0.3159,-0.4416,-0.5276,-0.6456,-0.7492,-0.8314,-0.8551,-0.8227,-0.7358,-0.6985,0.0,0.0,0.0,0.0,0.0,0.0,-0.1516,-0.0927,-0.0328,0.0442,0.1335,0.2266,0.2966,0.329,0.3494,0.3446,0.3184,0.3302,0.3185,0.2726,0.2037,0.0,0.0,0.0,0.0,0.0,0.0,0.0,0.0,0.0,0.0,0.0,0.0,0.0,0.0,0.0,0.0,0.0,0.0,0.0,0.0,0.62,0.0,0.0,0.0,0.0,0.0,0.0,0.0,0.0,0.0,0.0,0.918,1.0596,1.2229,1.3798,0.0,0.0,0.0,0.0,1.7498,1.7441,1.6271,1.5375,1.5379,1.5432,1.5064,1.3837,0.0,0.0,1.3938,1.3665,1.3718,1.3599,1.3667,1.3278,1.2672,1.2092,1.2198,1.3574,1.3405,1.3961,1.5937,1.6265,1.6466,-1.0616,0.0,0.0,0.0,0.0,-0.8622,-0.8659,-0.8427,-0.8007,-0.7481,-0.6867,-0.5469,0.0,0.0,0.0,0.0,0.0,0.0,-0.278,-0.3457,-0.4806,-0.5892,-0.6754,-0.8181,-0.8939,-0.9096,-0.9158,-0.8789,-0.802,-0.7394,-0.6425,-0.5146,0.0,0.0,0.0,0.0,-0.1763,-0.1109,-0.038,0.0557,0.1725,0.2233,0.2669,0.2999,0.3377,0.3348,0.2853,0.3325,0.3367,0.2862,0.2827,0.0,0.0,0.0,0.0,0.0,0.0,0.0,0.0,0.0,0.0,0.0,0.0,0.0,0.0,0.0,0.0,0.0,0.0,0.0,0.5854,0.5837,0.5839,0.0,0.0,0.0,0.0,0.0,0.0,0.0,0.0,0.0,1.1625,1.2088,1.2852,0.0,0.0,1.593,1.6512,1.71,1.7292,1.671,1.6326,0.0,1.6088,1.5832,1.6004,1.6997,1.7631,1.7691,1.7043,1.6635,1.6488,1.6618,1.5967,1.5338,1.5134,1.3956,1.3223,1.3613,1.4138,1.489,1.5919,1.6827,1.7498,-1.2741,-1.1027,-1.1139,-1.1003,-1.077,-1.0963,-1.081,-1.0459,-0.994,-0.9257,-0.8436,-0.6944,-0.5702,-0.4709,-0.3561,0.0,0.0,0.0,-0.5256,-0.5812,-0.7408,-0.8566,-0.9392,-1.0345,-1.061,-1.0267,-0.9882,-0.9258,-0.8449,-0.7883,-0.6929,-0.5535,0.0,0.0,-0.3289,-0.2515,-0.178,-0.1105,-0.0223,0.0783,0.1925,0.2534,0.2937,0.313,0.3593,0.357,0.3085,0.3539,0.3655,0.3293,0.3245,0.291,0.0,0.0,0.0,0.0,0.0,0.0,0.0,0.0,0.0,0.0,0.0,0.2802,0.3434,0.0,0.0,0.0,0.5611,0.5859,0.6647,0.648,0.0,0.0,0.0,0.0,0.0,0.0,0.0,0.9956,1.1312,1.239,1.279,1.3245,1.3919,1.4913,1.5535,1.6126,1.6779,0.0,1.7425,1.7188,1.7219,1.7226,1.7226,1.73,1.7665,1.8589,1.8676,1.8432,1.7957,1.7532,1.7368,1.7442,1.6964,1.6513,1.656,1.5619,1.4838,1.4772,1.5141,1.5799,1.6743,1.7523,1.8037,-1.4576,-1.4208,-1.4007,-1.3872,-1.37,-1.3126,-1.2508,-1.1838,-1.0988,-1.0283,-0.967,-0.8059,-0.6989,-0.6304,-0.4711,0.0,-0.4575,-0.717,-0.8317,-0.8416,-1.0374,-1.1765,-1.2515,-1.2681,-1.2395,-1.1682,-1.0685,-0.9689,-0.8754,-0.8437,-0.7634,-0.6323,-0.5836,-0.4977,-0.3731,-0.2668,-0.1734,-0.0924,0.0124,0.1142,0.2095,0.3064,0.3536,0.3499,0.3866,0.3894,0.3597,0.3829,0.3946,0.3879,0.3376,0.3017,0.282,0.0,0.0,0.0,0.0,0.0,0.0,0.0,0.0,0.0,0.0,0.0,0.0,0.0,0.0,0.0,0.629,0.0,0.7973,0.7744,0.0,0.0,0.0,0.8837,1.0005,1.0841,1.1543,1.2113,0.0,0.0,1.3174,1.4141,1.5188,1.5989,1.607,1.6355,1.7314,1.76,1.7872,1.8344,1.8476,1.8476,1.8377,1.9101,1.9513,1.9018,1.866,1.8251,1.7494,1.7009,1.6857,1.6926,1.6876,1.686,1.6942,1.6822,1.6889,1.6536,1.6311,1.6543,1.7752,1.8142,1.8142,-1.4953,-1.5866,-1.5608,-1.4964,-1.4092,-1.3263,-1.2864,-1.2754,-1.1348,-1.0284,-0.9476,-0.8242,-0.7141,-0.6212,-0.5809,-0.633,-0.7561,-0.8418,-0.933,-1.0287,-1.1574,-1.2414,-1.2839,-1.3746,-1.3635,-1.2566,-1.156,-1.038,-0.91,-0.8669,-0.7697,-0.6278,-0.6388,-0.5644,-0.3968,-0.2909,-0.1999,-0.1146,0.0328,0.1742,0.3147,0.3266,0.3372,0.3565,0.3759,0.3656,0.3257,0.3744,0.3849,0.3516,0.3382,0.3282,0.3177,0.28,0.0,0.0,0.0,0.0,0.0,0.0,0.0,0.0,0.0,0.5504,0.4309,0.0,0.5623,0.0,0.6071,0.6875,0.7732,0.8187,0.0,0.0,0.9577,1.0237,1.1198,1.1912,1.2512,1.2887,1.4038,1.4853,1.4947,1.5254,1.6045,1.7486,1.7355,1.7282,1.7791,1.8549,1.8861,1.8541,1.8466,1.8458,1.8632,1.9664,2.03,1.9593,1.925,1.8816,1.8026,1.7193,1.6659,1.6722,1.6633,1.6554,1.6607,1.6659,1.6664,1.6625,1.6757,1.6941,1.7166,1.7568,1.781,-1.5287,-1.6008,-1.6008,-1.5711,-1.5181,-1.43,-1.3592,-1.3032,-1.1895,-1.0673,-0.9367,-0.8136,-0.7132,-0.648,-0.6805,-0.7652,-0.8898,-0.9836,-1.073,-1.1653,-1.2765,-1.3323,-1.3412,-1.4065,-1.3758,-1.2595,-1.1682,-1.0573,-0.9391,-0.8753,-0.7791,-0.6565,-0.6643,-0.5665,-0.375,-0.2745,-0.1672,-0.0433,0.1396,0.2754,0.3547,0.3691,0.3718,0.3685,0.3879,0.3718,0.3209,0.374,0.3895,0.3605,0.3565,0.3603,0.3736,0.3452,0.3294,0.0,0.0,0.0,0.0,0.0,0.0,0.0,0.0,0.0,0.0,0.0,0.6053,0.6012,0.691,0.7731,0.8344,0.9242,0.9891,1.0111,1.0998,1.1836,1.2443,1.3054,1.3519,1.3717,1.4833,1.5482,1.518,1.5705,1.6474,1.7517,1.7774,1.8048,1.8589,1.9138,1.9416,1.9388,1.9252,1.9272,1.952,2.0,2.0241,1.9805,1.9264,1.863,1.7832,1.6889,1.6274,1.6328,1.6274,1.6246,1.6301,1.6382,1.6425,1.6409,1.6523,1.668,1.6789,1.706,1.7158,-1.5553,-1.5465,-1.5799,-1.6083,-1.6241,-1.5504,-1.4432,-1.3159,-1.2403,-1.1104,-0.9322,-0.8071,-0.7376,-0.717,-0.7953,-0.8774,-0.9735,-1.1304,-1.2279,-1.2793,-1.3824,-1.4219,-1.4086,-1.4026,-1.3445,-1.2406,-1.1549,-1.0626,-0.967,-0.8846,-0.795,-0.7008,-0.6652,-0.5415,-0.3297,-0.2249,-0.0892,0.0827,0.2813,0.3816,0.3839,0.4215,0.4251,0.3987,0.4102,0.3972,0.3421,0.386,0.4048,0.3828,0.3803,0.3986,0.4323,0.403,0.3934,0.0,0.3973,0.0,0.0,0.0,0.0,0.0,0.0,0.0,0.0,0.5754,0.658,0.7045,0.8053,0.8873,0.9298,1.0393,1.1036,1.1045,1.2273,1.3267,1.3517,1.4059,1.4429,1.4424,1.5457,1.577,1.5063,1.5978,1.6815,1.7206,1.7804,1.8486,1.9225,1.9495,1.978,2.0495,2.034,2.0192,2.056,2.0273,1.9956,1.9861,1.9186,1.8253,1.7559,1.659,1.5932,1.5915,1.5955,1.6011,1.6067,1.6139,1.6166,1.6123,1.608,1.6176,1.6528,1.6607,1.657,-1.5189,-1.561,-1.5615,-1.5622,-1.5668,-1.5271,-1.4777,-1.4081,-1.2312,-1.0754,-0.9394,-0.9031,-0.9008,-0.9256,-1.0071,-1.0971,-1.1997,-1.2868,-1.3539,-1.4034,-1.4237,-1.4382,-1.4476,-1.4193,-1.3799,-1.3155,-1.2265,-1.1216,-1.0084,-0.9211,-0.8169,-0.6945,-0.6646,-0.5345,-0.3062,0.0,0.0,0.0,0.3533,0.4296,0.4915,0.4608,0.4483,0.4677,0.4424,0.0,0.3803,0.4158,0.4213,0.3923,0.4231,0.0,0.0,0.0,0.0,0.0,0.0,0.0,0.0,0.0,0.0,0.0,0.4484,0.4848,0.5058,0.6212,0.7137,0.7554,0.8286,0.8957,0.9444,1.0564,1.1491,1.1937,1.2844,1.3526,1.3807,1.4215,1.4537,1.4732,1.5662,1.6337,1.6312,1.6891,1.7562,1.8164,1.827,1.8431,1.9061,1.9654,2.0189,2.046,2.0412,2.049,2.0763,2.0489,2.0282,2.0429,1.9682,1.876,1.8084,1.7167,1.6323,1.5947,1.5856,1.5913,1.5957,1.6055,1.6095,1.6039,1.5996,1.6011,1.6083,1.6191,1.6285,-1.5265,-1.5566,-1.5587,-1.5528,0.0,-1.5074,-1.4628,-1.4157,-1.2653,-1.1036,-0.9392,-0.9295,-0.9347,-0.9444,-1.0501,-1.1499,-1.2453,-1.3537,-1.4139,-1.4347,-1.4398,-1.4299,-1.4145,-1.3689,-1.3245,-1.2784,-1.2017,-1.1067,-0.9908,-0.934,-0.8287,-0.673,-0.6739,-0.5274,-0.2391,0.0456,0.2397,0.3371,0.4156,0.4839,0.5421,0.497,0.4838,0.5127,0.4756,0.0,0.0,0.0,0.0,0.0,0.0,0.0,0.0,0.5048,0.0,0.4644,0.4794,0.4657,0.4161,0.438,0.4566,0.4581,0.5066,0.5515,0.5829,0.6617,0.7363,0.7988,0.8797,0.9372,0.9604,1.0989,1.1905,1.2007,1.2889,1.3656,1.3901,1.4227,1.4543,1.4833,1.5613,1.6092,1.59,1.667,1.7222,1.7612,1.7469,1.7484,1.8053,1.9161,1.9989,2.0108,2.0174,2.0054,1.9859,1.9909,1.9894,1.9768,1.9008,1.8362,1.8047,1.703,1.6144,1.5873,1.5871,1.59,1.5928,1.5998,1.6083,1.5998,1.5983,1.5955,1.5885,1.5926,1.5996,-1.5524,-1.5531,-1.5632,-1.5635,-1.5513,-1.4891,-1.4362,-1.3826,0.0,0.0,0.0,-0.9636,-0.9526,-0.9357,-1.0679,-1.1665,-1.2463,-1.3873,-1.4519,-1.4465,-1.4528,-1.4277,-1.379,-1.3252,-1.2702,-1.2164,-1.1605,-1.0742,-0.9719,-0.9321,-0.8276,-0.6791,-0.6708,-0.4751,-0.0896,0.2341,0.3923,0.3899,0.4833,0.5446,0.5658,0.5383,0.5312,0.5417,0.5139,0.4805,0.447,0.4856,0.5022,0.4896,0.4947,0.5155,0.55,0.5436,0.5377,0.5311,0.5034,0.4858,0.4877,0.4664,0.4715,0.5171,0.5713,0.6182,0.6557,0.6877,0.7387,0.8248,0.9046,0.9586,0.976,1.118,1.2025,1.1737,1.2656,1.34,1.3644,1.3931,1.4169,1.4602,1.5151,1.5412,1.5035,1.598,1.6613,1.6324,1.6454,1.6564,1.7002,1.8235,1.9218,1.9319,1.951,1.9464,1.9035,1.9139,1.9199,1.9014,1.8291,1.7729,1.7516,1.6712,1.5979,1.5829,1.5799,1.577,1.5799,1.587,1.5955,1.5827,1.5883,1.594,1.5812,1.577,1.5755,-1.5978,-1.6089,-1.5964,-1.5736,-1.53,-1.5017,-1.4351,-1.3409,-1.2197,-1.1178,-1.0343,-1.0471,-1.0481,-1.0529,-1.1807,-1.2618,-1.3112,-1.414,-1.4812,-1.5116,-1.4865,-1.4552,-1.4196,-1.3614,-1.2925,-1.2188,-1.1578,-1.0938,-1.0143,-0.9004,-0.8005,-0.7134,-0.6176,-0.2814,0.2531,0.3751,0.4414,0.4884,0.5758,0.6137,0.5959,0.6121,0.5978,0.5512,0.5598,0.5326,0.4616,0.5121,0.5364,0.5254,0.5517,0.5701,0.5738,0.5738,0.565,0.5483,0.521,0.5078,0.514,0.5298,0.5428,0.5537,0.572,0.6051,0.6557,0.6675,0.7076,0.7899,0.8317,0.8888,0.9899,1.0693,1.1308,1.1717,1.1962,1.2296,1.2846,1.2987,1.3284,1.3848,1.4138,1.4539,1.4755,1.5597,1.5973,1.5612,1.5966,1.6414,1.6557,1.7277,1.789,1.8151,1.8753,1.9006,1.8822,1.8988,1.9026,1.886,1.8441,1.7939,1.7622,1.6929,1.6293,1.5859,1.561,1.5477,1.5418,1.5492,1.5566,1.5522,1.5711,1.5911,1.5827,1.5726,1.5668,-1.5969,-1.6057,-1.5824,-1.5513,-1.5165,-1.4651,-1.4035,-1.3362,-1.2491,-1.1527,-1.0649,-1.0706,-1.0515,-1.0391,-1.1701,-1.2325,-1.2482,-1.3695,-1.4316,-1.4332,-1.4066,-1.3716,-1.3349,-1.2804,-1.2099,-1.1319,-1.1067,-1.051,-0.9639,-0.8543,-0.7539,-0.6398,-0.3784,0.0113,0.4803,0.5562,0.5895,0.6135,0.6268,0.648,0.6785,0.6542,0.6425,0.6497,0.6286,0.5904,0.5399,0.5627,0.5698,0.5575,0.573,0.5787,0.5787,0.5787,0.5664,0.5405,0.5283,0.5217,0.5269,0.5536,0.5636,0.5476,0.5671,0.6057,0.6598,0.685,0.7288,0.799,0.8343,0.8885,0.9837,1.0338,1.0822,1.1331,1.171,1.2196,1.2772,1.3083,1.3363,1.3782,1.3954,1.4047,1.4258,1.4971,1.5434,1.521,1.5737,1.6007,1.5737,1.6437,1.7308,1.8021,1.8536,1.8602,1.8422,1.8577,1.8592,1.8266,1.7917,1.7641,1.7335,1.6819,1.6298,1.5891,1.5668,1.558,1.5566,1.5492,1.5477,1.558,1.5566,1.5682,1.5726,1.5697,1.5639,-1.5881,-1.5913,-1.5691,-1.5379,-1.5006,-1.4373,-1.3868,-1.3409,-1.2861,-1.1948,-1.0832,-1.0673,-1.0392,-1.0051,-1.1177,-1.1791,-1.194,-1.3102,-1.3579,-1.3381,-1.3105,-1.2797,-1.2341,-1.1819,-1.1162,-1.0428,-1.0312,-0.9873,-0.9039,-0.8049,-0.6908,-0.5403,-0.1754,0.2348,0.6528,0.6966,0.7145,0.7154,0.7098,0.7245,0.7514,0.7094,0.7057,0.7345,0.6896,0.6428,0.6034,0.599,0.5885,0.5785,0.5787,0.5787,0.5787,0.5787,0.5694,0.5495,0.5429,0.54,0.5422,0.5664,0.5738,0.5539,0.5751,0.6086,0.6627,0.6975,0.7389,0.7921,0.8312,0.882,0.9426,0.9982,1.0466,1.0818,1.1388,1.1907,1.2479,1.2846,1.3171,1.3437,1.3488,1.3459,1.3775,1.4347,1.4928,1.5272,1.5522,1.5492,1.5282,1.5825,1.677,1.7757,1.8252,1.8212,1.7948,1.8201,1.8201,1.7747,1.7456,1.7274,1.71,1.6636,1.6167,1.5934,1.583,1.5712,1.5668,1.5536,1.5477,1.558,1.5595,1.561,1.5668,1.5654,1.558,-1.5792,-1.5792,-1.5792,-1.5424,-1.4915,-1.4512,-1.414,-1.3716,-1.3064,-1.2119,-1.1012,-1.0668,-1.0256,-0.996,-1.0668,-1.1305,-1.1774,-1.2325,-1.2628,-1.2811,-1.2546,-1.2109,-1.1585,-1.1162,-1.0525,-0.9734,-0.9478,-0.9168,-0.8626,-0.7432,-0.6228,-0.4831,-0.1514,0.2657,0.6956,0.7393,0.7399,0.7657,0.881,0.8867,0.7861,0.8121,0.8029,0.7503,0.7327,0.6857,0.6181,0.5911,0.5792,0.5712,0.5708,0.5739,0.5787,0.5787,0.5835,0.5906,0.5822,0.5767,0.5767,0.5789,0.5897,0.6179,0.6089,0.6255,0.6673,0.6965,0.7168,0.7381,0.7733,0.8188,0.854,0.9435,1.0098,1.0339,1.0709,1.0952,1.1331,1.1286,1.1514,1.1936,1.2198,1.2252,1.3065,1.3811,1.4614,1.5352,1.5323,1.5301,1.5377,1.5545,1.6034,1.6995,1.7612,1.7774,1.7571,1.7882,1.7935,1.7598,1.7353,1.7202,1.7047,1.6628,1.6104,1.599,1.5846,1.5639,1.5522,1.5359,1.5389,1.5522,1.561,1.577,1.561,1.5522,1.5507,-1.5913,-1.5913,-1.5836,-1.5457,-1.4903,-1.4547,-1.4186,-1.3763,-1.3112,-1.2244,-1.126,-1.0525,-0.9972,-0.9581,-1.028,-1.0745,-1.0948,-1.149,-1.1663,-1.1579,-1.1398,-1.099,-1.0462,-1.0255,-0.9725,-0.9119,-0.899,-0.8537,-0.7653,-0.6168,-0.4635,-0.307,-0.0437,0.2936,0.6761,0.7952,0.8605,0.9029,1.0164,1.0345,0.9624,0.9564,0.919,0.849,0.8338,0.7839,0.6935,0.6394,0.6069,0.5942,0.5899,0.5855,0.5787,0.5899,0.5953,0.5865,0.5842,0.578,0.5732,0.5899,0.6025,0.6127,0.6229,0.6427,0.6798,0.6969,0.7172,0.7395,0.7746,0.8183,0.8785,0.9288,0.9739,1.0256,1.0662,1.0992,1.1292,1.1543,1.1788,1.1934,1.192,1.2076,1.2723,1.3483,1.4275,1.4987,1.5116,1.5278,1.5468,1.5692,1.5952,1.6281,1.6527,1.6896,1.7325,1.7639,1.7639,1.7394,1.7167,1.7076,1.6883,1.6442,1.5983,1.5934,1.5624,1.5461,1.5522,1.5389,1.5389,1.5492,1.5639,1.577,1.561,1.5536,1.5507,-1.6001,-1.5901,-1.578,-1.5412,-1.496,-1.4558,-1.4093,-1.361,-1.3006,-1.2196,-1.1199,-1.0394,-0.9657,-0.9049,-0.9634,-1.004,-1.022,-1.059,-1.0592,-1.0327,-1.0149,-0.9796,-0.93,-0.9204,-0.895,-0.8553,-0.8464,-0.7777,-0.647,-0.512,-0.3466,-0.1644,0.0394,0.3178,0.6537,0.8294,0.9336,0.9981,1.0981,1.1255,1.0816,1.0777,1.0338,0.9397,0.9203,0.8673,0.7709,0.7064,0.6616,0.6344,0.6182,0.6053,0.587,0.5934,0.5938,0.5792,0.5749,0.5761,0.5798,0.598,0.6144,0.6307,0.6527,0.6812,0.7155,0.74,0.7584,0.768,0.8062,0.8545,0.8926,0.9168,0.9607,1.0225,1.0649,1.0992,1.1207,1.1564,1.1689,1.1748,1.1733,1.2108,1.2832,1.3645,1.445,1.4835,1.5017,1.522,1.5367,1.549,1.5579,1.5812,1.5724,1.6008,1.6993,1.7173,1.7089,1.7144,1.698,1.6974,1.6811,1.6387,1.5919,1.5899,1.5402,1.5179,1.5343,1.5329,1.5389,1.558,1.5697,1.5786,1.5771,1.5654,1.561,-1.5901,-1.5792,-1.5614,-1.5322,-1.5062,-1.4558,-1.3941,-1.316,-1.2764,-1.1849,-1.064,-1.0325,-0.9369,-0.8001,-0.8564,-0.918,-0.9746,-0.955,-0.9405,-0.938,-0.8948,-0.8569,-0.8264,-0.8126,-0.8028,-0.7908,-0.7607,-0.6603,-0.4851,-0.4451,-0.3255,-0.1202,0.0571,0.34,0.6774,0.8121,0.9116,1.006,1.1029,1.133,1.1067,1.163,1.1325,1.0185,0.9734,0.9216,0.8423,0.803,0.7541,0.6903,0.6647,0.6379,0.6044,0.5823,0.5758,0.5737,0.5621,0.5683,0.6003,0.6061,0.6328,0.6901,0.7163,0.7521,0.7825,0.8237,0.8391,0.8201,0.861,0.8886,0.8878,0.9199,0.9646,1.0118,1.0428,1.0621,1.0659,1.0899,1.085,1.0999,1.1428,1.2169,1.3401,1.4373,1.4699,1.4801,1.4686,1.4605,1.4971,1.4789,1.496,1.5355,1.5457,1.549,1.5976,1.6312,1.6484,1.6625,1.6795,1.6934,1.6947,1.6793,1.6323,1.5911,1.5624,1.5398,1.5272,1.5255,1.5389,1.5551,1.5683,1.5758,1.5897,1.5742,1.5711,-1.6025,-1.5792,-1.5558,-1.5119,-1.4457,-1.4258,-1.3484,-1.2414,-1.203,-1.1256,-1.0192,-0.9452,-0.8651,-0.7769,-0.7715,-0.7874,-0.8168,-0.8153,-0.8158,-0.8161,-0.8134,-0.7931,-0.7626,-0.7282,-0.7281,-0.7398,-0.6766,-0.5642,-0.4295,-0.3928,-0.2674,-0.0532,0.11,0.3274,0.5812,0.7755,0.9107,1.0157,1.1046,1.1553,1.1627,1.1968,1.1693,1.0917,1.0602,1.0035,0.9271,0.8657,0.8131,0.7682,0.7496,0.7103,0.6428,0.6087,0.5962,0.6131,0.6076,0.6131,0.6228,0.6371,0.6663,0.7153,0.7452,0.7747,0.8154,0.8472,0.8643,0.8602,0.8814,0.9007,0.9239,0.9359,0.9677,1.0273,1.0312,1.039,1.0582,1.0708,1.0812,1.0925,1.16,1.2521,1.3068,1.3747,1.4118,1.4082,1.4186,1.4373,1.4605,1.4743,1.4971,1.5108,1.5006,1.4823,1.5108,1.5534,1.582,1.617,1.6386,1.6595,1.665,1.6456,1.6019,1.5672,1.5528,1.5196,1.4924,1.5043,1.5209,1.5403,1.5522,1.5875,1.5973,1.586,1.5745,-1.5828,-1.5501,-1.541,-1.4733,-1.3804,-1.3752,-1.2996,-1.1774,-1.1233,-1.0525,-0.9644,-0.8748,-0.8018,-0.7514,-0.7191,-0.6871,-0.6777,-0.7188,-0.7395,-0.7437,-0.754,-0.7392,-0.7036,-0.6754,-0.6724,-0.686,-0.6083,-0.4918,-0.3639,-0.2893,-0.1421,0.0665,0.2291,0.4026,0.5879,0.7575,0.8996,1.0118,1.0943,1.1516,1.1847,1.2041,1.1916,1.1594,1.1351,1.0816,0.9876,0.9401,0.8893,0.8455,0.8232,0.7703,0.6789,0.6409,0.63,0.6345,0.6336,0.6354,0.6464,0.661,0.6911,0.7447,0.7754,0.8062,0.848,0.8886,0.9039,0.8999,0.9248,0.9527,0.9549,0.9628,0.9873,1.039,1.0273,1.0283,1.0477,1.0582,1.086,1.1296,1.2069,1.2715,1.3037,1.346,1.3637,1.3467,1.38,1.4082,1.4373,1.4731,1.5096,1.5187,1.4926,1.4743,1.4731,1.4846,1.5107,1.5454,1.5996,1.6194,1.6373,1.612,1.5866,1.5517,1.5125,1.4804,1.4719,1.4833,1.4951,1.5149,1.5635,1.6062,1.6038,1.6009,1.5941,-1.5405,-1.4904,-1.4991,-1.4282,-1.3118,-1.3142,-1.2482,-1.1233,-1.0458,-0.9695,-0.8974,-0.8224,-0.7506,-0.6921,-0.6837,-0.6455,-0.6096,-0.6733,-0.7098,-0.7123,-0.7052,-0.6815,-0.6537,-0.6396,-0.6254,-0.622,-0.5601,-0.4434,-0.2959,-0.1451,0.0219,0.2115,0.3967,0.5481,0.721,0.7777,0.882,1.006,1.0764,1.118,1.1527,1.192,1.2079,1.2056,1.2008,1.1444,1.0231,1.0236,0.9886,0.9094,0.8784,0.8065,0.7191,0.6913,0.6673,0.6486,0.6317,0.6446,0.6731,0.6739,0.7124,0.7751,0.8152,0.8521,0.9016,0.9536,0.9734,0.9487,0.9795,1.0108,0.9785,0.9991,1.0235,1.0322,1.0283,1.0322,1.0322,1.04,1.0825,1.1828,1.2531,1.3082,1.3455,1.36,1.3621,1.361,1.3705,1.3941,1.4408,1.4812,1.513,1.5367,1.5232,1.5006,1.4582,1.4247,1.4433,1.4709,1.5389,1.5856,1.6163,1.6113,1.5961,1.561,1.498,1.4644,1.4547,1.4625,1.4592,1.4822,1.5498,1.6137,1.6161,1.6179,1.6319,-1.5089,-1.4878,-1.4733,-1.3814,-1.256,-1.2473,-1.1534,-0.9976,-0.9755,-0.8974,-0.7877,-0.745,-0.6983,-0.6513,-0.6396,-0.625,-0.6048,-0.6362,-0.6383,-0.6207,-0.6232,-0.6085,-0.5819,-0.5505,-0.5011,-0.4546,-0.4739,-0.3929,-0.2293,-0.0953,0.0577,0.2534,0.4299,0.5675,0.6919,0.7893,0.9036,1.0147,1.0943,1.1516,1.1884,1.2029,1.2174,1.2318,1.221,1.1793,1.1369,1.1206,1.0725,0.9913,0.9545,0.8912,0.8094,0.7688,0.751,0.7415,0.727,0.7097,0.699,0.7305,0.7695,0.8252,0.8683,0.9096,0.9506,0.9823,0.9932,0.9774,1.0088,1.0196,1.0157,1.0264,1.0351,1.0322,1.0322,1.0322,1.0361,1.0626,1.1153,1.1842,1.2603,1.3149,1.3429,1.3573,1.3668,1.361,1.3894,1.4305,1.4582,1.5175,1.5591,1.5691,1.5457,1.5311,1.5028,1.4709,1.4628,1.4766,1.522,1.568,1.5944,1.6201,1.6008,1.562,1.5004,1.4596,1.4485,1.4359,1.4276,1.4695,1.5425,1.5877,1.6187,1.65,1.6803,-1.4706,-1.4236,-1.4207,-1.3303,-1.1886,-1.1809,-1.088,-0.9361,-0.8988,-0.8249,-0.7295,-0.6869,-0.6603,-0.6228,-0.6173,-0.6173,-0.6173,-0.6173,-0.6043,-0.5723,-0.5738,-0.5677,-0.5381,-0.4788,-0.4032,-0.3324,-0.3605,-0.3029,-0.1429,-0.004,0.1422,0.2952,0.4567,0.5937,0.7031,0.8125,0.9195,1.0196,1.0943,1.1479,1.1811,1.2041,1.2186,1.233,1.2186,1.2077,1.1957,1.1799,1.1367,1.0657,1.0273,0.9723,0.8947,0.8639,0.8388,0.809,0.7979,0.7758,0.7565,0.7889,0.8316,0.8716,0.9007,0.9377,0.9704,0.9902,0.9941,1.0019,1.0137,1.0244,1.0283,1.0351,1.0361,1.0322,1.0322,1.0322,1.04,1.0943,1.1432,1.1971,1.2624,1.3099,1.3318,1.342,1.3563,1.3552,1.3978,1.4455,1.4766,1.54,1.5724,1.5913,1.5812,1.5668,1.5534,1.5266,1.4903,1.4949,1.513,1.5501,1.578,1.6151,1.6188,1.5657,1.5039,1.4563,1.4372,1.4062,1.3927,1.4664,1.5277,1.584,1.6338,1.7232,1.7519,-1.4294,-1.3223,-1.3554,-1.273,-1.1208,-1.1187,-1.0415,-0.9197,-0.8249,-0.7563,-0.7079,-0.649,-0.6173,-0.6119,-0.6009,-0.5955,-0.6064,-0.5778,-0.5752,-0.5584,-0.5479,-0.5306,-0.5181,-0.423,-0.3308,-0.262,-0.2477,-0.1714,-0.0315,0.1382,0.2745,0.3581,0.5104,0.6494,0.7531,0.8429,0.9421,1.0341,1.084,1.1292,1.1664,1.1968,1.2186,1.2222,1.2174,1.2138,1.221,1.2066,1.1667,1.1025,1.0805,1.0396,0.9798,0.963,0.9204,0.8521,0.8398,0.8324,0.8357,0.8439,0.8716,0.9096,0.9248,0.9386,0.9783,0.9862,0.9941,1.0019,1.0088,1.0205,1.0283,1.0351,1.0361,1.0361,1.0351,1.0351,1.0391,1.114,1.1681,1.1953,1.2589,1.3218,1.3208,1.3266,1.3236,1.328,1.3773,1.4283,1.4619,1.5239,1.5952,1.6107,1.6076,1.5988,1.5856,1.568,1.5367,1.5277,1.5367,1.5501,1.5736,1.6076,1.6367,1.5782,1.5137,1.4638,1.4286,1.4034,1.3852,1.4136,1.4887,1.5743,1.6624,1.752,1.7984,-1.3902,-1.3189,-1.3205,-1.225,-1.0839,-1.0738,-0.974,-0.8249,-0.7824,-0.7187,-0.6549,-0.6005,-0.5732,-0.5736,-0.5297,-0.5128,-0.5117,-0.4498,-0.4436,-0.4689,-0.4203,-0.408,-0.3961,-0.3309,-0.2605,-0.201,-0.1403,-0.0316,0.1278,0.2399,0.3748,0.5287,0.5615,0.6649,0.797,0.9149,1.0099,1.0829,1.1542,1.192,1.215,1.2377,1.2639,1.2803,1.2544,1.2508,1.2615,1.2294,1.1739,1.0984,1.0909,1.0675,1.02,1.0146,0.9913,0.939,0.9007,0.879,0.8766,0.8943,0.9128,0.9288,0.9607,0.9932,1.001,1.001,1.0049,1.0088,1.0157,1.0273,1.0361,1.0467,1.0495,1.0505,1.039,1.0322,1.0459,1.114,1.1834,1.1923,1.2695,1.3155,1.3178,1.3198,1.3067,1.3016,1.3634,1.4337,1.4462,1.521,1.6028,1.6256,1.6293,1.6262,1.6132,1.6001,1.5824,1.5703,1.5703,1.5736,1.5913,1.6132,1.6281,1.6198,1.5262,1.4612,1.4525,1.436,1.4169,1.4047,1.529,1.6495,1.6968,1.7658,1.819,-1.3455,-1.2783,-1.2463,-1.1665,-1.0559,-0.999,-0.896,-0.7717,-0.7009,-0.6534,-0.5896,-0.5348,-0.5124,-0.5066,-0.4794,-0.457,-0.4453,-0.3892,-0.3892,-0.4017,-0.3319,-0.2893,-0.2728,-0.2368,-0.1864,-0.1082,-0.0324,0.0735,0.2055,0.3132,0.43,0.5297,0.602,0.698,0.8314,0.9348,1.0439,1.1239,1.1898,1.227,1.2413,1.2627,1.278,1.2885,1.2662,1.2579,1.2638,1.233,1.1856,1.1518,1.1399,1.1237,1.085,1.0797,1.0621,1.0215,0.9755,0.9506,0.9444,0.9545,0.9567,0.9646,0.9971,1.0049,1.0079,1.0088,1.0059,1.0127,1.0166,1.0273,1.039,1.0457,1.0505,1.0438,1.04,1.0322,1.0322,1.1211,1.1711,1.2033,1.2634,1.3233,1.3017,1.3202,1.3062,1.2882,1.3517,1.3861,1.4104,1.515,1.5831,1.5874,1.6213,1.6244,1.6225,1.6107,1.6001,1.5925,1.5836,1.5881,1.6013,1.6144,1.6306,1.6198,1.5321,1.4812,1.4813,1.4739,1.455,1.4901,1.6197,1.6968,1.7404,1.7868,1.8323,-1.3035,-1.2166,-1.1625,-1.1007,-1.0246,-0.9051,-0.8171,-0.7337,-0.6253,-0.5664,-0.5395,-0.4736,-0.446,-0.4405,-0.4128,-0.4073,-0.3843,-0.3566,-0.349,-0.3148,-0.2376,-0.1641,-0.1408,-0.1479,-0.0875,0.0042,0.084,0.1749,0.2792,0.3846,0.449,0.5384,0.6395,0.7509,0.8771,0.9609,1.0605,1.1575,1.2079,1.2366,1.2579,1.2838,1.299,1.299,1.2861,1.265,1.2544,1.233,1.2162,1.2102,1.2066,1.1872,1.1557,1.1553,1.1292,1.0954,1.0534,1.0283,1.0254,1.0059,1.0019,0.998,1.0049,1.0088,1.0088,1.0088,1.0127,1.0235,1.0157,1.0264,1.0399,1.0447,1.0572,1.0534,1.0457,1.0361,1.0508,1.1211,1.1834,1.1894,1.2695,1.2936,1.3,1.3145,1.3376,1.2409,1.3032,1.3343,1.3591,1.4192,1.4767,1.5113,1.5556,1.62,1.6207,1.6213,1.6163,1.6057,1.5925,1.5913,1.6057,1.6188,1.6318,1.6106,1.548,1.5243,1.5321,1.5201,1.5005,1.5491,1.6527,1.7138,1.7685,1.82,1.8693,-1.2812,-1.1575,-1.1216,-1.0407,-0.9384,-0.8692,-0.7794,-0.6686,-0.61,-0.5449,-0.4956,-0.4239,-0.3962,-0.3852,-0.3186,-0.2798,-0.2852,-0.2456,-0.2046,-0.1442,-0.0515,0.0049,0.0234,0.0091,0.0349,0.117,0.1792,0.2882,0.4111,0.4609,0.5313,0.6261,0.7375,0.867,0.9463,1.058,1.1446,1.1909,1.227,1.2696,1.2988,1.3242,1.3391,1.3459,1.3378,1.3022,1.265,1.2615,1.2473,1.2174,1.2066,1.2041,1.192,1.17,1.1479,1.133,1.0992,1.0708,1.0497,1.0409,1.0244,1.0107,1.0127,1.0088,1.0118,1.0205,1.0322,1.0467,1.039,1.036,1.053,1.0836,1.096,1.0987,1.0857,1.0774,1.0907,1.1449,1.182,1.2135,1.2782,1.3416,1.3236,1.3296,1.3055,1.2302,1.2362,1.2759,1.3118,1.3466,1.397,1.4485,1.5203,1.5812,1.6089,1.6164,1.6207,1.6144,1.6001,1.5913,1.6044,1.6144,1.6231,1.6077,1.5773,1.5662,1.5653,1.5792,1.5659,1.6231,1.678,1.7363,1.7924,1.8478,1.8784,-1.2433,-1.1216,-1.0813,-1.0005,-0.8915,-0.7953,-0.7101,-0.6303,-0.5332,-0.4732,-0.4236,-0.3574,-0.3186,-0.2961,-0.2462,-0.2184,-0.151,-0.0726,-0.0329,0.0053,0.0767,0.1574,0.2172,0.1999,0.2055,0.2462,0.3245,0.4281,0.5021,0.5405,0.5876,0.6927,0.8182,0.9147,1.0124,1.1229,1.1978,1.2613,1.3032,1.3387,1.3467,1.3702,1.3782,1.3815,1.3749,1.3433,1.2941,1.2803,1.265,1.2413,1.2222,1.2102,1.2077,1.192,1.1774,1.1737,1.1404,1.1153,1.0975,1.0774,1.0582,1.038,1.0351,1.0273,1.0235,1.0283,1.0467,1.0659,1.0687,1.0667,1.0956,1.1153,1.1361,1.1372,1.1271,1.1105,1.104,1.1308,1.1709,1.2047,1.2685,1.302,1.3149,1.3407,1.3116,1.2546,1.2619,1.2952,1.285,1.3173,1.3619,1.4217,1.4902,1.5482,1.5831,1.6059,1.625,1.6188,1.6044,1.6001,1.6001,1.6088,1.6144,1.5936,1.5782,1.58,1.581,1.5995,1.6266,1.6636,1.7063,1.7634,1.8029,1.8327,1.8553,-1.1841,-1.0704,-1.021,-0.9496,-0.8488,-0.7058,-0.6249,-0.576,-0.4453,-0.3738,-0.3292,-0.2798,-0.235,-0.1958,-0.1902,-0.1286,-0.0056,0.1,0.1421,0.1271,0.2494,0.3183,0.3721,0.3887,0.4168,0.4144,0.4611,0.5311,0.5724,0.608,0.685,0.7682,0.8746,0.9883,1.0874,1.1557,1.2365,1.3179,1.3488,1.3822,1.3802,1.4032,1.4019,1.4065,1.3934,1.3769,1.3387,1.3195,1.2978,1.2803,1.2496,1.2294,1.2186,1.2113,1.2066,1.2077,1.1737,1.1612,1.1474,1.1266,1.0992,1.0843,1.0697,1.0572,1.0428,1.0351,1.0544,1.0878,1.1067,1.1244,1.1542,1.1653,1.1678,1.1689,1.1664,1.1474,1.1312,1.1264,1.1644,1.1953,1.2664,1.3109,1.3339,1.3565,1.3184,1.2922,1.3015,1.3018,1.2898,1.3055,1.356,1.4014,1.4735,1.5519,1.5991,1.6157,1.6293,1.6231,1.6088,1.6044,1.6001,1.5957,1.6001,1.5971,1.5893,1.5899,1.6058,1.6363,1.6635,1.6921,1.7394,1.8023,1.8182,1.8147,1.8372,-1.0956,-0.9636,-0.934,-0.8442,-0.7272,-0.6632,-0.5701,-0.4446,-0.3956,-0.3181,-0.2462,-0.2069,-0.1623,-0.1118,-0.067,0.0335,0.1782,0.2764,0.3044,0.3208,0.4403,0.5305,0.4787,0.563,0.6416,0.665,0.6394,0.619,0.6788,0.7443,0.8135,0.9094,1.0282,1.1298,1.17,1.2399,1.2951,1.3462,1.3555,1.3769,1.4163,1.4163,1.4214,1.431,1.4195,1.3967,1.3855,1.3822,1.3689,1.3306,1.3238,1.301,1.272,1.2365,1.2174,1.2066,1.1993,1.1918,1.1864,1.1634,1.1711,1.1713,1.1248,1.0736,1.0611,1.0505,1.0764,1.1217,1.1653,1.1934,1.1839,1.2006,1.221,1.2294,1.222,1.2105,1.226,1.2256,1.2054,1.2223,1.2775,1.3362,1.3602,1.3718,1.3414,1.323,1.3314,1.3124,1.2823,1.317,1.3713,1.4151,1.4588,1.5423,1.6182,1.6318,1.6436,1.6318,1.6219,1.6088,1.6001,1.5881,1.5844,1.5983,1.6071,1.6114,1.6373,1.6701,1.7008,1.7269,1.7828,1.8422,1.8305,1.8201,1.8372,-1.0289,-0.8954,-0.8803,-0.8072,-0.7015,-0.6421,-0.566,-0.4842,-0.4298,-0.3411,-0.235,-0.1454,-0.0838,-0.0335,0.0391,0.1839,0.3602,0.4559,0.4767,0.4968,0.5851,0.6413,0.5886,0.6979,0.7811,0.8278,0.8018,0.7826,0.8286,0.8842,0.9453,1.0041,1.122,1.1919,1.2374,1.3038,1.3624,1.3947,1.4065,1.4214,1.4672,1.4483,1.456,1.4578,1.4483,1.4337,1.4144,1.4052,1.3986,1.3722,1.3522,1.3408,1.3251,1.2988,1.2555,1.221,1.2102,1.2089,1.2084,1.1881,1.1867,1.1871,1.1459,1.118,1.1057,1.1019,1.1132,1.1616,1.2102,1.2437,1.2342,1.2389,1.2508,1.2627,1.252,1.247,1.2577,1.2748,1.2759,1.2722,1.3357,1.3815,1.3871,1.3827,1.362,1.3602,1.3657,1.3402,1.305,1.3539,1.4234,1.4672,1.5115,1.5599,1.6287,1.6355,1.6479,1.6392,1.6262,1.6132,1.6001,1.5925,1.6057,1.6207,1.6275,1.6374,1.662,1.6964,1.7269,1.7557,1.7882,1.8187,1.8279,1.8319,1.8464,-0.9687,-0.8352,-0.8351,-0.7759,-0.681,-0.6223,-0.5567,-0.5018,-0.419,-0.3019,-0.1734,-0.0503,0.0279,0.0779,0.1879,0.3463,0.5645,0.6216,0.624,0.6213,0.6866,0.7268,0.7538,0.8034,0.8842,0.9703,1.0014,1.0031,0.9803,1.0244,1.0634,1.1241,1.1969,1.2513,1.2997,1.364,1.4315,1.4651,1.4871,1.4949,1.4935,1.4887,1.4871,1.4856,1.4794,1.456,1.4415,1.4337,1.4259,1.413,1.3967,1.3756,1.3855,1.3689,1.317,1.2484,1.233,1.2282,1.2246,1.2294,1.2186,1.2075,1.1932,1.1689,1.1542,1.1542,1.1737,1.2113,1.2449,1.2674,1.2627,1.2674,1.2662,1.2674,1.2686,1.2747,1.2953,1.3256,1.3732,1.3887,1.4216,1.4346,1.4384,1.4626,1.4522,1.4427,1.4482,1.4533,1.4265,1.4562,1.5084,1.5423,1.5752,1.6065,1.6337,1.6367,1.6436,1.6392,1.6219,1.6044,1.5957,1.5913,1.6132,1.6349,1.6637,1.6765,1.6989,1.7186,1.7476,1.7706,1.7854,1.7962,1.8042,1.8214,1.8386,-0.8941,-0.7904,-0.7927,-0.7122,-0.595,-0.5859,-0.4864,-0.3302,-0.2516,-0.1118,0.028,0.1171,0.1893,0.2593,0.3862,0.5345,0.6547,0.7255,0.7382,0.738,0.8187,0.8697,0.897,0.9573,1.0195,1.0956,1.153,1.1346,1.1148,1.1616,1.2083,1.2543,1.3145,1.387,1.3833,1.4147,1.4433,1.4714,1.4574,1.4574,1.4763,1.4718,1.4749,1.4794,1.4686,1.4578,1.4669,1.4637,1.4624,1.4637,1.4637,1.4433,1.4163,1.4052,1.3676,1.3285,1.3045,1.2916,1.2707,1.2661,1.2697,1.2484,1.233,1.2054,1.1982,1.1957,1.2077,1.2077,1.2484,1.2686,1.2745,1.277,1.2733,1.2782,1.2854,1.33,1.3655,1.3796,1.427,1.4754,1.5006,1.4975,1.5015,1.5269,1.5492,1.5362,1.5308,1.5294,1.5323,1.5404,1.555,1.5813,1.5911,1.617,1.6275,1.6349,1.6306,1.6306,1.6175,1.5957,1.5957,1.5969,1.6175,1.6436,1.6765,1.7214,1.7557,1.772,1.7813,1.792,1.8108,1.8002,1.7882,1.8095,1.8347,-0.7492,-0.7144,-0.6884,-0.6488,-0.5964,-0.5813,-0.4291,-0.2171,-0.128,-0.0334,0.1168,0.3335,0.4402,0.4843,0.6083,0.6895,0.7521,0.8151,0.8461,0.859,0.9298,0.9747,0.9953,1.0626,1.1457,1.1947,1.2437,1.2771,1.2626,1.2763,1.311,1.3425,1.383,1.4096,1.4441,1.453,1.4766,1.4963,1.498,1.5041,1.5134,1.5058,1.4963,1.507,1.4902,1.4885,1.4913,1.4871,1.4825,1.4808,1.4808,1.5022,1.5202,1.5268,1.5091,1.4848,1.4734,1.4125,1.306,1.2931,1.2896,1.2885,1.2733,1.265,1.2496,1.2484,1.2461,1.2449,1.2878,1.2999,1.2974,1.3276,1.3107,1.3059,1.3241,1.3556,1.4101,1.4502,1.4827,1.5338,1.5763,1.5716,1.5656,1.574,1.5695,1.5238,1.5295,1.5459,1.549,1.5575,1.5776,1.599,1.6039,1.6132,1.6188,1.6231,1.6132,1.6132,1.6001,1.5869,1.5925,1.6013,1.6306,1.6735,1.7157,1.7611,1.8042,1.8187,1.8159,1.8266,1.8347,1.8228,1.8095,1.8228,1.8439,-0.6023,-0.6268,-0.6022,-0.5967,-0.586,-0.5058,-0.3109,-0.0609,0.0498,0.1274,0.2485,0.4837,0.6245,0.6878,0.7573,0.7943,0.8306,0.9066,0.9502,0.9849,1.0302,1.0677,1.1041,1.174,1.2283,1.2834,1.3302,1.3664,1.4049,1.4215,1.4201,1.4225,1.4572,1.474,1.4848,1.4964,1.5149,1.5222,1.5683,1.5861,1.5965,1.6054,1.6052,1.5977,1.5857,1.5688,1.5561,1.5466,1.5422,1.5202,1.5198,1.5524,1.6001,1.6214,1.6106,1.5844,1.5698,1.504,1.3946,1.3441,1.3195,1.3104,1.3069,1.3035,1.3094,1.3039,1.3039,1.3037,1.3765,1.3617,1.3336,1.3865,1.3902,1.3877,1.3939,1.4086,1.4383,1.5014,1.5604,1.609,1.6439,1.6434,1.6355,1.6312,1.5948,1.5274,1.5243,1.5591,1.5726,1.5794,1.5867,1.6088,1.6044,1.61,1.6144,1.6144,1.6044,1.5957,1.5869,1.5913,1.6057,1.6262,1.6595,1.7031,1.7543,1.7868,1.8214,1.8347,1.8478,1.8439,1.8439,1.8478,1.8439,1.8478,1.8478,-0.4812,-0.525,-0.581,-0.5666,-0.5092,-0.2975,-0.0832,0.1324,0.3219,0.4549,0.5383,0.602,0.7285,0.8331,0.8417,0.8837,0.9768,1.0151,1.0479,1.0902,1.1404,1.1788,1.2187,1.2567,1.3101,1.3542,1.4044,1.4571,1.5016,1.533,1.533,1.536,1.5507,1.5853,1.5846,1.5649,1.564,1.5817,1.6367,1.6818,1.703,1.7365,1.7777,1.7792,1.7853,1.7758,1.7214,1.6827,1.6437,1.6074,1.6105,1.6332,1.6848,1.7122,1.7042,1.6632,1.634,1.5663,1.479,1.4117,1.3789,1.3602,1.3399,1.3344,1.3404,1.4154,1.4176,1.3741,1.44,1.4536,1.4259,1.4241,1.4663,1.4713,1.4841,1.5235,1.549,1.5852,1.6434,1.692,1.698,1.6824,1.6782,1.6655,1.6655,1.6088,1.5936,1.6243,1.6065,1.6089,1.6039,1.6088,1.6044,1.6044,1.6144,1.6088,1.5957,1.5913,1.5824,1.6088,1.6306,1.6595,1.6892,1.7352,1.7774,1.8095,1.8347,1.8439,1.8478,1.8478,1.8478,1.8478,1.8478,1.8478,1.8478,-0.2907,-0.2564,-0.2067,-0.2141,-0.256,-0.0847,0.1182,0.3514,0.5612,0.7231,0.8285,0.8167,0.8736,0.9692,1.0029,1.0054,1.0676,1.1141,1.142,1.1777,1.2211,1.2614,1.2998,1.3462,1.4019,1.4442,1.4895,1.5375,1.5907,1.621,1.6682,1.6756,1.6552,1.6222,1.6176,1.633,1.634,1.6734,1.7084,1.739,1.8064,1.8083,1.83,1.8254,1.8254,1.8161,1.788,1.7761,1.7467,1.7279,1.7247,1.7569,1.7906,1.8185,1.796,1.7419,1.7109,1.6404,1.5428,1.4766,1.431,1.4065,1.3735,1.3573,1.3879,1.431,1.4211,1.4276,1.4941,1.5303,1.4721,1.5114,1.5634,1.5527,1.576,1.6232,1.6546,1.6824,1.6902,1.7231,1.7076,1.6866,1.6909,1.6951,1.7005,1.6938,1.6909,1.6795,1.6552,1.6349,1.6262,1.6219,1.6163,1.6132,1.6175,1.6044,1.5913,1.5913,1.5925,1.6219,1.6552,1.6863,1.7199,1.7639,1.8002,1.8268,1.8439,1.8478,1.8478,1.8478,1.8478,1.8478,1.8478,1.8478,1.8548,-0.053,0.0178,0.123,0.1227,0.0687,0.1831,0.3519,0.5482,0.696,0.8648,1.0021,0.9905,1.0392,1.1155,1.1376,1.1431,1.1653,1.2105,1.233,1.2683,1.3042,1.3403,1.3769,1.4224,1.4817,1.5316,1.5665,1.6102,1.6474,1.6849,1.738,1.7653,1.7604,1.742,1.7345,1.72,1.7342,1.7518,1.8257,1.835,1.9113,1.9353,1.9357,1.9373,1.9389,1.9233,1.9092,1.8889,1.8563,1.8389,1.8388,1.8731,1.9088,1.9211,1.8918,1.8423,1.7807,1.7045,1.6025,1.5413,1.5037,1.4911,1.4963,1.4715,1.4668,1.5086,1.5654,1.4935,1.5768,1.6194,1.5622,1.623,1.6582,1.6534,1.6757,1.7156,1.7343,1.7556,1.7464,1.7475,1.7352,1.7352,1.7352,1.7434,1.7297,1.7227,1.6921,1.6892,1.685,1.665,1.6466,1.6423,1.6337,1.6293,1.6262,1.6219,1.6262,1.6436,1.6466,1.6539,1.6837,1.7144,1.7529,1.7975,1.8268,1.8439,1.8478,1.8478,1.8478,1.8478,1.8478,1.8478,1.8478,1.8506,1.8689,0.2286,0.259,0.3237,0.3615,0.3932,0.5119,0.6239,0.7086,0.7561,0.8844,1.0717,1.1028,1.1815,1.2597,1.2758,1.2756,1.2938,1.3444,1.3618,1.3644,1.4068,1.454,1.4821,1.5227,1.5606,1.5973,1.6385,1.6732,1.703,1.7746,1.8275,1.8785,1.911,1.9104,1.9285,1.9202,1.8611,1.8035,1.9666,2.0,2.027,2.0798,2.0947,2.0919,2.0841,2.0621,2.0384,2.0066,1.9782,1.9484,1.9388,1.9625,1.9815,1.9671,1.9248,1.8683,1.776,1.7024,1.6416,1.6323,1.6247,1.6049,1.608,1.6213,1.6434,1.7007,1.7286,1.6217,1.7348,1.777,1.7624,1.7395,1.7432,1.7647,1.7877,1.8014,1.8182,1.8154,1.804,1.7962,1.8029,1.8083,1.8003,1.7909,1.7733,1.7488,1.706,1.6934,1.7073,1.6947,1.6723,1.6552,1.6509,1.6595,1.6552,1.6522,1.6607,1.682,1.6934,1.6964,1.7173,1.7503,1.7882,1.8307,1.8439,1.8478,1.8478,1.8478,1.8478,1.8478,1.8478,1.8478,1.8478,1.8604,1.8843,0.4077,0.5201,0.609,0.6791,0.7217,0.7176,0.7578,0.8379,0.9655,1.1165,1.2535,1.3173,1.3852,1.4445,1.4607,1.4632,1.4962,1.4685,1.4809,1.4838,1.5227,1.5504,1.5801,1.6076,1.6465,1.6929,1.7311,1.7826,1.8538,1.8896,1.963,2.0255,2.0492,2.0582,1.988,1.9611,1.9485,2.001,2.074,2.1044,2.1387,2.1732,2.1869,2.1735,2.1735,2.1615,2.143,2.1103,2.087,2.0621,2.0543,2.0591,2.0638,2.0432,1.9924,1.91,1.8171,1.7681,1.7496,1.7501,1.7857,1.7459,1.7121,1.7171,1.6982,1.7641,1.7607,1.7522,1.8135,1.835,1.8164,1.8143,1.8281,1.8708,1.8936,1.8936,1.8983,1.8793,1.863,1.8553,1.8567,1.8307,1.8202,1.8242,1.8109,1.7989,1.7652,1.7393,1.7434,1.7199,1.6989,1.6723,1.6637,1.6765,1.685,1.6892,1.6989,1.7157,1.7227,1.7269,1.7503,1.7828,1.8042,1.8347,1.8439,1.8478,1.8478,1.8478,1.8478,1.8478,1.8478,1.8478,1.8478,1.8759,1.9179,0.6809,0.7528,0.8803,0.9601,0.9979,0.9297,0.9336,1.0211,1.1754,1.3056,1.3928,1.4822,1.5652,1.6155,1.6555,1.6627,1.6955,1.6802,1.6298,1.6296,1.6447,1.6633,1.6802,1.6922,1.7221,1.7715,1.8155,1.862,1.9178,1.9728,2.0377,2.108,2.1684,2.0985,2.0441,2.0467,2.0688,2.1028,2.1225,2.1827,2.204,2.2169,2.2084,2.1998,2.1969,2.1969,2.194,2.1853,2.1751,2.1631,2.1554,2.1462,2.1385,2.1045,2.0529,1.967,1.8786,1.8405,1.8346,1.8577,1.8768,1.8694,1.8189,1.7969,1.8022,1.8614,1.8529,1.8493,1.8648,1.8793,1.8912,1.8912,1.8977,1.9428,1.9406,1.9406,1.9325,1.9139,1.9064,1.8988,1.886,1.8606,1.8386,1.8425,1.8425,1.8361,1.8282,1.8016,1.772,1.7475,1.7282,1.7102,1.6976,1.7144,1.7227,1.724,1.7365,1.7543,1.7529,1.7557,1.7801,1.8135,1.8228,1.8307,1.8307,1.8361,1.8478,1.8478,1.8478,1.8478,1.8478,1.8478,1.8478,1.8815,1.9235,1.0476,0.9776,1.1205,1.2079,1.2231,1.1651,1.185,1.2737,1.3513,1.407,1.4505,1.6321,1.7212,1.7584,1.8379,1.8645,1.846,1.862,1.8163,1.7786,1.773,1.7757,1.7685,1.7693,1.789,1.8331,1.8839,1.9384,1.9599,2.0889,2.1517,2.1378,2.1575,2.1088,2.0969,2.1274,2.1458,2.1455,2.1917,2.2366,2.2483,2.2381,2.2298,2.2215,2.2141,2.2141,2.2113,2.2056,2.1998,2.1969,2.1953,2.1969,2.1769,2.139,2.0983,2.032,1.9354,1.9168,1.9217,1.9467,1.9791,1.9911,1.9924,1.9759,1.9489,1.9459,1.9368,1.9322,1.9425,1.9602,1.9748,1.9564,1.9442,1.956,1.9528,1.9522,1.9508,1.9435,1.9362,1.9288,1.9236,1.9011,1.876,1.8721,1.8659,1.8581,1.8464,1.8228,1.7975,1.7733,1.757,1.7666,1.757,1.757,1.7611,1.7529,1.7706,1.7828,1.7814,1.7895,1.8149,1.8268,1.8268,1.8228,1.8228,1.8228,1.8361,1.8439,1.8464,1.8478,1.8439,1.8478,1.8478,1.8703,1.9109,1.225,1.2879,1.3762,1.4378,1.4788,1.4994,1.5154,1.527,1.5415,1.5839,1.6763,1.7811,1.8537,1.9573,1.9761,1.9992,2.0053,1.991,1.9353,1.9024,1.8721,1.8579,1.8433,1.8316,1.851,1.8964,1.9576,2.0329,2.1085,2.2293,2.2505,2.2234,2.1766,2.1228,2.1072,2.1653,2.1715,2.1965,2.2516,2.2795,2.2807,2.2703,2.2571,2.249,2.2463,2.2463,2.2409,2.2298,2.2287,2.2276,2.2101,2.2027,2.1948,2.1764,2.1478,2.0716,2.0172,1.9987,2.0122,2.0462,2.0751,2.0797,2.0697,2.0345,2.007,1.9951,2.0028,1.9951,1.9921,2.0004,2.0065,1.997,1.9893,1.9884,1.9879,1.9859,1.9833,1.9747,1.9711,1.9762,1.9675,1.942,1.9161,1.8912,1.8851,1.8721,1.862,1.8386,1.8189,1.7935,1.7788,1.7828,1.7788,1.7693,1.7788,1.7747,1.7909,1.8083,1.8069,1.8055,1.8228,1.8321,1.8228,1.8189,1.8149,1.8189,1.8242,1.8321,1.84,1.84,1.8375,1.8453,1.8534,1.8731,1.9235,1.3664,1.4477,1.5583,1.6275,1.674,1.7109,1.7182,1.7052,1.6652,1.6902,1.7619,1.8335,1.9165,1.9741,2.0003,2.0338,2.0679,2.028,1.9798,1.944,1.9434,1.9079,1.8852,1.877,1.8878,1.9413,2.0207,2.1062,2.1899,2.2532,2.2847,2.2072,2.185,2.0914,2.0535,2.111,2.1902,2.2228,2.2669,2.3118,2.3175,2.306,2.2985,2.2868,2.2842,2.2816,2.2685,2.2552,2.2542,2.2515,2.2326,2.2298,2.2271,2.2164,2.2,2.1323,2.1106,2.0872,2.0882,2.1032,2.1227,2.1245,2.1039,2.0697,2.0429,2.0277,2.0224,2.0124,2.0239,2.027,2.027,2.027,2.027,2.027,2.027,2.027,2.0185,2.01,2.01,2.0185,2.008,1.9854,1.9566,1.9288,1.9026,1.8836,1.8721,1.8581,1.8425,1.8228,1.7989,1.7868,1.7788,1.7652,1.7788,1.7868,1.7855,1.7989,1.8109,1.8149,1.8321,1.8242,1.8083,1.8069,1.8149,1.8189,1.8282,1.8282,1.8321,1.8349,1.8502,1.8751,1.8789,1.8717,1.9349,1.4899,1.5058,1.6759,1.7669,1.8097,1.8094,1.8173,1.8328,1.7482,1.7314,1.7738,1.822,1.8876,1.961,1.9984,2.0254,2.0525,2.0401,2.0124,1.9661,1.9685,1.9424,1.9094,1.9053,1.9119,1.9731,2.0657,2.1733,2.2009,2.2537,2.2592,2.1625,2.0862,2.0208,2.0077,2.1007,2.1806,2.2239,2.2947,2.3571,2.3468,2.3405,2.3312,2.3126,2.3028,2.2977,2.279,2.2685,2.2712,2.2712,2.2685,2.2659,2.2579,2.248,2.2265,2.2147,2.1876,2.1716,2.1553,2.1579,2.1521,2.1401,2.1103,2.1007,2.0909,2.046,2.0289,2.0254,2.027,2.0304,2.0304,2.0304,2.0304,2.0304,2.0304,2.0304,2.027,2.0185,2.022,2.027,2.0235,2.0045,1.9889,1.9603,1.9384,1.9087,1.8798,1.8736,1.8697,1.8542,1.8411,1.8175,1.8175,1.8121,1.8002,1.8002,1.776,1.7801,1.8016,1.8069,1.8123,1.8043,1.7922,1.8043,1.8149,1.8268,1.8307,1.8361,1.8388,1.8405,1.8681,1.91,1.9196,1.9137,1.9642,1.6457,1.7099,1.8016,1.8479,1.859,1.8475,1.8513,1.8663,1.8321,1.8387,1.8869,1.9041,1.939,1.9889,1.9969,2.02,2.0481,2.0315,2.0329,2.0052,1.9934,1.9686,1.9299,1.9271,1.935,1.9908,2.0968,2.2385,2.3107,2.3125,2.259,2.1749,2.0981,2.0429,2.0244,2.1294,2.1954,2.2447,2.3303,2.3795,2.3671,2.3518,2.3382,2.3206,2.3102,2.3003,2.2825,2.2694,2.2712,2.2712,2.2712,2.2712,2.2685,2.2659,2.2605,2.2535,2.2426,2.2287,2.2186,2.2073,2.2015,2.1974,2.1781,2.1631,2.1308,2.0679,2.0339,2.0339,2.0339,2.0339,2.0373,2.0373,2.0373,2.0373,2.0354,2.0354,2.0354,2.032,2.032,2.0304,2.0304,2.022,2.0115,1.9909,1.9732,1.9406,1.9049,1.8912,1.9026,1.9026,1.9049,1.8898,1.8836,1.8745,1.85,1.8212,1.8014,1.7908,1.8082,1.8055,1.8003,1.8083,1.8149,1.8123,1.8202,1.8347,1.8464,1.8453,1.8495,1.8649,1.9234,1.9852,2.0063,2.0049,2.047,1.7014,1.7541,1.8544,1.8929,1.8876,1.8806,1.8859,1.8963,1.8789,1.8949,1.9225,1.9117,1.9262,1.9675,1.9569,1.9759,2.0045,1.9994,1.9791,1.974,1.9864,1.9878,1.9666,1.9574,1.9882,2.0348,2.1429,2.2712,2.3968,2.3524,2.2728,2.1976,2.1364,2.1087,2.1013,2.167,2.2482,2.2996,2.3842,2.4041,2.3919,2.3816,2.3667,2.3486,2.3348,2.323,2.2993,2.2859,2.279,2.285,2.291,2.2975,2.2975,2.2925,2.291,2.2842,2.2773,2.2649,2.2596,2.2525,2.2415,2.2304,2.2089,2.1811,2.1661,2.1087,2.0861,2.0861,2.0861,2.0861,2.0861,2.0877,2.0877,2.0877,2.0824,2.0821,2.0603,2.0416,2.035,2.0304,2.0304,2.027,2.015,1.9945,1.9767,1.9681,1.9295,1.9273,1.9347,1.9398,1.9493,1.9589,1.9487,1.9205,1.8898,1.8602,1.8394,1.8291,1.8212,1.8319,1.8411,1.8372,1.8372,1.8456,1.8495,1.8567,1.862,1.8938,1.9109,1.9293,2.0,2.0741,2.0841,2.0981,2.1451,1.7041,1.7417,1.8775,1.9292,1.9159,1.9154,1.9268,1.9335,1.9157,1.9125,1.9253,1.8878,1.8699,1.8681,1.8662,1.8825,1.9057,1.9399,1.9303,1.9295,1.9344,1.9635,1.9896,1.9993,2.0569,2.1269,2.221,2.3241,2.4371,2.3646,2.2887,2.2256,2.1971,2.173,2.1745,2.2337,2.3305,2.3575,2.4041,2.4265,2.4247,2.419,2.3978,2.3834,2.371,2.3602,2.3318,2.3146,2.2985,2.3017,2.3146,2.32,2.3183,2.3129,2.3084,2.3038,2.2834,2.2703,2.2667,2.2623,2.2542,2.2405,2.2118,2.1928,2.1811,2.1675,2.1477,2.1385,2.1385,2.1291,2.1276,2.1276,2.1276,2.1293,2.1247,2.1133,2.0836,2.055,2.0485,2.0354,2.0304,2.0304,2.0185,1.9995,1.9909,1.9803,1.9732,1.9732,1.9732,1.9696,1.9747,1.9933,2.0032,1.9723,1.9369,1.9121,1.8946,1.8741,1.8717,1.8731,1.8784,1.8721,1.8754,1.8885,1.8935,1.92,1.9522,1.9918,1.9995,2.0081,2.0746,2.1496,2.1671,2.1874,2.2423,1.7242,1.8451,1.9406,1.9775,1.9778,1.9645,1.9681,1.979,1.9585,1.9536,1.9504,1.9368,1.9198,1.9119,1.9031,1.9082,1.9135,1.9241,1.9303,1.9363,1.9402,1.9643,2.0164,2.0918,2.1732,2.245,2.307,2.3712,2.4412,2.3768,2.3163,2.2936,2.2397,2.2482,2.3059,2.3562,2.3836,2.4123,2.4217,2.4408,2.4248,2.4154,2.4019,2.3878,2.375,2.3602,2.3473,2.3495,2.3427,2.3387,2.3346,2.3392,2.3387,2.3312,2.3206,2.3109,2.2884,2.2764,2.2729,2.2703,2.2649,2.2603,2.2377,2.2304,2.2248,2.2248,2.2089,2.1974,2.1869,2.1493,2.1432,2.1415,2.1432,2.1433,2.1421,2.1231,2.0989,2.0838,2.072,2.0522,2.0304,2.0304,2.027,2.0185,2.015,2.003,1.9909,1.9909,2.003,1.9995,1.9975,2.0162,2.0411,2.0421,2.0233,1.9886,1.9664,1.939,1.9234,1.9424,1.94,1.9093,1.9104,1.9407,1.9837,2.0176,2.0548,2.0749,2.0931,2.1093,2.1642,2.2172,2.2364,2.2642,2.3054]},{"header":{"parameterUnit":"m.s-1","parameterCategory":1,"la1":31.0,"la2":29.5877,"lo1":-88.7671,"lo2":-86.6584,"dy":0.0162,"dx":0.0185,"nx":115,"ny":88,"refTime":"2023-10-13T12:00:00:Z","depth":0,"parameterNumber":3,"parameterNumberName":"V-component_of_WINDS"},"data":[0.0,0.0,0.0,0.0,0.0,0.0,0.0,0.0,0.0,0.0,0.0,0.0,0.0,0.0,0.0,0.0,0.0,0.0,0.0,0.0,0.0,0.0,0.0,0.0,0.0,0.0,0.0,0.0,0.0,0.0,0.0,0.0,0.0,0.0,0.0,0.0,0.0,0.0,0.0,0.0,0.0,0.0,0.0,0.0,0.0,0.0,0.0,0.0,0.0,0.0,0.0,0.0,0.0,0.0,0.0,0.0,0.0,0.0,0.0,0.0,0.0,0.0,0.0,0.0,0.0,0.0,0.0,0.0,0.0,0.0,0.0,0.0,0.0,0.0,0.0,0.0,0.0,0.0,0.0,0.0,0.0,0.0,0.0,0.0,0.0,0.0,0.0,0.0,0.0,0.0,0.0,0.0,0.0,0.0,0.0,0.0,0.0,0.0,0.0,0.0,0.0,0.0,0.0,0.0,0.0,0.0,0.0,0.0,0.0,0.0,0.0,0.0,0.0,0.0,0.0,0.0,0.0,0.0,0.0,0.0,0.0,0.0,0.0,0.0,0.0,0.0,0.0,0.0,0.0,0.0,0.0,0.0,0.0,0.0,0.0,0.0,0.0,0.0,0.0,0.0,0.0,0.0,0.0,0.0,0.0,0.0,0.0,0.0,0.0,0.0,0.0,0.0,0.0,0.0,0.0,0.0,0.0,0.0,0.0,0.0,0.0,0.0,0.0,0.0,0.0,0.0,0.0,0.0,0.0,0.0,0.0,0.0,0.0,0.0,0.0,0.0,0.0,0.0,0.0,0.0,0.0,0.0,0.0,0.0,0.0,0.0,0.0,0.0,0.0,0.0,0.0,0.0,0.0,0.0,0.0,0.0,0.0,0.0,0.0,0.0,0.0,0.0,0.0,0.0,0.0,0.0,0.0,0.0,0.0,0.0,0.0,0.0,0.0,0.0,0.0,0.0,0.0,0.0,0.0,0.0,0.0,0.0,0.0,0.0,0.0,0.0,0.0,0.0,0.0,0.0,0.0,0.0,0.0,0.0,0.0,0.0,0.0,0.0,0.0,0.0,0.0,0.0,0.0,0.0,0.0,0.0,0.0,0.0,0.0,0.0,0.0,0.0,0.0,0.0,0.0,0.0,0.0,0.0,0.0,0.0,0.0,0.0,0.0,0.0,0.0,0.0,0.0,0.0,0.0,0.0,0.0,0.0,0.0,0.0,0.0,0.0,0.0,0.0,0.0,0.0,0.0,0.0,0.0,0.0,0.0,0.0,0.0,0.0,0.0,0.0,0.0,0.0,0.0,0.0,0.0,0.0,0.0,0.0,0.0,0.0,0.0,0.0,0.0,0.0,0.0,0.0,0.0,0.0,0.0,0.0,0.0,0.0,0.0,0.0,0.0,0.0,0.0,0.0,0.0,0.0,0.0,0.0,0.0,0.0,0.0,0.0,0.0,0.0,0.0,0.0,0.0,0.0,0.0,0.0,0.0,0.0,0.0,0.0,0.0,0.0,0.0,0.0,0.0,0.0,0.0,0.0,0.0,0.0,0.0,0.0,0.0,0.0,0.0,0.0,0.0,0.0,0.0,0.0,0.0,0.0,0.0,0.0,0.0,0.0,0.0,0.0,0.0,0.0,0.0,0.0,0.0,0.0,0.0,0.0,0.0,0.0,0.0,0.0,0.0,0.0,0.0,0.0,0.0,0.0,0.0,0.0,0.0,0.0,0.0,0.0,0.0,0.0,0.0,0.0,0.0,0.0,0.0,0.0,0.0,0.0,0.0,0.0,0.0,0.0,0.0,0.0,0.0,0.0,0.0,0.0,0.0,0.0,0.0,0.0,0.0,0.0,0.0,0.0,0.0,0.0,0.0,0.0,0.0,0.0,0.0,0.0,0.0,0.0,0.0,0.0,0.0,0.0,0.0,0.0,0.0,0.0,0.0,0.0,0.0,0.0,0.0,0.0,0.0,0.0,0.0,0.0,0.0,0.0,0.0,0.0,0.0,0.0,0.0,0.0,0.0,0.0,0.0,0.0,0.0,0.0,0.0,0.0,0.0,0.0,0.0,0.0,0.0,0.0,0.0,0.0,0.0,0.0,0.0,0.0,0.0,0.0,0.0,0.0,0.0,0.0,0.0,0.0,0.0,0.0,0.0,0.0,0.0,0.0,0.0,0.0,0.0,0.0,0.0,0.0,0.0,0.0,0.0,0.0,0.0,0.0,0.0,0.0,0.0,0.0,0.0,0.0,0.0,0.0,0.0,0.0,0.0,0.0,0.0,0.0,0.0,0.0,0.0,0.0,0.0,0.0,0.0,0.0,0.0,0.0,0.0,0.0,0.0,0.0,0.0,0.0,0.0,0.0,0.0,0.0,0.0,0.0,0.0,0.0,0.0,0.0,0.0,0.0,0.0,0.0,0.0,0.0,0.0,0.0,0.0,0.0,0.0,0.0,0.0,0.0,0.0,0.0,0.0,0.0,0.0,0.0,0.0,0.0,0.0,0.0,0.0,0.0,0.0,0.0,0.0,0.0,0.0,0.0,0.0,0.0,0.0,0.0,0.0,0.0,0.0,0.0,0.0,0.0,0.0,0.0,0.0,0.0,0.0,0.0,0.0,0.0,0.0,0.0,0.0,0.0,0.0,0.0,0.0,0.0,0.0,0.0,0.0,0.0,0.0,0.0,0.0,0.0,0.0,0.0,0.0,0.0,0.0,0.0,0.0,0.0,0.0,0.0,0.0,0.0,0.0,0.0,0.0,0.0,0.0,0.0,0.0,0.0,0.0,0.0,0.0,0.0,0.0,0.0,0.0,0.0,0.0,0.0,0.0,0.0,0.0,0.0,0.0,0.0,0.0,0.0,0.0,0.0,0.0,0.0,0.0,0.0,0.0,0.0,0.0,0.0,0.0,0.0,0.0,0.0,0.0,0.0,0.0,0.0,0.0,0.0,0.0,0.0,0.0,0.0,0.0,0.0,0.0,0.0,0.0,0.0,0.0,0.0,0.0,0.0,0.0,0.0,0.0,0.0,0.0,0.0,0.0,0.0,0.0,0.0,0.0,0.0,0.0,0.0,0.0,0.0,0.0,0.0,0.0,0.0,0.0,0.0,0.0,0.0,0.0,0.0,0.0,0.0,0.0,0.0,0.0,0.0,0.0,0.0,0.0,0.0,0.0,0.0,0.0,0.0,0.0,0.0,0.0,0.0,0.0,0.0,0.0,0.0,0.0,0.0,0.0,0.0,0.0,0.0,0.0,0.0,0.0,0.0,0.0,0.0,0.0,0.0,0.0,0.0,0.0,0.0,0.0,0.0,0.0,0.0,0.0,0.0,0.0,0.0,0.0,0.0,0.0,0.0,0.0,0.0,0.0,0.0,0.0,0.0,0.0,0.0,0.0,0.0,0.0,0.0,0.0,0.0,0.0,0.0,0.0,0.0,0.0,0.0,0.0,0.0,0.0,0.0,0.0,0.0,0.0,0.0,0.0,0.0,0.0,0.0,0.0,0.0,0.0,0.0,0.0,0.0,0.0,0.0,0.0,0.0,0.0,0.0,0.0,0.0,0.0,0.0,0.0,0.0,0.0,0.0,0.0,0.0,0.0,0.0,0.0,0.0,0.0,0.0,0.0,0.0,0.0,0.0,0.0,0.0,0.0,0.0,0.0,0.0,0.0,0.0,0.0,0.0,0.0,0.0,0.0,0.0,0.0,0.0,0.0,0.0,0.0,0.0,0.0,0.0,0.0,0.0,0.0,0.0,0.0,0.0,0.0,0.0,0.0,0.0,0.0,0.0,0.0,0.0,0.0,0.0,0.0,0.0,0.0,0.0,0.0,0.0,0.0,0.0,0.0,0.0,0.0,0.0,0.0,0.0,0.0,0.0,0.0,0.0,0.0,0.0,0.0,0.0,0.0,0.0,0.0,0.0,0.0,0.0,0.0,0.0,0.0,0.0,0.0,0.0,0.0,0.0,0.0,0.0,0.0,0.0,0.0,0.0,0.0,0.0,0.0,0.0,0.0,0.0,0.0,0.0,0.0,0.0,0.0,0.0,0.0,0.0,0.0,0.0,0.0,0.0,0.0,0.0,0.0,0.0,0.0,0.0,0.0,0.0,0.0,0.0,0.0,0.0,0.0,0.0,0.0,0.0,0.0,0.0,0.0,0.0,0.0,0.0,0.0,0.0,0.0,0.0,0.0,0.0,0.0,0.0,0.0,0.0,0.0,0.0,0.0,0.0,0.0,0.0,0.0,0.0,0.0,0.0,0.0,0.0,0.0,0.0,0.0,0.0,0.1405,0.0,0.0,0.0,0.0,0.0,0.0,0.0,0.0,0.0,0.0,0.0,0.0,0.0,0.0,0.0,0.0,0.0,0.0,0.0,0.0,0.0,0.0,0.0,0.0,0.0,0.0,0.0,0.0,0.0,0.0,0.0,0.0,0.0,0.0,0.0,0.0,0.0,0.0,0.0,0.0,0.0,0.0,0.0,0.0,0.0,0.0,0.0,0.0,0.0,0.0,0.0,0.0,0.0,0.0,0.0,0.0,0.0,0.0,0.0,0.0,0.0,0.0,0.0,0.0,0.0,0.0,0.0,0.0,0.0,0.0,0.0,0.0,0.0,0.0,0.0,0.0,0.0,0.0,0.0,0.0,0.0,0.0,0.0,0.0,0.0,0.0,0.0,0.0,0.0,0.0,0.0,0.0,0.0,0.0,0.0,0.0,0.0,0.0,0.0,0.0,0.0,0.0,0.0,0.0,0.0,0.0,0.0,0.0,0.0,0.0,0.0635,0.0925,0.2508,0.3454,0.3646,0.0,0.0,0.0,0.0,0.0,0.0,0.0,0.0,0.0,0.0,0.0,0.0,0.0,0.0,0.0,0.0,0.0,0.0,0.0,0.0,0.0,0.0,0.0,0.0,0.0,0.0,0.0,0.0,0.0,0.0,0.0,0.0,0.0,0.0,0.0,0.0,0.0,0.0,0.0,0.0,0.0,0.0,0.0,0.0,0.0,0.0,0.0,0.0,0.0,0.0,0.0,0.0,0.0,0.0,0.0,0.0,0.0,0.0,0.0,0.0,0.0,0.0,0.0,0.0,0.0,0.0,0.0,0.0,0.0,0.0,0.0,0.0,0.0,0.0,0.0,0.0,0.0,0.0,0.0,0.0,0.0,0.0,0.0,0.0,0.0,0.0,0.0,0.0,0.0,0.0,0.0,0.0,0.0,0.0,0.0,0.0,0.0,0.0,0.0,0.0,0.0,0.0,0.0,0.0,0.0,0.0,0.0,0.0,0.0,0.0,0.0,0.0,0.309,0.3876,0.4806,0.0,0.0,0.0,0.0,0.0,0.0,0.0,0.0,0.0,0.0,0.0,0.0,0.0,0.0,0.0,0.0,0.0,0.0,0.0,0.0,0.0,0.0,0.0,0.0,0.0,0.0,0.0,0.0,0.0,0.0,0.0,0.0,0.0,0.0,0.0,0.0,0.0,0.0,0.0,0.0,0.0,0.0,0.0,0.0,0.0,0.0,0.0,0.0,0.0,0.0,0.0,0.0,0.0,0.0,0.0,0.0,0.0,0.0,0.0,0.0,0.0,0.0,0.0,0.0,0.0,0.0,0.0,0.0,0.0,0.0,0.0,0.0,0.0,0.0,0.0,0.0,0.0,0.0,0.0,0.0,0.0,0.0,0.0,0.0,0.0,0.0,0.0,0.0,0.0,0.0,0.0,0.0,0.0,0.0,0.0,0.0,0.0,0.0,0.0,0.0,0.0,0.0,0.0,0.0,0.0,0.0,0.0,0.0,0.0,0.0,0.154,0.2516,-0.0196,0.0,0.1153,0.0,0.0,0.0,0.0,0.0,0.0,0.0,0.0,0.0,0.0,0.0,0.0,0.0,0.0,0.0,0.0,0.0,0.0,0.0,0.0,0.0,0.0,0.0,0.0,0.0,0.0,0.0,0.0,0.0,0.0,0.0,0.0,0.0,0.0,0.0,0.0,0.0,0.0,0.0,0.0,0.0,0.0,0.0,0.0,0.0,0.0,0.0,0.0,0.0,0.0,0.0,0.0,0.0,0.0,0.0,0.0,0.0,0.0,0.0,0.0,0.0,0.0,0.0,0.0,0.0,0.0,0.0,0.0,0.0,0.0,0.0,0.0,0.0,0.0,0.0,0.0,0.0,0.0,0.0,0.0,0.0,0.0,0.0,0.0,0.0,0.0,0.0,0.0,0.0,0.0,0.0,0.0,0.0,0.0,0.0,0.0,0.0,0.0,0.0,0.0,0.0,0.0,0.0,0.0,0.0,0.0,0.0,0.0,0.0,0.0,-0.0157,0.017,-0.1391,-0.2284,0.0,0.0,0.0,0.0,0.0,0.0,0.0,0.0,0.0,0.0,0.0,0.0,0.0,0.0,0.0,0.0,0.0,0.0,0.0,0.0,0.0,0.0,0.0,0.0,0.0,0.0,0.0,0.0,0.0,0.0,0.0,0.0,0.0,0.0,0.0,0.0,0.0,0.0,0.0,0.0,0.0,0.0,0.0,0.0,0.0,0.0,0.0,0.0,0.0,0.0,0.0,0.0,0.0,0.0,0.0,0.0,0.0,0.0,0.0,0.0,0.0,0.0,0.0,0.0,0.0,0.0,0.0,0.0,0.0,0.0,0.0,0.0,0.0,0.0,0.0,0.0,0.0,0.0,0.0,0.0,0.0,0.0,0.0,0.0,0.0,0.0,0.0,0.0,0.0,0.0,0.0,0.0,0.0,0.0,0.0,0.0,0.0,0.0,0.0,0.0,0.0,0.0,0.0,0.0,0.0,0.0,0.0,0.0,0.0,0.0,-0.074,-0.2306,-0.3277,-0.4214,-0.4783,-0.4916,0.0,0.0,0.0,0.0,0.0,0.0,0.0,0.0,0.0,0.0,0.0,0.0,0.0,0.0,0.0,0.0,0.0,0.0,0.0,0.0,0.0,0.0,0.0,0.0,0.0,0.0,0.0,0.0,0.0,0.0,0.0,0.0,0.0,0.0,0.0,0.0,0.0,0.0,0.0,0.0,0.0,0.0,0.0,0.0,0.0,0.0,0.0,0.0,0.0,0.0,0.0,0.0,0.0,0.0,0.0,0.0,0.0,0.0,0.0,0.0,0.0,0.0,0.0,0.0,0.0,0.0,0.0,0.0,0.0,0.0,0.0,0.0,0.0,0.0,0.0,0.0,0.0,0.0,0.0,0.0,0.0,0.0,0.0,0.0,0.0,0.0,0.0,0.0,0.0,0.0,0.0,0.0,0.0,0.0,0.0,0.0,0.0,0.0,0.0,0.0,0.0,0.0,0.0,0.0,0.0,0.0,0.0,0.0,0.211,-0.1476,-0.4795,-0.7616,-0.9892,-0.9169,0.0,0.0,0.0,0.0,0.0,0.0,0.0,0.0,0.0,0.0,0.0,0.0,0.0,0.0,0.0,0.0,0.0,0.0,0.0,0.0,0.0,0.0,0.0,0.0,0.0,0.0,0.0,0.0,0.0,0.0,0.0,0.0,0.0,0.0,0.0,0.0,0.0,0.0,0.0,0.0,0.0,0.0,0.0,0.0,0.0,0.0,0.0,0.0,0.0,0.0,0.0,0.0,0.0,0.0,0.0,0.0,0.0,0.0,0.0,0.0,0.0,0.0,0.0,0.0,0.0,0.0,0.0,0.0,0.0,0.0,0.0,0.0,0.0,0.0,0.0,0.0,0.0,0.0,0.0,0.0,0.0,0.0,0.0,0.0,0.0,0.0,0.0,0.0,0.0,0.0,0.0,0.0,0.0,0.0,0.0,0.0,0.0,0.0,0.0,0.0,0.0,0.0,0.0,0.0,0.0,0.0,0.0,0.0,0.0,-0.1872,-0.5132,-0.8238,-1.0931,-1.0982,-1.0247,0.0,0.0,0.0,0.0,0.0,0.0,0.0,0.0,0.0,0.0,0.0,0.0,0.0,0.0,0.0,0.0,0.0,0.0,0.0,0.0,0.0,0.0,0.0,0.0,0.0,0.0,0.0,0.0,0.0,0.0,0.0,0.0,0.0,0.0,0.0,0.0,0.0,0.0,0.0,0.0,0.0,0.0,0.0,0.0,0.0,0.0,0.0,0.0,0.0,0.0,0.0,0.0,0.0,0.0,0.0,0.0,0.0,0.0,0.0,0.0,0.0,0.0,0.0,0.0,0.0,0.0,0.0,0.0,0.0,0.0,0.0,0.0,0.0,0.0,0.0,0.0,0.0,0.0,0.0,0.0,0.0,0.0,0.0,0.0,0.0,0.0,0.0,0.0,0.0,0.0,0.0,0.0,0.0,0.0,0.0,0.0,0.0,0.0,0.0,0.0,0.0,0.0,0.0,0.0,0.0,0.0,0.0,0.0,0.0,-0.5613,0.0,-1.0737,-1.2353,-1.1566,-1.0649,0.0,0.0,0.0,0.0,0.0,0.0,0.0,0.0,0.0,0.0,0.0,0.0,0.0,0.0,0.0,0.0,0.0,0.0,0.0,0.0,0.0,0.0,0.0,0.0,0.0,0.0,0.0,0.0,0.0,0.0,0.0,0.0,0.0,0.0,0.0,0.0,0.0,0.0,0.0,0.0,0.0,0.0,0.0,0.0,0.0,0.0,0.0,0.0,0.0,0.0,0.0,0.0,0.0,0.0,0.0,0.0,0.0,0.0,0.0,0.0,0.0,0.0,0.0,0.0,0.0,0.0,0.0,0.0,0.0,0.0,0.0,0.0,0.0,0.0,0.0,0.0,0.0,0.0,0.0,0.0,0.0,0.0,0.0,0.0,0.0,0.0,0.0,0.0,0.0,0.0,0.0,0.0,0.0,0.0,0.0,0.0,0.0,0.0,0.0,0.0,0.0,0.0,0.0,0.0,0.0,0.0,0.0,0.0,-0.5274,-0.8602,-1.0897,-1.1996,-1.1902,-1.1922,-1.055,0.0,0.0,0.0,0.0,0.0,0.0,0.0,0.0,0.0,0.0,0.0,0.0,0.0,0.0,0.0,0.0,0.0,0.0,0.0,0.0,0.0,0.0,0.0,0.0,0.0,0.0,0.0,0.0,0.0,0.0,0.0,0.0,0.0,0.0,0.0,0.0,0.0,0.0,0.0,0.0,0.0,0.0,0.0,0.0,0.0,0.0,0.0,0.0,0.0,0.0,0.0,0.0,0.0,0.0,0.0,0.0,0.0,0.0,0.0,0.0,0.0,0.0,0.0,0.0,0.0,0.0,0.0,0.0,0.0,0.0,0.0,0.0,0.0,0.0,0.0,0.0,0.0,0.0,0.0,0.0,0.0,0.0,0.0,0.0,0.0,0.0,0.0,0.0,0.0,0.0,0.0,0.0,0.0,0.0,0.0,0.0,0.0,0.0,0.0,0.0,0.0,0.0,0.0,0.0,0.0,0.0,0.0,0.0,0.0,-0.6854,-0.9985,-1.179,-1.208,-1.1585,-1.0648,0.0,0.0,0.0,0.0,0.0,0.0,0.0,0.0,0.0,0.0,0.0,0.0,0.0,0.0,0.0,0.0,0.0,0.0,0.0,0.0,0.0,0.0,0.0,0.0,0.0,0.0,0.0,0.0,0.0,0.0,0.0,0.0,0.0,0.0,0.0,0.0,0.0,0.0,0.0,0.0,0.0,0.0,0.0,0.0,0.0,0.0,0.0,0.0,0.0,0.0,0.0,0.0,0.0,0.0,0.0,0.0,0.0,0.0,0.0,0.0,0.0,0.0,0.0,0.0,0.0,0.0,0.0,0.0,0.0,0.0,0.0,0.0,0.0,0.0,0.0,0.0,0.0,0.0,0.0,0.0,0.0,0.0,0.0,0.0,0.0,0.0,0.0,0.0,0.0,0.0,0.0,0.0,0.0,0.0,0.0,0.0,0.0,0.0,0.0,0.0,0.0,0.0,0.0,0.0,0.0,0.0,0.0,0.0,0.0,-0.7679,-1.0884,-1.2522,-1.23,-1.1768,-1.0879,-0.9586,0.0,0.0,0.0,0.0,0.0,0.0,0.0,0.0,0.0,0.0,0.0,0.0,0.0,0.0,0.0,0.0,0.0,0.0,0.0,0.0,0.0,0.0,0.0,0.0,0.0,0.0,0.0,0.0,0.0,0.0,0.0,0.0,0.0,0.0,0.0,0.0,0.0,0.0,0.0,0.0,0.0,0.0,0.0,0.0,0.0,0.0,0.0,0.0,0.0,0.0,0.0,0.0,0.0,0.0,0.0,0.0,0.0,0.0,0.0,0.0,0.0,0.0,0.0,0.0,0.0,0.0,0.0,0.0,0.0,0.0,0.0,0.0,0.0,0.0,0.0,0.0,0.0,0.0,0.0,0.0,0.0,0.0,0.0,0.0,0.0,0.0,0.0,0.0,0.0,0.0,0.0,0.0,0.0,0.0,0.0,0.0,0.0,0.0,0.0,0.0,0.0,0.0,0.0,0.0,0.0,0.0,0.0,0.0,-1.041,-1.324,-1.4029,-1.262,-1.236,-1.12,0.0,0.0,0.0,0.0,0.0,0.0,0.0,0.0,0.0,0.0,0.0,0.0,0.0,0.0,0.0,0.0,0.0,0.0,0.0,0.0,0.0,0.0,0.0,0.0,0.0,0.0,0.0,0.0,0.0,0.0,0.0,0.0,0.0,0.0,0.0,0.0,0.0,0.0,0.0,0.0,0.0,0.0,0.0,0.0,0.0,0.0,0.0,0.0,0.0,0.0,0.0,0.0,0.0,0.0,0.0,0.0,0.0,0.0,0.0,0.0,0.0,0.0,0.0,0.0,0.0,0.0,0.0,0.0,0.0,0.0,0.0,0.0,0.0,0.0,0.0,0.0,0.0,0.0,0.0,0.0,0.0,0.0,0.0,0.0,0.0,0.0,0.0,0.0,0.0,0.0,0.0,0.0,0.0,0.0,0.0,0.0,0.0,0.0,0.0,0.0,0.0,0.0,0.0,0.0,0.0,0.0,0.0,0.0,0.0,-1.2,-1.4062,-1.4658,-1.3619,-1.2383,-1.1398,0.0,0.0,0.0,0.0,0.0,0.0,0.0,0.0,0.0,0.0,0.0,0.0,0.0,0.0,0.0,0.0,0.0,0.0,0.0,0.0,0.0,0.0,0.0,0.0,0.0,0.0,0.0,0.0,0.0,0.0,0.0,0.0,0.0,0.0,0.0,0.0,0.0,0.0,0.0,0.0,0.0,0.0,0.0,0.0,0.0,0.0,0.0,0.0,0.0,0.0,0.0,0.0,0.0,0.0,0.0,0.0,0.0,0.0,0.0,0.0,0.0,0.0,0.0,0.0,0.0,0.0,0.0,0.0,0.0,0.0,0.0,0.0,0.0,0.0,0.0,0.0,0.0,0.0,0.0,0.0,0.0,0.0,0.0,0.0,0.0,0.0,0.0,0.0,0.0,0.0,0.0,0.0,0.0,0.0,0.0,0.0,0.0,0.0,0.0,0.0,0.0,0.0,0.0,0.0,0.0,0.0,0.0,0.0,-1.1579,-1.3173,-1.4595,-1.5107,-1.4559,-1.3284,-1.2225,0.0,0.0,0.0,0.0,0.0,0.0,0.0,0.0,0.0,0.0,0.0,0.0,0.0,0.0,0.0,0.0,0.0,0.0,0.0,0.0,0.0,0.0,0.0,0.0,0.0,0.0,0.0,0.0,0.0,0.0,0.0,0.0,0.0,0.0,0.0,0.0,0.0,0.0,0.0,0.0,0.0,0.0,0.0,0.0,0.0,0.0,0.0,0.0,0.0,0.0,0.0,0.0,0.0,0.0,0.0,0.0,0.0,0.0,0.0,0.0,0.0,0.0,0.0,0.0,0.0,0.0,0.0,0.0,0.0,0.0,0.0,0.0,0.0,0.0,0.0,0.0,0.0,0.0,0.0,0.0,0.0,0.0,0.0,0.0,0.0,0.0,0.0,0.0,0.0,0.0,0.0,0.0,0.0,0.0,0.0,0.0,0.0,0.0,0.0,0.0,0.0,0.0,0.0,0.0,0.0,0.0,0.0,0.0,-1.2355,-1.397,-1.4932,-1.5387,-1.5295,-1.4434,-1.3196,0.0,0.0,0.0,0.0,0.0,0.0,0.0,0.0,0.0,0.0,0.0,0.0,0.0,0.0,0.0,0.0,0.0,0.0,0.0,0.0,0.0,0.0,0.0,0.0,0.0,0.0,0.0,0.0,0.0,0.0,0.0,0.0,0.0,0.0,0.0,0.0,0.0,0.0,0.0,0.0,0.0,0.0,0.0,0.0,0.0,0.0,0.0,0.0,0.0,0.0,0.0,0.0,0.0,0.0,0.0,0.0,0.0,0.0,0.0,0.0,0.0,0.0,0.0,0.0,0.0,0.0,0.0,0.0,0.0,0.0,0.0,0.0,0.0,0.0,0.0,0.0,0.0,0.0,0.0,0.0,0.0,0.0,0.0,0.0,0.0,0.0,0.0,0.0,0.0,0.0,0.0,0.0,0.0,0.0,0.0,0.0,0.0,0.0,0.0,0.0,0.0,0.0,0.0,0.0,0.0,0.0,0.0,0.0,-1.2749,-1.405,-1.4927,-1.5383,-1.5384,-1.3875,-1.257,0.0,0.0,0.0,0.0,0.0,0.0,0.0,0.0,0.0,0.0,0.0,0.0,0.0,0.0,0.0,0.0,0.0,0.0,0.0,0.0,0.0,0.0,0.0,0.0,0.0,0.0,0.0,0.0,0.0,0.0,0.0,0.0,0.0,0.0,0.0,0.0,0.0,0.0,0.0,0.0,0.0,0.0,0.0,0.0,0.0,0.0,0.0,0.0,-0.1896,0.0,0.0,0.0,0.0,0.0,0.0,0.0,0.0,0.0,0.0,0.0,0.0,0.0,0.0,0.0,0.0,0.0,0.0,0.0,0.0,0.0,0.0,0.0,0.0,0.0,0.0,0.0,0.0,0.0,0.0,0.0,0.0,0.0,0.0,0.0,0.0,0.0,0.0,0.0,0.0,0.0,0.0,0.0,0.0,0.0,0.0,0.0,0.0,0.0,0.0,0.0,0.0,0.0,0.0,0.0,0.0,0.0,0.0,0.0,-1.3613,-1.4642,-1.5157,-1.5416,-1.538,-1.4485,-1.3387,0.0,0.0,0.0,0.0,0.0,0.0,0.0,0.0,0.0,0.0,0.0,0.0,0.0,0.0,0.0,0.0,0.0,0.0,0.0,0.0,0.0,0.0,0.0,0.0,0.0,0.0,0.0,0.0,0.0,0.0,0.0,0.0,0.0,0.0,0.0,0.0,0.0,0.0,0.0,0.0,0.0,0.0,0.0,0.0,0.0,0.0,0.0,0.0,0.0,0.0,0.0,0.0,0.0,0.0,0.0,0.0,0.0,0.0,0.0,0.0,0.0,0.0,0.0,0.0,0.0,0.0,0.0,0.0,0.0,0.0,0.0,0.0,0.0,0.0,0.0,0.0,0.0,0.0,0.0,0.0,0.0,0.0,0.0,0.0,0.0,0.0,0.0,0.0,0.0,0.0,0.0,0.0,0.0,0.0,0.0,0.0,0.0,0.0,0.0,0.0,0.0,0.0,0.0,0.0,0.0,0.0,0.0,-1.3085,-1.4274,-1.5279,-1.5379,-1.5385,-1.5388,-1.5321,-1.4515,-1.2881,0.0,0.0,0.0,0.0,0.0,0.0,0.0,0.0,0.0,0.0,0.0,0.0,0.0,0.0,0.0,0.0,0.0,0.0,0.0,0.0,0.0,0.0,0.0,0.0,0.0,0.0,0.0,0.0,0.0,0.0,0.0,0.0,0.0,0.0,0.0,0.0,0.0,0.0,-0.2615,-0.2042,0.0,0.0,0.0,0.0,0.0,0.0,0.0,0.0,-0.2186,0.0,0.0,0.0,0.0,0.0,0.0,0.0,0.0,0.0,0.0,0.0,0.0,0.0,0.0,0.0,0.0,0.0,0.0,0.0,0.0,0.0,0.0,0.0,0.0,0.0,0.0,0.0,0.0,0.0,0.0,0.0,0.0,0.0,0.0,0.0,0.0,0.0,0.0,0.0,0.0,0.0,0.0,0.0,0.0,0.0,0.0,0.0,0.0,0.0,0.0,0.0,0.0,0.0,0.0,0.0,0.0,-1.3337,-1.2975,-1.3602,-1.5332,-1.5384,-1.5379,-1.5315,-1.5316,-1.452,-1.2907,0.0,0.0,0.0,0.0,0.0,0.0,0.0,0.0,0.0,0.0,0.0,0.0,0.0,0.0,0.0,0.0,0.0,0.0,0.0,0.0,0.0,0.0,0.0,0.0,0.0,0.0,0.0,0.0,0.0,0.0,0.0,0.0,0.0,0.0,0.0,0.0,0.0,0.0,0.0,-0.3456,-0.3191,0.0,0.0,0.0,0.0,0.0,0.0,0.0,0.0,-0.2382,0.0,0.0,0.0,0.0,0.0,0.0,0.0,0.0,0.0,0.0,0.0,0.0,0.0,0.0,0.0,0.0,0.0,0.0,0.0,0.0,0.0,0.0,0.0,0.0,0.0,0.0,0.0,0.0,0.0,0.0,0.0,0.0,0.0,0.0,0.0,0.0,0.0,0.0,0.0,0.0,0.0,0.0,0.0,0.0,0.0,0.0,0.0,0.0,0.0,0.0,0.0,0.0,0.0,0.0,0.0,-1.3167,-1.377,-1.4463,-1.5369,-1.541,-1.539,-1.534,-1.492,-1.4065,0.0,0.0,0.0,0.0,0.0,0.0,0.0,0.0,0.0,0.0,0.0,0.0,0.0,0.0,0.0,0.0,0.0,0.0,0.0,0.0,0.0,0.0,0.0,0.0,0.0,0.0,0.0,0.0,0.0,0.0,0.0,0.0,0.0,0.0,0.0,0.0,0.0,0.0,0.0,0.0,-0.4039,-0.3812,-0.3386,0.0,0.0,0.0,0.0,0.0,0.0,-0.2939,-0.2752,0.0,0.0,0.0,0.0,0.0,0.0,0.0,0.0,0.0,0.0,0.0,0.0,0.0,0.0,0.0,0.0,0.0,0.0,0.0,0.0,0.0,0.0,0.0,0.0,0.0,0.0,0.0,0.0,0.0,0.0,0.0,0.0,0.0,0.0,0.0,0.0,0.0,0.0,0.0,0.0,0.0,0.0,0.0,0.0,0.0,0.0,0.0,0.0,0.0,0.0,0.0,0.0,0.0,0.0,0.0,-1.2811,-1.4342,-1.5218,-1.539,-1.5405,-1.5409,-1.5395,-1.4742,-1.3848,0.0,0.0,0.0,0.0,0.0,0.0,0.0,0.0,0.0,0.0,0.0,0.0,0.0,0.0,0.0,0.0,0.0,0.0,0.0,0.0,0.0,0.0,0.0,0.0,0.0,0.0,0.0,0.0,0.0,0.0,0.0,0.0,0.0,0.0,0.0,0.0,0.0,0.0,0.0,0.0,0.0,-0.4631,-0.4145,-0.3925,0.0,0.0,0.0,0.0,-0.3431,-0.3406,0.0,0.0,0.0,0.0,0.0,0.0,0.0,0.0,0.0,0.0,0.0,0.0,0.0,0.0,0.0,0.0,0.0,0.0,0.0,0.0,0.0,0.0,0.0,0.0,0.0,0.0,0.0,0.0,0.0,0.0,0.0,0.0,0.0,0.0,0.0,0.0,0.0,0.0,0.0,0.0,0.0,0.0,0.0,0.0,0.0,0.0,0.0,0.0,0.0,0.0,0.0,0.0,0.0,0.0,0.0,0.0,-1.279,-1.3764,-1.4641,-1.5352,-1.542,-1.5404,-1.5405,-1.5301,-1.4467,0.0,0.0,0.0,0.0,0.0,0.0,0.0,0.0,0.0,0.0,0.0,0.0,0.0,0.0,0.0,0.0,0.0,0.0,0.0,0.0,0.0,0.0,0.0,0.0,0.0,0.0,0.0,0.0,0.0,0.0,0.0,0.0,0.0,0.0,0.0,0.0,0.0,0.0,0.0,0.0,0.0,-0.6657,-0.5162,-0.533,-0.5307,0.0,0.0,-0.3922,-0.3917,-0.3915,0.0,0.0,0.0,0.0,0.0,0.0,0.0,0.0,0.0,0.0,0.0,0.0,0.0,0.0,0.0,0.0,0.0,0.0,0.0,0.0,0.0,0.0,0.0,0.0,0.0,0.0,0.0,0.0,0.0,0.0,0.0,0.0,0.0,0.0,0.0,0.0,0.0,0.0,0.0,0.0,0.0,0.0,0.0,0.0,0.0,0.0,0.0,0.0,0.0,0.0,0.0,0.0,0.0,0.0,0.0,-1.236,-1.2817,-1.414,-1.5011,-1.5388,-1.5416,-1.5421,-1.5409,-1.4443,-1.3575,0.0,0.0,0.0,0.0,0.0,0.0,0.0,0.0,0.0,0.0,0.0,0.0,0.0,0.0,0.0,0.0,0.0,0.0,0.0,0.0,0.0,0.0,0.0,0.0,0.0,0.0,0.0,0.0,0.0,0.0,0.0,0.0,0.0,0.0,0.0,0.0,0.0,0.0,0.0,0.0,0.0,0.0,-0.5994,-0.6256,0.0,0.0,0.0,-0.504,-0.4736,0.0,0.0,0.0,0.0,0.0,0.0,0.0,0.0,0.0,0.0,0.0,0.0,0.0,0.0,0.0,0.0,0.0,0.0,0.0,0.0,0.0,0.0,0.0,0.0,0.0,0.0,0.0,0.0,0.0,0.0,0.0,0.0,0.0,0.0,0.0,0.0,0.0,0.0,0.0,0.0,0.0,0.0,0.0,0.0,0.0,0.0,0.0,0.0,0.0,0.0,0.0,0.0,0.0,0.0,0.0,0.0,0.0,-1.282,-1.4512,-1.5404,-1.5421,-1.541,-1.5415,-1.539,-1.3925,0.0,0.0,0.0,0.0,0.0,0.0,0.0,0.0,0.0,0.0,0.0,0.0,0.0,0.0,0.0,0.0,0.0,0.0,0.0,0.0,0.0,0.0,0.0,0.0,0.0,0.0,0.0,-0.6002,0.0,0.0,0.0,0.0,0.0,0.0,0.0,0.0,0.0,0.0,0.0,0.0,0.0,0.0,-0.729,-0.6984,-0.7314,-0.7373,0.0,0.0,-0.609,-0.5613,-0.5616,-0.5253,0.0,0.0,0.0,0.0,0.0,0.0,0.0,0.0,0.0,0.0,0.0,0.0,0.0,0.0,0.0,0.0,0.0,0.0,0.0,0.0,0.0,0.0,0.0,0.0,0.0,0.0,0.0,0.0,0.0,0.0,0.0,0.0,0.0,0.0,0.0,0.0,0.0,0.0,0.0,0.0,0.0,0.0,0.0,0.0,0.0,0.0,0.0,0.0,0.0,0.0,0.0,0.0,0.0,0.0,-1.2657,-1.2859,-1.451,-1.5408,-1.5421,-1.5416,-1.5416,-1.5403,-1.4492,-1.3628,0.0,0.0,0.0,0.0,0.0,0.0,0.0,0.0,0.0,0.0,0.0,0.0,0.0,0.0,0.0,0.0,0.0,0.0,0.0,0.0,0.0,0.0,0.0,0.0,0.0,0.0,0.0,0.0,0.0,0.0,0.0,0.0,0.0,0.0,0.0,0.0,0.0,0.0,0.0,0.0,0.0,-0.8622,-0.8244,-0.8721,-0.9017,0.0,-0.7666,-0.6827,-0.654,-0.6156,-0.5591,-0.476,0.0,0.0,0.0,0.0,0.0,0.0,0.0,0.0,0.0,0.0,0.0,0.0,0.0,0.0,0.0,0.0,0.0,0.0,0.0,0.0,0.0,0.0,0.0,0.0,0.0,0.0,0.0,0.0,0.0,0.0,0.0,0.0,0.0,0.0,0.0,0.0,0.0,0.0,0.0,0.0,0.0,0.0,0.0,0.0,0.0,0.0,0.0,0.0,0.0,0.0,0.0,0.0,0.0,-1.2676,-1.282,-1.447,-1.5328,-1.5355,-1.5332,-1.5335,-1.5327,-1.4481,-1.3648,0.0,0.0,0.0,0.0,0.0,0.0,0.0,0.0,0.0,0.0,0.0,0.0,0.0,0.0,0.0,0.0,0.0,0.0,0.0,0.0,0.0,0.0,0.0,0.0,0.0,0.0,0.0,0.0,-0.742,-0.7717,-0.7752,0.0,0.0,0.0,0.0,0.0,0.0,0.0,0.0,0.0,0.0,-1.0079,-0.9822,-1.0058,0.0,0.0,-0.8655,-0.7939,-0.7148,-0.6828,-0.6276,-0.5014,-0.4754,0.0,0.0,0.0,0.0,0.0,0.0,0.0,0.0,0.0,0.0,0.0,0.0,0.0,0.0,0.0,0.0,0.0,0.0,0.0,0.0,0.0,0.0,0.0,0.0,0.0,0.0,0.0,0.0,0.0,0.0,0.0,0.0,0.0,0.0,0.0,0.0,0.0,0.0,0.0,0.0,0.0,0.0,0.0,0.0,0.0,0.0,0.0,0.0,0.0,0.0,0.0,0.0,-1.268,-1.2834,-1.4447,-1.5289,-1.5299,-1.5297,-1.5294,-1.5274,-1.4462,-1.3613,0.0,0.0,0.0,0.0,0.0,0.0,0.0,0.0,0.0,0.0,0.0,0.0,0.0,0.0,0.0,0.0,0.0,0.0,0.0,0.0,0.0,0.0,0.0,0.0,0.0,0.0,0.0,0.0,-0.7587,-0.7892,-0.7528,0.0,0.0,0.0,0.0,0.0,0.0,0.0,0.0,0.0,0.0,-1.0932,-1.0955,-1.0843,-1.0612,-1.0119,-0.9303,-0.8472,-0.7685,-0.7297,-0.6587,-0.5088,0.0,0.0,0.0,0.0,0.0,0.0,0.0,0.0,0.0,0.0,0.0,0.0,0.0,0.0,0.0,0.0,0.0,0.0,0.0,0.0,0.0,0.0,0.0,0.0,0.0,0.0,0.0,-0.8842,0.0,0.0,-0.8735,0.0,0.0,0.0,0.0,0.0,0.0,0.0,0.0,0.0,0.0,0.0,0.0,0.0,0.0,0.0,0.0,0.0,0.0,0.0,0.0,0.0,0.0,-1.2695,-1.2912,-1.4477,-1.5293,-1.5292,-1.5297,-1.5292,-1.5268,-1.4469,-1.3624,-1.2812,0.0,0.0,0.0,0.0,0.0,0.0,0.0,0.0,0.0,0.0,0.0,0.0,0.0,0.0,0.0,0.0,0.0,0.0,0.0,0.0,0.0,0.0,0.0,0.0,0.0,0.0,-0.6461,-0.7311,-0.7652,0.0,0.0,0.0,0.0,0.0,0.0,0.0,0.0,0.0,0.0,-1.0448,-1.0983,-1.1451,-1.1079,-1.0922,-1.1191,-0.9559,-0.8252,-0.8211,-0.7501,-0.6418,0.0,0.0,0.0,0.0,0.0,0.0,0.0,0.0,0.0,0.0,0.0,0.0,0.0,0.0,0.0,0.0,0.0,0.0,0.0,0.0,0.0,0.0,0.0,0.0,0.0,0.0,0.0,-1.0102,-1.075,0.0,0.0,0.0,0.0,0.0,0.0,0.0,0.0,0.0,0.0,0.0,-1.3398,-1.4173,0.0,0.0,0.0,0.0,0.0,0.0,0.0,0.0,0.0,0.0,0.0,0.0,-1.2656,-1.2967,-1.4474,-1.5249,-1.5177,-1.5207,-1.5202,-1.5168,-1.4931,-1.4159,-1.2772,0.0,0.0,0.0,0.0,0.0,0.0,0.0,0.0,0.0,0.0,0.0,0.0,0.0,0.0,0.0,0.0,0.0,0.0,0.0,0.0,0.0,0.0,0.0,0.0,0.0,-0.6111,0.0,0.0,0.0,0.0,0.0,0.0,0.0,0.0,0.0,0.0,0.0,-1.0482,-1.164,-1.2036,-1.226,-1.2335,-1.1746,-1.1292,0.0,0.0,0.0,0.0,0.0,0.0,0.0,0.0,0.0,0.0,0.0,0.0,0.0,0.0,-0.6315,-0.4425,-0.3879,-0.3673,-0.3576,0.0,0.0,0.0,0.0,0.0,0.0,0.0,0.0,0.0,0.0,0.0,0.0,0.0,0.0,-1.1206,0.0,-1.1109,0.0,0.0,0.0,0.0,0.0,0.0,0.0,0.0,-1.4738,-1.5495,-1.4824,-1.575,-1.5231,0.0,-1.3144,-1.1822,0.0,0.0,0.0,0.0,0.0,0.0,0.0,0.0,-1.2357,-1.2883,-1.4167,-1.4953,-1.5153,-1.5168,-1.5138,-1.5075,-1.4782,-1.4136,-1.3088,-1.1661,-1.0627,0.0,0.0,0.0,0.0,0.0,0.0,0.0,0.0,0.0,0.0,0.0,0.0,0.0,0.0,0.0,0.0,0.0,0.0,0.0,0.0,0.0,0.0,0.0,-0.5932,0.0,0.0,0.0,0.0,0.0,0.0,0.0,0.0,0.0,-1.0318,-1.1263,-1.2197,-1.276,-1.2944,-1.2902,-1.2519,0.0,0.0,0.0,0.0,0.0,0.0,0.0,-0.821,-0.7772,-0.7019,-0.6681,-0.7294,-0.7759,-0.7854,-0.7292,0.0,0.0,-0.5711,-0.4804,-0.4305,-0.4485,-0.428,-0.4287,-0.5048,-0.5384,-0.5688,0.0,0.0,0.0,0.0,0.0,0.0,0.0,0.0,-1.0926,-1.1567,0.0,-1.2536,0.0,0.0,0.0,0.0,-0.9265,-1.2287,0.0,0.0,-1.588,-1.6772,-1.6358,-1.6286,-1.5533,-1.4257,-1.4161,-1.2914,-1.0656,-0.9748,0.0,0.0,0.0,0.0,0.0,0.0,-1.1916,-1.2857,-1.3668,-1.4466,-1.5254,-1.5164,-1.5082,-1.4995,-1.4145,-1.3694,-1.3657,-1.2884,-1.1683,-1.0087,-1.001,0.0,0.0,0.0,0.0,0.0,0.0,0.0,0.0,0.0,0.0,0.0,0.0,0.0,0.0,0.0,0.0,0.0,0.0,0.0,0.0,-0.6448,0.0,0.0,0.0,0.0,0.0,0.0,0.0,0.0,0.0,0.0,-1.1087,-1.2628,-1.3641,-1.3209,0.0,0.0,0.0,0.0,-1.0881,-1.0899,-1.0118,-0.9561,-0.9517,-0.9318,-0.8829,-0.7829,0.0,0.0,-0.7607,-0.7497,-0.7643,-0.7733,-0.7851,-0.7705,-0.7464,-0.6295,-0.5591,-0.615,-0.5759,-0.5747,-0.6642,-0.682,-0.6947,-1.3168,0.0,0.0,0.0,0.0,-1.2843,-1.3658,-1.5047,-1.4297,-1.4448,-1.5243,-1.4824,0.0,0.0,0.0,0.0,0.0,0.0,-1.3366,-1.3248,-1.5359,-1.6188,-1.5911,-1.6589,-1.6126,-1.4698,-1.4034,-1.2848,-1.1192,-1.0511,-0.9754,-0.8914,0.0,0.0,0.0,0.0,-1.275,-1.3705,-1.4526,-1.5009,-1.5136,-1.5168,-1.5138,-1.5076,-1.4775,-1.4361,-1.387,-1.3463,-1.2787,-1.1807,-1.1131,0.0,0.0,0.0,0.0,0.0,0.0,0.0,0.0,0.0,0.0,0.0,0.0,0.0,0.0,0.0,0.0,0.0,0.0,0.0,-0.6764,-0.6804,-0.6777,0.0,0.0,0.0,0.0,0.0,0.0,0.0,0.0,0.0,-1.3315,-1.3844,-1.4211,0.0,0.0,-1.2728,-1.2162,-1.1426,-1.0805,-1.0594,-1.0251,0.0,-1.0004,-0.9372,-0.9194,-1.0012,-1.0282,-1.006,-0.8967,-0.9269,-0.9567,-0.9259,-0.9452,-0.9584,-0.932,-0.7976,-0.6957,-0.7011,-0.6744,-0.6747,-0.7593,-0.7536,-0.7563,-1.5594,-1.4113,-1.3573,-1.3833,-1.4554,-1.4483,-1.5296,-1.6657,-1.638,-1.653,-1.692,-1.6974,-1.5882,-1.3974,-1.3645,0.0,0.0,0.0,-1.4153,-1.3446,-1.5444,-1.6195,-1.5866,-1.6475,-1.5954,-1.446,-1.3727,-1.2684,-1.1315,-1.1051,-1.0568,-0.9884,0.0,0.0,-1.1471,-1.2224,-1.3082,-1.4039,-1.4569,-1.494,-1.5132,-1.5141,-1.5108,-1.5049,-1.4965,-1.473,-1.436,-1.4194,-1.3761,-1.2967,-1.2112,-1.115,0.0,0.0,0.0,0.0,0.0,0.0,0.0,0.0,0.0,0.0,0.0,-0.6936,-0.6668,0.0,0.0,0.0,-0.7413,-0.7567,-0.8063,-0.7896,0.0,0.0,0.0,0.0,0.0,0.0,0.0,-1.1813,-1.307,-1.3943,-1.4267,-1.4328,-1.4226,-1.3906,-1.3268,-1.2543,-1.1859,0.0,-1.0888,-1.0897,-1.0812,-1.0764,-1.0764,-1.0343,-1.0302,-1.1004,-1.1277,-1.1075,-1.0264,-1.0639,-1.0905,-1.0636,-1.0704,-1.0827,-1.0754,-0.976,-0.8828,-0.8358,-0.7798,-0.7706,-0.8439,-0.8358,-0.8459,-1.7294,-1.6709,-1.5902,-1.5474,-1.5417,-1.5782,-1.6301,-1.6985,-1.75,-1.7901,-1.8284,-1.8985,-1.8447,-1.6973,-1.5777,0.0,-1.3874,-1.5642,-1.5641,-1.4288,-1.5899,-1.6342,-1.5875,-1.5943,-1.517,-1.3678,-1.3313,-1.2457,-1.1205,-1.1299,-1.1318,-1.1233,-1.1516,-1.187,-1.2298,-1.2552,-1.3168,-1.4091,-1.4179,-1.4506,-1.5149,-1.5062,-1.5019,-1.5008,-1.4816,-1.4789,-1.4984,-1.4806,-1.435,-1.3639,-1.2825,-1.1667,-1.0082,0.0,0.0,0.0,0.0,0.0,0.0,0.0,0.0,0.0,0.0,0.0,0.0,0.0,0.0,0.0,-0.9067,0.0,-0.9979,-0.9436,0.0,0.0,0.0,-0.8646,-1.0048,-1.0841,-1.185,-1.3219,0.0,0.0,-1.4314,-1.439,-1.404,-1.3122,-1.2897,-1.2437,-1.1351,-1.1159,-1.1168,-1.1518,-1.1601,-1.1601,-1.1539,-1.1705,-1.1666,-1.1314,-1.1491,-1.1627,-1.1361,-1.1527,-1.1748,-1.1579,-1.1653,-1.1641,-1.159,-1.1454,-1.1179,-0.9985,-0.9088,-0.8658,-0.934,-0.9394,-0.9394,-1.7202,-1.7621,-1.7641,-1.7063,-1.6139,-1.5947,-1.684,-1.8299,-1.8518,-1.924,-2.0321,-2.0789,-2.0594,-1.9852,-1.8852,-1.8001,-1.7286,-1.6885,-1.6241,-1.5395,-1.522,-1.4926,-1.464,-1.4741,-1.412,-1.2844,-1.256,-1.1836,-1.0798,-1.1146,-1.1629,-1.2255,-1.2812,-1.3136,-1.3185,-1.3399,-1.3999,-1.4976,-1.5016,-1.4997,-1.4966,-1.504,-1.5057,-1.4992,-1.4279,-1.4265,-1.5002,-1.3616,-1.3099,-1.3596,-1.2196,-1.1168,-1.0812,-0.9376,0.0,0.0,0.0,0.0,0.0,0.0,0.0,0.0,0.0,-0.7972,-0.6796,0.0,-0.9221,0.0,-0.9215,-0.9683,-1.0168,-1.0433,0.0,0.0,-1.0825,-1.1123,-1.2546,-1.2498,-1.2733,-1.37,-1.46,-1.5115,-1.5078,-1.499,-1.4638,-1.3909,-1.3317,-1.273,-1.2113,-1.2103,-1.2016,-1.1755,-1.1764,-1.1703,-1.1756,-1.2169,-1.244,-1.1948,-1.2205,-1.2337,-1.2045,-1.1983,-1.1993,-1.1872,-1.2029,-1.2138,-1.2066,-1.1993,-1.1886,-1.1534,-1.0882,-1.0483,-1.1041,-1.0504,-1.0128,-1.7585,-1.7624,-1.8174,-1.7915,-1.7159,-1.727,-1.7955,-1.8961,-1.9603,-2.0073,-2.0436,-2.1333,-2.1628,-2.1363,-2.0337,-1.9552,-1.8974,-1.7928,-1.6924,-1.5965,-1.5624,-1.5125,-1.4572,-1.4628,-1.4,-1.2761,-1.2473,-1.1951,-1.1242,-1.1304,-1.1941,-1.3095,-1.3471,-1.3847,-1.412,-1.4289,-1.4671,-1.5248,-1.519,-1.5043,-1.4916,-1.4942,-1.4774,-1.4379,-1.4227,-1.4249,-1.4473,-1.3374,-1.3044,-1.3572,-1.194,-1.1172,-1.1498,-1.0317,-0.9566,0.0,0.0,0.0,0.0,0.0,0.0,0.0,0.0,0.0,0.0,0.0,-0.9829,-0.9716,-1.044,-1.099,-1.1174,-1.1515,-1.1893,-1.232,-1.254,-1.2917,-1.3579,-1.3459,-1.3578,-1.4204,-1.4833,-1.5148,-1.4982,-1.4774,-1.4511,-1.4059,-1.37,-1.3173,-1.2538,-1.2488,-1.2489,-1.2352,-1.2562,-1.2816,-1.3043,-1.3238,-1.3334,-1.3108,-1.3178,-1.3166,-1.2837,-1.2669,-1.2544,-1.2473,-1.2544,-1.2579,-1.2508,-1.2401,-1.2377,-1.2365,-1.2115,-1.1898,-1.1811,-1.1345,-1.1196,-1.813,-1.748,-1.8175,-1.842,-1.8438,-1.9061,-1.9327,-1.9418,-2.0642,-2.0773,-2.022,-2.1587,-2.2205,-2.2232,-2.1131,-2.0422,-1.996,-1.9001,-1.7867,-1.6673,-1.6548,-1.6001,-1.5172,-1.5041,-1.4355,-1.3187,-1.2939,-1.2552,-1.2049,-1.1847,-1.2419,-1.368,-1.3792,-1.4198,-1.4873,-1.5048,-1.513,-1.5153,-1.4992,-1.489,-1.4844,-1.4822,-1.4466,-1.3791,-1.4306,-1.4323,-1.3721,-1.3461,-1.3345,-1.3349,-1.1969,-1.1414,-1.204,-1.146,-1.0956,0.0,-0.9959,0.0,0.0,0.0,0.0,0.0,0.0,0.0,0.0,-0.9164,-1.0328,-1.1005,-1.2166,-1.279,-1.2509,-1.272,-1.2921,-1.299,-1.3811,-1.4227,-1.3936,-1.4059,-1.4241,-1.455,-1.4668,-1.4706,-1.4738,-1.445,-1.4235,-1.4438,-1.4418,-1.4121,-1.3337,-1.315,-1.3216,-1.3373,-1.3784,-1.4204,-1.4597,-1.4528,-1.43,-1.4298,-1.4197,-1.4006,-1.3595,-1.3434,-1.3251,-1.3119,-1.2978,-1.2908,-1.2838,-1.278,-1.2745,-1.2768,-1.2791,-1.2638,-1.2174,-1.2066,-1.215,-1.8182,-1.844,-1.8691,-1.9292,-2.0054,-2.0358,-2.0527,-2.0681,-2.1218,-2.2048,-2.3105,-2.3375,-2.3467,-2.3349,-2.2754,-2.2247,-2.1755,-2.0494,-1.9608,-1.8966,-1.7271,-1.6327,-1.6007,-1.5287,-1.4477,-1.3742,-1.4234,-1.3913,-1.2792,-1.334,-1.3662,-1.3778,-1.4012,-1.4391,-1.4884,0.0,0.0,0.0,-1.4859,-1.4738,-1.4585,-1.4726,-1.4662,-1.4396,-1.3924,0.0,-1.3599,-1.2798,-1.241,-1.2443,-1.2032,0.0,0.0,0.0,0.0,0.0,0.0,0.0,0.0,0.0,0.0,0.0,-0.8389,-0.8746,-0.8717,-1.0599,-1.2117,-1.2823,-1.3522,-1.3792,-1.3487,-1.4342,-1.4841,-1.4611,-1.4972,-1.5154,-1.4871,-1.4592,-1.441,-1.4351,-1.4478,-1.4839,-1.5412,-1.5275,-1.5402,-1.6283,-1.6164,-1.5951,-1.5994,-1.5355,-1.5008,-1.5002,-1.5035,-1.5093,-1.5085,-1.5161,-1.5145,-1.4979,-1.4967,-1.4723,-1.4192,-1.3964,-1.3697,-1.3263,-1.3129,-1.306,-1.3037,-1.2885,-1.2803,-1.2873,-1.2896,-1.2908,-1.285,-1.265,-1.2496,-1.8601,-1.8884,-1.9421,-1.9965,0.0,-2.0843,-2.1087,-2.1289,-2.1697,-2.2628,-2.3842,-2.3901,-2.3881,-2.3821,-2.331,-2.2813,-2.2351,-2.1249,-2.0381,-1.9657,-1.8021,-1.7041,-1.6635,-1.5817,-1.5037,-1.4324,-1.4973,-1.482,-1.402,-1.4521,-1.4722,-1.4598,-1.4787,-1.4894,-1.4887,-1.4934,-1.4926,-1.4897,-1.4738,-1.4569,-1.4404,-1.4132,-1.3951,-1.3805,-1.3524,0.0,0.0,0.0,0.0,0.0,0.0,0.0,0.0,-1.2495,0.0,-1.1352,-1.1226,-1.0647,-0.9457,-0.8881,-0.8962,-0.9824,-1.0502,-1.0824,-1.0681,-1.1695,-1.2754,-1.3836,-1.4355,-1.457,-1.4442,-1.5265,-1.5656,-1.5231,-1.5293,-1.53,-1.5104,-1.4797,-1.4543,-1.4387,-1.4559,-1.4875,-1.5023,-1.5343,-1.5781,-1.6567,-1.6434,-1.6447,-1.6982,-1.651,-1.5971,-1.5852,-1.5832,-1.5952,-1.6225,-1.6194,-1.6182,-1.6151,-1.56,-1.5002,-1.4614,-1.4038,-1.3546,-1.3261,-1.3141,-1.3107,-1.3072,-1.2955,-1.285,-1.2955,-1.2943,-1.2978,-1.3094,-1.3012,-1.2896,-1.9171,-1.9265,-2.0008,-2.0376,-2.0494,-2.0974,-2.1293,-2.1598,0.0,0.0,0.0,-2.3702,-2.3726,-2.3603,-2.3165,-2.2772,-2.2368,-2.1568,-2.0735,-1.9909,-1.8763,-1.7868,-1.7182,-1.6512,-1.5826,-1.5156,-1.5612,-1.5629,-1.5183,-1.559,-1.5729,-1.5619,-1.5803,-1.5662,-1.5188,-1.4994,-1.4902,-1.4808,-1.455,-1.4374,-1.4271,-1.3665,-1.3231,-1.2998,-1.33,-1.3382,-1.3168,-1.3343,-1.3344,-1.3183,-1.264,-1.26,-1.3197,-1.3287,-1.3226,-1.3063,-1.2459,-1.2024,-1.1848,-1.0537,-1.0407,-1.1893,-1.2464,-1.2674,-1.2529,-1.2534,-1.3122,-1.443,-1.4981,-1.5267,-1.5319,-1.5967,-1.6103,-1.5366,-1.5284,-1.5213,-1.5021,-1.4809,-1.4609,-1.4538,-1.476,-1.4884,-1.4711,-1.5364,-1.5973,-1.6324,-1.6526,-1.6637,-1.7302,-1.693,-1.6414,-1.6355,-1.6371,-1.6697,-1.7214,-1.7157,-1.706,-1.712,-1.6111,-1.5209,-1.4828,-1.4085,-1.3408,-1.3223,-1.3198,-1.3232,-1.3198,-1.3082,-1.2978,-1.3163,-1.3035,-1.2965,-1.3151,-1.3232,-1.322,-1.9908,-1.9869,-2.007,-2.0323,-2.0677,-2.086,-2.1276,-2.1882,-2.2581,-2.2667,-2.2309,-2.311,-2.2998,-2.22,-2.2324,-2.2303,-2.2039,-2.1464,-2.0958,-2.0522,-1.9637,-1.8794,-1.8007,-1.7347,-1.6769,-1.6322,-1.669,-1.6604,-1.6232,-1.6758,-1.6782,-1.6407,-1.6853,-1.6817,-1.621,-1.5931,-1.5395,-1.4595,-1.4252,-1.4114,-1.4211,-1.3993,-1.3587,-1.3064,-1.3769,-1.352,-1.2265,-1.3516,-1.3883,-1.317,-1.3654,-1.4022,-1.4113,-1.4113,-1.3811,-1.3076,-1.2977,-1.2568,-1.1821,-1.1558,-1.1843,-1.2735,-1.2847,-1.2759,-1.2529,-1.3171,-1.3887,-1.4624,-1.5397,-1.5953,-1.6153,-1.6785,-1.6686,-1.5479,-1.5242,-1.5049,-1.4712,-1.4614,-1.4689,-1.5047,-1.4963,-1.5121,-1.5616,-1.6081,-1.6613,-1.7112,-1.7424,-1.7835,-1.7755,-1.7277,-1.6756,-1.6705,-1.6885,-1.7188,-1.7475,-1.7323,-1.7282,-1.7434,-1.6677,-1.5802,-1.5184,-1.4523,-1.3854,-1.3308,-1.3391,-1.3514,-1.3581,-1.3527,-1.3412,-1.3493,-1.3242,-1.3,-1.3163,-1.3254,-1.3323,-2.0166,-2.0096,-2.0254,-2.0494,-2.0777,-2.1119,-2.1509,-2.1911,-2.2419,-2.2382,-2.2078,-2.2959,-2.2939,-2.2157,-2.2358,-2.2466,-2.2402,-2.1705,-2.1324,-2.1148,-1.9811,-1.9053,-1.8715,-1.7543,-1.704,-1.7101,-1.7288,-1.7405,-1.7479,-1.7911,-1.7869,-1.7458,-1.7426,-1.7226,-1.6889,-1.6386,-1.5979,-1.5574,-1.4589,-1.4218,-1.455,-1.419,-1.4264,-1.4767,-1.49,-1.4614,-1.3974,-1.466,-1.4654,-1.3799,-1.4094,-1.4324,-1.4324,-1.4324,-1.3932,-1.313,-1.3075,-1.2912,-1.2489,-1.2885,-1.3118,-1.3058,-1.3442,-1.3765,-1.3991,-1.4282,-1.4698,-1.5349,-1.6113,-1.6799,-1.7211,-1.7462,-1.7235,-1.641,-1.6117,-1.5752,-1.5289,-1.505,-1.5038,-1.5107,-1.5029,-1.5129,-1.5492,-1.6481,-1.7142,-1.7497,-1.7944,-1.8253,-1.7944,-1.7627,-1.7384,-1.7327,-1.7437,-1.7652,-1.7868,-1.7707,-1.772,-1.8028,-1.7378,-1.6451,-1.554,-1.4946,-1.4356,-1.3452,-1.3323,-1.3425,-1.3412,-1.3527,-1.3514,-1.3425,-1.3412,-1.3276,-1.3254,-1.3288,-1.3357,-2.0235,-2.0185,-2.0357,-2.0595,-2.0844,-2.1309,-2.1664,-2.1882,-2.2164,-2.2005,-2.1727,-2.2629,-2.2673,-2.2056,-2.2297,-2.2531,-2.2695,-2.2022,-2.1731,-2.1624,-2.018,-1.9426,-1.9279,-1.7941,-1.7436,-1.7704,-1.7772,-1.7997,-1.843,-1.8735,-1.8852,-1.8688,-1.8216,-1.7834,-1.7577,-1.6923,-1.653,-1.6355,-1.5051,-1.4611,-1.5153,-1.4707,-1.4962,-1.5841,-1.5765,-1.5518,-1.5319,-1.5504,-1.5231,-1.4409,-1.4324,-1.4324,-1.4324,-1.4324,-1.4004,-1.3431,-1.3353,-1.3364,-1.3419,-1.3932,-1.4113,-1.3709,-1.4234,-1.4877,-1.5519,-1.5666,-1.5756,-1.615,-1.6763,-1.7404,-1.7728,-1.7825,-1.7591,-1.7146,-1.6725,-1.6239,-1.5829,-1.5583,-1.5489,-1.5389,-1.5448,-1.5551,-1.5846,-1.6873,-1.7712,-1.7881,-1.8335,-1.8463,-1.8052,-1.8204,-1.8382,-1.8149,-1.8014,-1.8054,-1.8344,-1.8121,-1.8121,-1.8539,-1.7841,-1.6975,-1.6086,-1.5581,-1.488,-1.3852,-1.3342,-1.3301,-1.3323,-1.3446,-1.3514,-1.3425,-1.3378,-1.3391,-1.3323,-1.3369,-1.3425,-2.0304,-2.0304,-2.0304,-2.0561,-2.0909,-2.1214,-2.1464,-2.1738,-2.2068,-2.153,-2.0711,-2.1634,-2.1746,-2.1238,-2.1634,-2.2188,-2.2738,-2.2466,-2.2207,-2.1967,-2.1194,-2.0454,-1.9765,-1.8949,-1.8415,-1.8117,-1.8208,-1.8388,-1.8605,-1.8988,-1.9457,-1.9931,-1.9786,-1.9212,-1.848,-1.774,-1.7016,-1.6234,-1.5414,-1.5358,-1.6028,-1.5853,-1.5506,-1.505,-1.5892,-1.5675,-1.4563,-1.52,-1.5287,-1.4501,-1.4398,-1.4386,-1.4324,-1.4324,-1.4263,-1.4085,-1.4142,-1.4185,-1.4185,-1.4239,-1.4596,-1.5198,-1.536,-1.5778,-1.6515,-1.724,-1.7305,-1.6874,-1.7167,-1.756,-1.7413,-1.7745,-1.7579,-1.6708,-1.6334,-1.5935,-1.5812,-1.5677,-1.5921,-1.658,-1.6485,-1.6786,-1.7104,-1.7837,-1.8373,-1.8706,-1.9007,-1.915,-1.8988,-1.9455,-1.9712,-1.9126,-1.864,-1.8486,-1.8679,-1.8436,-1.8411,-1.8626,-1.7969,-1.7352,-1.6899,-1.6127,-1.5149,-1.4524,-1.3775,-1.3416,-1.3493,-1.3648,-1.3615,-1.3493,-1.3391,-1.3232,-1.3391,-1.3493,-1.348,-2.0185,-2.0185,-2.027,-2.0512,-2.0893,-2.1166,-2.1433,-2.1708,-2.2039,-2.1752,-2.1066,-2.1225,-2.0907,-2.0315,-2.0845,-2.1552,-2.2323,-2.2071,-2.1936,-2.1892,-2.1103,-2.0347,-1.9677,-1.879,-1.8387,-1.8391,-1.8432,-1.8625,-1.8942,-1.9415,-1.9877,-2.0237,-2.0034,-1.9645,-1.9092,-1.8287,-1.7642,-1.7253,-1.6586,-1.6475,-1.6838,-1.6399,-1.641,-1.6936,-1.6816,-1.6342,-1.5577,-1.5532,-1.5116,-1.4345,-1.4785,-1.4865,-1.4324,-1.4785,-1.4826,-1.4335,-1.4281,-1.4306,-1.4367,-1.4785,-1.5197,-1.5555,-1.6019,-1.6634,-1.7369,-1.7806,-1.7978,-1.8077,-1.8248,-1.8271,-1.8011,-1.8131,-1.7937,-1.7238,-1.6898,-1.6685,-1.6507,-1.6333,-1.6374,-1.6654,-1.6712,-1.7008,-1.7674,-1.8643,-1.9468,-1.9888,-2.0059,-1.9911,-1.9888,-2.0085,-2.0054,-1.9839,-1.9609,-1.9266,-1.8907,-1.8669,-1.8669,-1.8817,-1.8734,-1.8393,-1.7636,-1.7327,-1.655,-1.5187,-1.4317,-1.3739,-1.3493,-1.3615,-1.3615,-1.3527,-1.3357,-1.3232,-1.3391,-1.3446,-1.348,-2.0115,-2.017,-2.0289,-2.0545,-2.0877,-2.1183,-2.1495,-2.1781,-2.2079,-2.2002,-2.1628,-2.1311,-2.0711,-2.0087,-2.0312,-2.1049,-2.2043,-2.1954,-2.2083,-2.2273,-2.1278,-2.0537,-2.0058,-1.8871,-1.8452,-1.866,-1.868,-1.8892,-1.9337,-1.9798,-2.0173,-2.0324,-2.0074,-1.9785,-1.9397,-1.8628,-1.8128,-1.7915,-1.732,-1.7167,-1.7309,-1.6755,-1.687,-1.7766,-1.7492,-1.6931,-1.6253,-1.6054,-1.5587,-1.4854,-1.5302,-1.527,-1.4712,-1.5065,-1.4979,-1.4427,-1.4319,-1.444,-1.4719,-1.5278,-1.58,-1.6219,-1.6783,-1.7406,-1.8048,-1.8202,-1.8422,-1.8889,-1.8878,-1.8643,-1.8506,-1.8388,-1.8163,-1.78,-1.7549,-1.7337,-1.7175,-1.6984,-1.685,-1.6857,-1.7152,-1.7535,-1.8411,-1.9487,-2.0353,-2.0702,-2.0764,-2.0663,-2.0579,-2.0462,-2.0395,-2.0239,-2.0308,-2.0035,-1.9207,-1.9072,-1.9147,-1.9124,-1.9192,-1.8935,-1.8345,-1.836,-1.7835,-1.625,-1.5202,-1.4279,-1.3754,-1.3682,-1.3615,-1.3425,-1.3288,-1.3364,-1.3831,-1.3668,-1.3629,-2.017,-2.0304,-2.0441,-2.0613,-2.0827,-2.1183,-2.157,-2.201,-2.222,-2.2169,-2.206,-2.2016,-2.1419,-2.0443,-2.0299,-2.0863,-2.215,-2.2363,-2.2847,-2.3363,-2.2147,-2.1479,-2.1389,-1.974,-1.8913,-1.9091,-1.9066,-1.9313,-1.9825,-2.0079,-2.0268,-2.0375,-2.0129,-1.9788,-1.9398,-1.8789,-1.8283,-1.7871,-1.7313,-1.7117,-1.7288,-1.6843,-1.6556,-1.662,-1.7471,-1.7242,-1.6181,-1.6835,-1.7038,-1.6463,-1.585,-1.5496,-1.5441,-1.4878,-1.4525,-1.4471,-1.4453,-1.4806,-1.5436,-1.5686,-1.6274,-1.7518,-1.7729,-1.8046,-1.866,-1.861,-1.8627,-1.8861,-1.8677,-1.8526,-1.8508,-1.8351,-1.8142,-1.7883,-1.7704,-1.7589,-1.7566,-1.7441,-1.7448,-1.7517,-1.7938,-1.8739,-1.9868,-2.0527,-2.0799,-2.0942,-2.1071,-2.1151,-2.0893,-2.1023,-2.0877,-2.0563,-2.0512,-2.0462,-2.0085,-1.9788,-1.9645,-1.9551,-1.9406,-1.931,-1.9325,-1.9148,-1.8208,-1.7288,-1.6109,-1.5066,-1.4179,-1.3735,-1.3615,-1.3459,-1.3335,-1.3518,-1.4189,-1.3805,-1.3839,-2.0146,-2.0304,-2.046,-2.0714,-2.1134,-2.1339,-2.179,-2.2395,-2.2625,-2.2825,-2.2892,-2.2679,-2.2391,-2.2092,-2.1489,-2.1202,-2.1279,-2.1807,-2.2263,-2.2574,-2.2501,-2.2242,-2.1686,-2.0565,-2.0005,-1.992,-1.9649,-1.9676,-1.9993,-2.0208,-2.0313,-2.0325,-2.0146,-1.9829,-1.9463,-1.8837,-1.8266,-1.7771,-1.7256,-1.6968,-1.6917,-1.6701,-1.6394,-1.5959,-1.6403,-1.6619,-1.6387,-1.6367,-1.6308,-1.6287,-1.6545,-1.6335,-1.5518,-1.5256,-1.5431,-1.5868,-1.5932,-1.6078,-1.6438,-1.6927,-1.7359,-1.7817,-1.8328,-1.8587,-1.8753,-1.8698,-1.8641,-1.8659,-1.8582,-1.8467,-1.833,-1.827,-1.8103,-1.7794,-1.7772,-1.7726,-1.7612,-1.7559,-1.7472,-1.7655,-1.8385,-1.9465,-2.0414,-2.1068,-2.1432,-2.1479,-2.1433,-2.1309,-2.1151,-2.1055,-2.0893,-2.0794,-2.0844,-2.0974,-2.0794,-2.0429,-2.0158,-1.9879,-1.9702,-1.9603,-1.9581,-1.9182,-1.8346,-1.7559,-1.6579,-1.5599,-1.4602,-1.3967,-1.3815,-1.3628,-1.3493,-1.3861,-1.4572,-1.4406,-1.4618,-2.0078,-2.011,-2.0449,-2.0751,-2.1054,-2.1483,-2.2062,-2.2738,-2.3032,-2.3364,-2.3572,-2.3398,-2.3287,-2.3126,-2.2635,-2.1958,-2.1332,-2.1959,-2.2425,-2.272,-2.3036,-2.292,-2.2315,-2.1258,-2.0693,-2.0504,-2.0055,-1.9909,-2.0123,-2.0263,-2.0321,-2.0321,-2.0104,-1.979,-1.9382,-1.8868,-1.8342,-1.7793,-1.7344,-1.6993,-1.6763,-1.6649,-1.6402,-1.6032,-1.6062,-1.6263,-1.6601,-1.6448,-1.6551,-1.6866,-1.7258,-1.6902,-1.5896,-1.5863,-1.6201,-1.6748,-1.6835,-1.6995,-1.7288,-1.7797,-1.8121,-1.8203,-1.8605,-1.8878,-1.8715,-1.8526,-1.843,-1.845,-1.8348,-1.8205,-1.8149,-1.8107,-1.7997,-1.7726,-1.7794,-1.7811,-1.7698,-1.7612,-1.7809,-1.8344,-1.922,-2.0152,-2.0965,-2.1437,-2.1718,-2.1869,-2.1661,-2.1479,-2.1309,-2.1039,-2.0778,-2.0712,-2.0925,-2.1055,-2.1039,-2.091,-2.0698,-2.0416,-2.0019,-1.9909,-1.9687,-1.9211,-1.8659,-1.7851,-1.6947,-1.5945,-1.5109,-1.4387,-1.4065,-1.3881,-1.3955,-1.421,-1.4761,-1.5192,-1.5461,-1.9986,-1.9779,-2.0445,-2.078,-2.0891,-2.1657,-2.2402,-2.3032,-2.3351,-2.3699,-2.4002,-2.4228,-2.399,-2.3555,-2.3457,-2.3079,-2.2752,-2.3101,-2.3584,-2.4045,-2.3618,-2.3382,-2.3178,-2.1592,-2.0779,-2.0666,-2.0195,-2.0003,-2.0096,-2.0123,-2.0096,-2.0123,-1.9941,-1.9599,-1.9031,-1.8892,-1.8492,-1.7871,-1.7479,-1.7216,-1.7009,-1.6712,-1.6549,-1.6517,-1.6528,-1.6497,-1.6453,-1.7205,-1.7744,-1.8141,-1.7619,-1.71,-1.6637,-1.6586,-1.6726,-1.7008,-1.7009,-1.7357,-1.8002,-1.8144,-1.8437,-1.8712,-1.8861,-1.8697,-1.8485,-1.8222,-1.8117,-1.8225,-1.804,-1.7866,-1.8023,-1.7932,-1.7816,-1.7789,-1.7811,-1.7789,-1.7789,-1.7743,-1.8195,-1.9301,-2.0152,-2.0936,-2.1532,-2.1764,-2.1797,-2.1781,-2.1721,-2.157,-2.1261,-2.0958,-2.073,-2.0579,-2.0679,-2.0844,-2.1119,-2.1323,-2.1197,-2.1007,-2.0514,-2.0204,-1.996,-1.9547,-1.9191,-1.844,-1.7385,-1.6407,-1.5464,-1.4818,-1.4465,-1.4314,-1.4452,-1.4594,-1.5202,-1.5692,-1.6107,-1.9933,-2.0478,-2.0847,-2.1374,-2.1864,-2.2272,-2.2883,-2.3646,-2.3696,-2.4002,-2.4425,-2.4559,-2.4554,-2.4521,-2.4511,-2.4388,-2.4257,-2.4379,-2.403,-2.3369,-2.3464,-2.3321,-2.2704,-2.1675,-2.0872,-2.0298,-1.9551,-1.9311,-1.9376,-1.898,-1.8878,-1.9248,-1.9192,-1.9158,-1.9139,-1.8822,-1.8323,-1.7754,-1.7344,-1.6993,-1.6738,-1.6633,-1.6528,-1.6421,-1.6501,-1.661,-1.662,-1.7012,-1.7502,-1.7975,-1.7308,-1.6939,-1.7065,-1.7166,-1.7585,-1.8238,-1.8338,-1.8489,-1.8822,-1.8786,-1.8693,-1.8753,-1.8622,-1.8445,-1.826,-1.8091,-1.8009,-1.8095,-1.7922,-1.7839,-1.7861,-1.7777,-1.7749,-1.7789,-1.7789,-1.7789,-1.7856,-1.8221,-1.8841,-1.9612,-2.0268,-2.0941,-2.1595,-2.1827,-2.1768,-2.1781,-2.1601,-2.1308,-2.1119,-2.0697,-2.041,-2.0357,-2.0512,-2.0597,-2.078,-2.1007,-2.1087,-2.0991,-2.0663,-2.0342,-2.0135,-1.9829,-1.9506,-1.8865,-1.7802,-1.6865,-1.5946,-1.5264,-1.4913,-1.4695,-1.4702,-1.5133,-1.5768,-1.6286,-1.673,-2.0241,-2.0811,-2.1162,-2.1603,-2.2237,-2.2565,-2.32,-2.3917,-2.4039,-2.4302,-2.4626,-2.4768,-2.4861,-2.4977,-2.4991,-2.4991,-2.4991,-2.4991,-2.4238,-2.3171,-2.3449,-2.3423,-2.2852,-2.1825,-2.0744,-1.9861,-1.9216,-1.886,-1.8676,-1.8184,-1.8069,-1.8378,-1.8487,-1.8546,-1.8682,-1.8574,-1.8243,-1.7749,-1.7344,-1.7018,-1.6789,-1.6649,-1.6543,-1.6436,-1.6543,-1.6623,-1.6686,-1.6773,-1.7093,-1.7476,-1.7183,-1.7186,-1.7559,-1.7713,-1.8091,-1.8717,-1.8913,-1.8963,-1.9082,-1.893,-1.8789,-1.8585,-1.8467,-1.8304,-1.8155,-1.8048,-1.8027,-1.7983,-1.7917,-1.7833,-1.7811,-1.7749,-1.7766,-1.7789,-1.7789,-1.7789,-1.7924,-1.867,-1.9311,-1.9922,-2.06,-2.1271,-2.1732,-2.1899,-2.1811,-2.1794,-2.1524,-2.123,-2.0991,-2.053,-2.0308,-2.0185,-2.0239,-2.0326,-2.0429,-2.063,-2.0893,-2.0861,-2.073,-2.0478,-2.0289,-1.9945,-1.9637,-1.891,-1.8002,-1.7279,-1.6388,-1.5618,-1.5133,-1.5053,-1.5078,-1.5703,-1.6338,-1.6934,-1.7367,-2.0701,-2.0755,-2.1378,-2.172,-2.1997,-2.2685,-2.3392,-2.3959,-2.4302,-2.4545,-2.4689,-2.487,-2.4991,-2.5004,-2.5031,-2.5044,-2.5018,-2.5025,-2.467,-2.3947,-2.3731,-2.345,-2.2898,-2.1761,-2.0595,-1.9571,-1.9137,-1.8652,-1.8044,-1.7563,-1.758,-1.7409,-1.7798,-1.7964,-1.7851,-1.818,-1.8194,-1.7732,-1.7432,-1.7142,-1.6892,-1.6701,-1.6543,-1.6517,-1.6528,-1.6554,-1.6501,-1.6607,-1.6818,-1.7223,-1.7292,-1.7473,-1.786,-1.8017,-1.8261,-1.8697,-1.8752,-1.8807,-1.877,-1.8734,-1.8585,-1.8445,-1.8348,-1.8322,-1.8113,-1.807,-1.8027,-1.7983,-1.7922,-1.7856,-1.7811,-1.7749,-1.7766,-1.7766,-1.7749,-1.7749,-1.7907,-1.9007,-1.9731,-2.0092,-2.1055,-2.1998,-2.1982,-2.1969,-2.1919,-2.1778,-2.1516,-2.1275,-2.0879,-2.0407,-2.0054,-1.998,-2.003,-2.01,-2.0204,-2.0342,-2.0579,-2.0646,-2.0579,-2.0478,-2.0323,-2.003,-1.9767,-1.906,-1.82,-1.7522,-1.695,-1.6216,-1.5726,-1.563,-1.5894,-1.6374,-1.677,-1.7142,-1.7673,-2.0708,-2.1628,-2.1869,-2.2329,-2.2853,-2.3159,-2.366,-2.4302,-2.4442,-2.4657,-2.4875,-2.5012,-2.5076,-2.5095,-2.5191,-2.5206,-2.5149,-2.5187,-2.5159,-2.4696,-2.3534,-2.2286,-2.1374,-2.0892,-2.0479,-1.9958,-1.8874,-1.8103,-1.7727,-1.6546,-1.6073,-1.6272,-1.6904,-1.7322,-1.7488,-1.7763,-1.7759,-1.7415,-1.6952,-1.6712,-1.657,-1.6425,-1.625,-1.6095,-1.6274,-1.6301,-1.6219,-1.6463,-1.6457,-1.6362,-1.7042,-1.7166,-1.6976,-1.7484,-1.7975,-1.8232,-1.8467,-1.8637,-1.8691,-1.8542,-1.8408,-1.8328,-1.8163,-1.8009,-1.7966,-1.7966,-1.7944,-1.7922,-1.7861,-1.7794,-1.7766,-1.7681,-1.7641,-1.7658,-1.7726,-1.7789,-1.8025,-1.9007,-1.9891,-2.0042,-2.1128,-2.1786,-2.1931,-2.1965,-2.1747,-2.1344,-2.1095,-2.0861,-2.0369,-2.0184,-1.9793,-1.9808,-1.9854,-1.9904,-2.001,-2.0115,-2.0254,-2.0373,-2.0373,-2.0323,-2.0185,-2.001,-1.9839,-1.9476,-1.835,-1.7569,-1.7311,-1.6888,-1.6589,-1.623,-1.6613,-1.7006,-1.6674,-1.6831,-1.749,-2.1325,-2.2254,-2.2368,-2.2772,-2.3305,-2.3534,-2.3966,-2.4476,-2.4648,-2.4818,-2.5038,-2.516,-2.5187,-2.5179,-2.5252,-2.5274,-2.5255,-2.5288,-2.5288,-2.5011,-2.3616,-2.1978,-2.072,-2.039,-2.0286,-1.9814,-1.8571,-1.7719,-1.7044,-1.5746,-1.5245,-1.5383,-1.589,-1.6345,-1.6675,-1.7127,-1.7288,-1.7061,-1.668,-1.6432,-1.6398,-1.6234,-1.6139,-1.6055,-1.6207,-1.6246,-1.6176,-1.6436,-1.6469,-1.6374,-1.6742,-1.6898,-1.6708,-1.7113,-1.7589,-1.7783,-1.8061,-1.826,-1.8336,-1.8239,-1.8184,-1.8142,-1.7988,-1.7944,-1.7905,-1.7922,-1.7961,-1.79,-1.7878,-1.7794,-1.7726,-1.7664,-1.7658,-1.7721,-1.7743,-1.7789,-1.7789,-1.9033,-1.9782,-2.0226,-2.1027,-2.1807,-2.1664,-2.1757,-2.1316,-2.0716,-2.0518,-2.0074,-1.9592,-1.9566,-1.955,-1.9515,-1.9667,-1.9793,-1.9859,-1.998,-2.0115,-2.02,-2.027,-2.0235,-2.0131,-2.0025,-1.9869,-1.9476,-1.8504,-1.7809,-1.7732,-1.7565,-1.7188,-1.7066,-1.737,-1.7418,-1.7177,-1.6808,-1.7464,-2.213,-2.2642,-2.2815,-2.3076,-2.3424,-2.389,-2.4246,-2.4572,-2.485,-2.5031,-2.5111,-2.5243,-2.5293,-2.5303,-2.535,-2.5359,-2.5335,-2.5376,-2.5229,-2.4742,-2.3592,-2.2087,-2.0792,-2.0513,-2.0039,-1.9277,-1.8321,-1.7373,-1.6464,-1.5426,-1.4803,-1.4793,-1.5066,-1.5395,-1.5906,-1.6395,-1.6726,-1.6763,-1.6549,-1.6336,-1.6246,-1.6067,-1.597,-1.597,-1.6024,-1.6191,-1.6274,-1.6436,-1.6512,-1.6581,-1.6607,-1.6722,-1.6894,-1.6968,-1.7142,-1.7361,-1.7618,-1.7811,-1.785,-1.7961,-1.7983,-1.8005,-1.7944,-1.7922,-1.7922,-1.7922,-1.79,-1.7816,-1.7861,-1.7777,-1.7653,-1.7647,-1.7595,-1.7618,-1.7664,-1.7766,-1.8019,-1.9033,-1.9891,-1.9991,-2.1128,-2.153,-2.1423,-2.1242,-2.1097,-2.025,-1.9972,-1.9506,-1.9142,-1.9092,-1.9072,-1.9,-1.9296,-1.9652,-1.9748,-1.9844,-1.996,-2.0096,-2.02,-2.0185,-2.0096,-1.999,-1.9884,-1.9451,-1.8778,-1.8492,-1.8504,-1.8197,-1.7724,-1.751,-1.7569,-1.7824,-1.7918,-1.7423,-1.7585,-2.2192,-2.284,-2.2996,-2.3374,-2.3824,-2.4044,-2.4349,-2.4737,-2.4929,-2.5099,-2.5201,-2.5331,-2.5376,-2.5393,-2.5485,-2.555,-2.5525,-2.5507,-2.5288,-2.445,-2.3588,-2.25,-2.1405,-2.0801,-1.9997,-1.9124,-1.8193,-1.7221,-1.6185,-1.5195,-1.4403,-1.4145,-1.4873,-1.5403,-1.5367,-1.6138,-1.6733,-1.6696,-1.6432,-1.6105,-1.5896,-1.5711,-1.561,-1.5551,-1.5595,-1.5868,-1.6191,-1.6219,-1.6328,-1.6528,-1.6607,-1.6649,-1.6712,-1.6866,-1.7018,-1.7117,-1.7337,-1.7559,-1.7731,-1.776,-1.7833,-1.7956,-1.79,-1.7922,-1.7883,-1.7856,-1.7789,-1.7681,-1.7726,-1.7676,-1.7438,-1.7342,-1.7287,-1.7247,-1.7375,-1.7496,-1.7712,-1.8868,-1.9671,-2.0097,-2.0961,-2.1786,-2.1599,-2.0871,-2.0492,-1.988,-1.9405,-1.9005,-1.8735,-1.8535,-1.8624,-1.8624,-1.9028,-1.944,-1.9693,-1.9783,-1.9925,-2.0025,-2.0115,-2.0185,-2.008,-2.0025,-1.9955,-1.9677,-1.922,-1.9084,-1.8989,-1.849,-1.7934,-1.7869,-1.776,-1.7824,-1.7846,-1.7612,-1.7516,-2.2429,-2.2996,-2.3189,-2.357,-2.4003,-2.4298,-2.4561,-2.4818,-2.5084,-2.5224,-2.5312,-2.5434,-2.5485,-2.5493,-2.5565,-2.561,-2.56,-2.5576,-2.5154,-2.4316,-2.3425,-2.2504,-2.1571,-2.0763,-1.9973,-1.9356,-1.817,-1.717,-1.6295,-1.5055,-1.4098,-1.3743,-1.4535,-1.4781,-1.4869,-1.5669,-1.6041,-1.6071,-1.5809,-1.5536,-1.5492,-1.5285,-1.5239,-1.5209,-1.5269,-1.5521,-1.5909,-1.6095,-1.6191,-1.6398,-1.6517,-1.6581,-1.6623,-1.6712,-1.6815,-1.6841,-1.7068,-1.7256,-1.7394,-1.7496,-1.7612,-1.78,-1.7749,-1.7794,-1.7816,-1.7811,-1.7681,-1.7566,-1.7526,-1.7492,-1.7197,-1.7093,-1.7003,-1.7019,-1.7109,-1.7264,-1.7583,-1.8543,-1.9487,-1.9853,-2.07,-2.0837,-2.064,-2.045,-1.9353,-1.8513,-1.8534,-1.8159,-1.7606,-1.7561,-1.8155,-1.8362,-1.8818,-1.9204,-1.955,-1.9743,-1.9889,-1.999,-2.008,-2.0115,-2.0115,-2.0045,-2.0025,-1.9767,-1.9489,-1.9425,-1.9265,-1.8728,-1.8467,-1.8557,-1.8458,-1.8023,-1.7795,-1.7854,-1.776,-2.2747,-2.3218,-2.3482,-2.3801,-2.4137,-2.4613,-2.4831,-2.4949,-2.5255,-2.539,-2.5432,-2.555,-2.5576,-2.5589,-2.5593,-2.5612,-2.5566,-2.5449,-2.5018,-2.4244,-2.3245,-2.2293,-2.1378,-2.0474,-1.982,-1.9706,-1.8154,-1.7105,-1.6165,-1.5049,-1.4044,-1.3718,-1.4134,-1.4584,-1.4695,-1.5061,-1.5545,-1.5636,-1.5448,-1.515,-1.5195,-1.4982,-1.4968,-1.4951,-1.5074,-1.5225,-1.5536,-1.5725,-1.5955,-1.6095,-1.6285,-1.6463,-1.6543,-1.6596,-1.6607,-1.6623,-1.6841,-1.6975,-1.7092,-1.7183,-1.7337,-1.7522,-1.7542,-1.7595,-1.7704,-1.7749,-1.7635,-1.7408,-1.7288,-1.715,-1.6952,-1.6876,-1.6834,-1.685,-1.6892,-1.7092,-1.7502,-1.8203,-1.8909,-1.9796,-2.0666,-2.1081,-2.0541,-2.0111,-1.8569,-1.7383,-1.7509,-1.7433,-1.6962,-1.7014,-1.7832,-1.8346,-1.8775,-1.925,-1.9572,-1.9688,-1.9854,-1.9955,-2.0045,-2.008,-2.0115,-2.015,-2.0115,-1.9989,-1.9802,-1.9721,-1.9567,-1.9159,-1.9053,-1.9295,-1.8817,-1.8023,-1.7946,-1.8147,-1.7975,-2.31,-2.3702,-2.3862,-2.4174,-2.4551,-2.4752,-2.4943,-2.5216,-2.5337,-2.5446,-2.5565,-2.558,-2.5613,-2.5601,-2.5597,-2.5584,-2.5485,-2.524,-2.4794,-2.3966,-2.2921,-2.1886,-2.0944,-1.9963,-1.9314,-1.8779,-1.7688,-1.6556,-1.5705,-1.4687,-1.409,-1.3936,-1.4617,-1.5061,-1.4975,-1.5518,-1.5572,-1.5419,-1.5389,-1.5225,-1.4859,-1.4859,-1.4783,-1.469,-1.4828,-1.5043,-1.512,-1.515,-1.527,-1.5579,-1.5637,-1.5853,-1.6136,-1.6409,-1.6528,-1.6607,-1.6659,-1.6785,-1.6943,-1.7007,-1.712,-1.7284,-1.7404,-1.7519,-1.7572,-1.7658,-1.7479,-1.7191,-1.6876,-1.6654,-1.6674,-1.6602,-1.6501,-1.6463,-1.6591,-1.6892,-1.7428,-1.8001,-1.8651,-1.9561,-2.0644,-2.1383,-2.0649,-1.9959,-1.898,-1.8127,-1.7993,-1.7817,-1.7408,-1.7637,-1.828,-1.861,-1.8841,-1.9302,-1.9718,-1.9707,-1.9762,-1.9884,-1.994,-2.0045,-2.0115,-2.0235,-2.0189,-2.0004,-1.9934,-1.9899,-1.9687,-1.9383,-1.914,-1.9011,-1.8461,-1.7868,-1.7988,-1.8121,-1.7975,-2.3383,-2.3947,-2.4024,-2.43,-2.4666,-2.4828,-2.5012,-2.5203,-2.5341,-2.5476,-2.5576,-2.5603,-2.5611,-2.5603,-2.5602,-2.55,-2.5232,-2.4601,-2.3964,-2.3125,-2.2029,-2.0975,-2.0195,-1.9305,-1.8856,-1.8271,-1.7294,-1.65,-1.5834,-1.5011,-1.4214,-1.3757,-1.4556,-1.4851,-1.4424,-1.4933,-1.5197,-1.5088,-1.4951,-1.4783,-1.4356,-1.4547,-1.4497,-1.4452,-1.4547,-1.4718,-1.4904,-1.4937,-1.4998,-1.524,-1.5419,-1.5492,-1.5652,-1.5896,-1.6215,-1.6501,-1.6581,-1.6639,-1.6786,-1.6811,-1.6869,-1.7033,-1.7149,-1.7216,-1.7272,-1.7296,-1.7224,-1.6901,-1.6581,-1.6355,-1.6378,-1.6367,-1.6301,-1.6234,-1.6316,-1.6624,-1.7153,-1.7872,-1.8651,-1.9404,-2.0085,-2.0578,-2.0564,-1.9931,-1.9361,-1.8894,-1.854,-1.8195,-1.7798,-1.8214,-1.8718,-1.8949,-1.9173,-1.9436,-1.9758,-1.9752,-1.9726,-1.9797,-1.9904,-2.001,-2.0115,-2.02,-2.0096,-1.9925,-1.9919,-1.9863,-1.9632,-1.9258,-1.9011,-1.8745,-1.8436,-1.8108,-1.8042,-1.8002,-1.7909,-2.3386,-2.3916,-2.4081,-2.4422,-2.4764,-2.4959,-2.5113,-2.5228,-2.5379,-2.5506,-2.5605,-2.56,-2.5565,-2.5496,-2.5282,-2.5035,-2.4695,-2.3609,-2.2693,-2.1848,-2.0975,-1.9968,-1.9135,-1.8699,-1.8331,-1.7778,-1.7086,-1.653,-1.6075,-1.5259,-1.4241,-1.3943,-1.4584,-1.4587,-1.3998,-1.4627,-1.4631,-1.4461,-1.4235,-1.4124,-1.4111,-1.4189,-1.4235,-1.4222,-1.4287,-1.4497,-1.4669,-1.4718,-1.4766,-1.489,-1.5043,-1.521,-1.512,-1.527,-1.5695,-1.627,-1.6436,-1.6448,-1.6474,-1.6463,-1.6543,-1.6697,-1.6727,-1.685,-1.6952,-1.6952,-1.6841,-1.6596,-1.6371,-1.6222,-1.6234,-1.6222,-1.6207,-1.6222,-1.6237,-1.6462,-1.7189,-1.7914,-1.8728,-1.9291,-1.9656,-2.0019,-2.0352,-2.0131,-1.9625,-1.9233,-1.8873,-1.8685,-1.8424,-1.8638,-1.9048,-1.9302,-1.9539,-1.9662,-1.9818,-1.9767,-1.9762,-1.9797,-1.994,-2.008,-2.015,-2.0185,-2.001,-1.9833,-1.9566,-1.9457,-1.9288,-1.9087,-1.8741,-1.8496,-1.8408,-1.8358,-1.8279,-1.8135,-1.7989,-2.2844,-2.3285,-2.4039,-2.4636,-2.5025,-2.5127,-2.5318,-2.551,-2.554,-2.5601,-2.5643,-2.554,-2.5477,-2.5199,-2.4384,-2.3862,-2.3215,-2.2327,-2.144,-2.0696,-2.0011,-1.9196,-1.829,-1.8004,-1.7659,-1.7197,-1.6699,-1.628,-1.5847,-1.5139,-1.4592,-1.4303,-1.4472,-1.4679,-1.42,-1.4522,-1.4624,-1.4397,-1.4511,-1.4511,-1.4319,-1.4337,-1.4305,-1.4287,-1.4369,-1.4452,-1.4415,-1.4447,-1.4433,-1.4447,-1.4447,-1.4624,-1.4859,-1.4937,-1.5256,-1.5623,-1.5824,-1.5879,-1.6047,-1.6133,-1.6179,-1.6344,-1.6436,-1.6591,-1.6644,-1.6686,-1.6623,-1.6623,-1.6418,-1.6237,-1.624,-1.6271,-1.6225,-1.6286,-1.6379,-1.6947,-1.7636,-1.8143,-1.8936,-1.9403,-1.9824,-2.0238,-2.0572,-2.0262,-1.9919,-1.9574,-1.9244,-1.9055,-1.9007,-1.9192,-1.9375,-1.9615,-1.9737,-1.9879,-1.9919,-1.9833,-1.9869,-1.9869,-1.9975,-2.015,-2.015,-2.0166,-1.9975,-1.9762,-1.9457,-1.9035,-1.8745,-1.8511,-1.8285,-1.8235,-1.8187,-1.8319,-1.8436,-1.8254,-1.8029,-2.2229,-2.3366,-2.381,-2.4426,-2.5082,-2.5178,-2.5303,-2.5454,-2.5495,-2.5506,-2.5481,-2.5328,-2.4966,-2.4347,-2.3523,-2.2911,-2.2157,-2.1097,-2.0426,-1.9756,-1.9064,-1.8331,-1.7864,-1.7426,-1.6986,-1.6596,-1.6208,-1.5771,-1.5385,-1.5143,-1.4818,-1.4024,-1.4447,-1.4407,-1.4006,-1.4278,-1.4259,-1.4138,-1.4092,-1.4026,-1.3868,-1.398,-1.4138,-1.4053,-1.4203,-1.4249,-1.4276,-1.4235,-1.4254,-1.43,-1.43,-1.4444,-1.468,-1.4808,-1.496,-1.5175,-1.5258,-1.5482,-1.5913,-1.5968,-1.5996,-1.6055,-1.6151,-1.6191,-1.6285,-1.6344,-1.6386,-1.6371,-1.6632,-1.6563,-1.6458,-1.6916,-1.6701,-1.664,-1.672,-1.7119,-1.7808,-1.8561,-1.9149,-1.9544,-1.9905,-2.0116,-2.0311,-2.0147,-1.9909,-1.977,-1.9577,-1.9523,-1.9473,-1.958,-1.9745,-1.9924,-1.9984,-2.001,-1.999,-1.9955,-2.001,-2.001,-2.0115,-2.022,-2.02,-2.0131,-1.9869,-1.9508,-1.9139,-1.8721,-1.8279,-1.8108,-1.808,-1.8028,-1.8029,-1.8149,-1.8254,-1.8149,-1.7963,-2.1537,-2.2989,-2.3498,-2.4157,-2.4886,-2.5141,-2.5318,-2.5383,-2.5366,-2.5378,-2.5229,-2.4886,-2.4147,-2.3221,-2.2469,-2.1676,-2.0953,-1.9779,-1.9269,-1.872,-1.8116,-1.7509,-1.7166,-1.6767,-1.6374,-1.592,-1.5506,-1.5109,-1.4805,-1.4592,-1.4139,-1.344,-1.4011,-1.3805,-1.3311,-1.3533,-1.3881,-1.3888,-1.3754,-1.3667,-1.3576,-1.3833,-1.3954,-1.4011,-1.4029,-1.4188,-1.4385,-1.4172,-1.4132,-1.4426,-1.4486,-1.454,-1.4598,-1.4858,-1.4889,-1.4969,-1.4896,-1.504,-1.5354,-1.5463,-1.5725,-1.5826,-1.5854,-1.5883,-1.5885,-1.6031,-1.6031,-1.5957,-1.6698,-1.6593,-1.6469,-1.7121,-1.7091,-1.6985,-1.7137,-1.7395,-1.7682,-1.8377,-1.8929,-1.9261,-1.9504,-1.9585,-1.9752,-1.9788,-1.9782,-1.9816,-1.9865,-1.9866,-1.9859,-1.9856,-1.9947,-2.0045,-2.008,-2.0061,-2.0025,-2.0025,-2.008,-2.015,-2.022,-2.0185,-2.0096,-1.9904,-1.9603,-1.925,-1.8812,-1.8503,-1.8135,-1.8029,-1.7922,-1.7963,-1.7963,-1.7922,-1.7963,-1.7922,-1.7922,-2.0638,-2.1658,-2.3089,-2.3828,-2.4216,-2.5137,-2.5416,-2.5258,-2.5304,-2.5158,-2.4793,-2.4144,-2.3281,-2.2283,-2.1098,-2.0203,-1.9485,-1.8312,-1.7878,-1.7531,-1.7068,-1.6757,-1.647,-1.6157,-1.5752,-1.5374,-1.4864,-1.4319,-1.3881,-1.3563,-1.3444,-1.3411,-1.3421,-1.301,-1.2832,-1.3073,-1.3476,-1.3569,-1.3552,-1.3619,-1.3729,-1.3937,-1.4077,-1.4152,-1.4201,-1.4444,-1.503,-1.4372,-1.4226,-1.4664,-1.4629,-1.4641,-1.4646,-1.5016,-1.5077,-1.4715,-1.4777,-1.4734,-1.4598,-1.4876,-1.518,-1.5374,-1.5551,-1.5624,-1.5624,-1.5928,-1.5883,-1.5668,-1.6493,-1.6503,-1.6331,-1.6527,-1.7169,-1.7075,-1.73,-1.7759,-1.7977,-1.8155,-1.8657,-1.8957,-1.9192,-1.9354,-1.9391,-1.95,-1.95,-1.9517,-1.9591,-1.9617,-1.9838,-1.9869,-1.9984,-2.0045,-2.008,-2.008,-2.0025,-2.0045,-2.015,-2.0185,-2.0254,-2.0045,-1.9869,-1.9603,-1.9347,-1.8936,-1.8567,-1.8254,-1.8029,-1.7963,-1.7922,-1.7922,-1.7922,-1.7922,-1.7922,-1.7922,-1.7922,-2.036,-2.0878,-2.1973,-2.2751,-2.3376,-2.4262,-2.46,-2.4614,-2.4803,-2.4217,-2.3235,-2.2904,-2.1896,-2.0435,-1.9682,-1.881,-1.8034,-1.7404,-1.701,-1.6741,-1.6427,-1.6145,-1.5838,-1.5419,-1.4968,-1.4505,-1.4011,-1.3483,-1.2881,-1.2721,-1.2685,-1.2684,-1.2758,-1.2674,-1.2638,-1.2758,-1.2997,-1.3192,-1.3347,-1.3526,-1.3674,-1.3939,-1.4106,-1.4134,-1.4134,-1.4253,-1.4479,-1.4254,-1.4399,-1.4563,-1.4601,-1.4612,-1.4695,-1.5124,-1.4937,-1.4487,-1.4613,-1.4323,-1.3952,-1.4259,-1.469,-1.4951,-1.5255,-1.5477,-1.5414,-1.5893,-1.5852,-1.5925,-1.6377,-1.6627,-1.6207,-1.7009,-1.7749,-1.7321,-1.7427,-1.8027,-1.8216,-1.828,-1.8526,-1.8887,-1.9132,-1.9317,-1.9281,-1.9244,-1.9221,-1.9229,-1.9281,-1.9406,-1.9639,-1.9833,-1.9904,-1.994,-1.996,-2.001,-1.9975,-2.008,-2.0185,-2.0185,-2.02,-1.994,-1.9639,-1.9398,-1.9101,-1.8669,-1.8319,-1.8109,-1.7963,-1.7922,-1.7922,-1.7922,-1.7922,-1.7922,-1.7922,-1.7922,-1.799,-2.0227,-2.0351,-2.0862,-2.1606,-2.2489,-2.3268,-2.3547,-2.351,-2.3686,-2.2977,-2.1489,-2.1242,-2.0176,-1.8658,-1.7856,-1.7518,-1.6876,-1.6433,-1.6289,-1.6016,-1.5751,-1.5418,-1.5092,-1.4665,-1.4122,-1.355,-1.3144,-1.2637,-1.2246,-1.2298,-1.2226,-1.2246,-1.2384,-1.2541,-1.2544,-1.2611,-1.2715,-1.2904,-1.3083,-1.3455,-1.3633,-1.3868,-1.4128,-1.414,-1.4217,-1.4427,-1.4452,-1.4364,-1.4373,-1.4562,-1.4627,-1.4634,-1.4779,-1.4875,-1.4648,-1.4393,-1.4165,-1.3989,-1.3626,-1.3939,-1.4457,-1.4782,-1.5226,-1.5304,-1.5322,-1.5759,-1.5861,-1.5198,-1.6187,-1.6916,-1.6247,-1.7178,-1.7705,-1.7347,-1.797,-1.8478,-1.8196,-1.818,-1.8484,-1.8822,-1.8936,-1.8936,-1.8936,-1.886,-1.8959,-1.9049,-1.9295,-1.9347,-1.9384,-1.9581,-1.9711,-1.9747,-1.9818,-1.9854,-1.9904,-1.994,-1.9904,-1.9762,-1.9711,-1.9624,-1.9369,-1.9124,-1.8798,-1.8372,-1.8109,-1.7963,-1.7922,-1.7922,-1.7922,-1.7922,-1.7922,-1.7922,-1.7922,-1.795,-1.8126,-2.0065,-2.0009,-1.9875,-2.0504,-2.1479,-2.2171,-2.2308,-2.2136,-2.1957,-2.1219,-2.005,-1.9005,-1.8107,-1.7259,-1.6478,-1.6108,-1.5836,-1.533,-1.5124,-1.5153,-1.476,-1.4351,-1.4004,-1.3591,-1.3153,-1.2706,-1.2235,-1.1825,-1.1704,-1.169,-1.1699,-1.2025,-1.2351,-1.2645,-1.2584,-1.271,-1.2851,-1.2924,-1.2893,-1.3238,-1.3608,-1.3766,-1.393,-1.4043,-1.4124,-1.4306,-1.4406,-1.4247,-1.4241,-1.4549,-1.4676,-1.4588,-1.4529,-1.4756,-1.4505,-1.3825,-1.3751,-1.336,-1.2711,-1.3818,-1.4501,-1.4835,-1.5259,-1.5318,-1.4993,-1.538,-1.577,-1.5056,-1.6106,-1.657,-1.6725,-1.7019,-1.7205,-1.757,-1.8113,-1.8252,-1.7946,-1.7918,-1.8198,-1.8358,-1.8347,-1.8321,-1.84,-1.8464,-1.8606,-1.8836,-1.9199,-1.931,-1.9213,-1.9325,-1.9493,-1.9639,-1.9675,-1.9603,-1.9639,-1.969,-1.9617,-1.9435,-1.931,-1.9258,-1.9072,-1.8769,-1.8436,-1.8069,-1.7963,-1.7922,-1.7922,-1.7922,-1.7922,-1.7922,-1.7922,-1.7922,-1.7922,-1.8045,-1.8276,-1.8581,-1.8441,-1.8742,-1.8915,-1.9175,-2.0126,-2.0541,-2.0481,-2.0128,-1.9241,-1.807,-1.7561,-1.6804,-1.5903,-1.546,-1.5085,-1.4703,-1.4119,-1.3931,-1.3958,-1.365,-1.3183,-1.2795,-1.2448,-1.1962,-1.1365,-1.0922,-1.087,-1.0703,-1.102,-1.139,-1.1753,-1.2313,-1.2428,-1.2302,-1.2254,-1.2235,-1.2202,-1.2278,-1.2645,-1.317,-1.3318,-1.3467,-1.3647,-1.3647,-1.3836,-1.405,-1.3836,-1.4011,-1.4306,-1.4384,-1.4418,-1.4384,-1.4642,-1.4277,-1.375,-1.363,-1.3629,-1.3486,-1.4172,-1.4786,-1.5044,-1.5281,-1.5461,-1.5291,-1.5814,-1.5646,-1.5299,-1.5904,-1.6163,-1.6283,-1.6336,-1.6533,-1.6993,-1.7352,-1.7352,-1.7242,-1.7449,-1.7679,-1.776,-1.7774,-1.8069,-1.8202,-1.8163,-1.8268,-1.8386,-1.8683,-1.8898,-1.886,-1.9101,-1.9288,-1.9493,-1.9566,-1.9457,-1.9384,-1.9347,-1.9288,-1.9139,-1.9049,-1.9011,-1.8769,-1.8461,-1.8279,-1.8029,-1.7963,-1.7922,-1.7922,-1.7922,-1.7922,-1.7922,-1.7922,-1.7922,-1.7922,-1.8194,-1.8602,-1.7176,-1.7108,-1.7369,-1.7322,-1.7197,-1.8148,-1.8522,-1.8234,-1.7843,-1.6939,-1.6023,-1.6035,-1.5449,-1.4546,-1.4328,-1.4454,-1.3976,-1.3545,-1.3081,-1.3021,-1.2735,-1.2196,-1.1656,-1.1307,-1.0918,-1.0331,-1.0272,-1.0321,-1.0359,-1.0656,-1.1179,-1.1805,-1.2206,-1.1933,-1.1743,-1.1698,-1.1824,-1.1777,-1.1826,-1.2349,-1.2725,-1.2929,-1.3074,-1.3218,-1.3266,-1.3266,-1.3314,-1.3457,-1.3658,-1.3847,-1.3931,-1.4071,-1.4154,-1.3995,-1.3782,-1.3518,-1.3586,-1.3806,-1.4205,-1.4449,-1.4996,-1.5274,-1.5604,-1.562,-1.5529,-1.5828,-1.5686,-1.5517,-1.5787,-1.598,-1.6081,-1.6081,-1.6424,-1.6888,-1.6795,-1.6795,-1.6947,-1.7157,-1.724,-1.7323,-1.7434,-1.7733,-1.7989,-1.7949,-1.7949,-1.8043,-1.8123,-1.8333,-1.8592,-1.8822,-1.9026,-1.9161,-1.9273,-1.9124,-1.9049,-1.9064,-1.895,-1.8812,-1.8798,-1.8745,-1.8514,-1.8214,-1.8149,-1.8069,-1.8069,-1.8043,-1.7922,-1.7922,-1.7922,-1.7922,-1.7922,-1.7922,-1.7922,-1.8249,-1.8657,-1.5903,-1.5954,-1.5782,-1.567,-1.5725,-1.6184,-1.6087,-1.5521,-1.5008,-1.4569,-1.4192,-1.4001,-1.3752,-1.3371,-1.3415,-1.3547,-1.3535,-1.3281,-1.2777,-1.2396,-1.1959,-1.1204,-1.0574,-1.0215,-0.9865,-0.9747,-0.9703,-0.9665,-1.0148,-1.0586,-1.1201,-1.1547,-1.1593,-1.1095,-1.0858,-1.1075,-1.123,-1.1109,-1.1531,-1.2018,-1.2335,-1.2598,-1.2745,-1.289,-1.2977,-1.2977,-1.3025,-1.3122,-1.3218,-1.3266,-1.3256,-1.3266,-1.3145,-1.2789,-1.2858,-1.307,-1.3426,-1.399,-1.4416,-1.4669,-1.505,-1.5278,-1.5707,-1.5507,-1.5502,-1.5758,-1.5684,-1.5647,-1.58,-1.6015,-1.6207,-1.6489,-1.6752,-1.6705,-1.6532,-1.66,-1.6735,-1.682,-1.6905,-1.6989,-1.7018,-1.7269,-1.757,-1.7611,-1.7706,-1.7788,-1.7909,-1.8149,-1.8372,-1.8606,-1.876,-1.8697,-1.876,-1.876,-1.8721,-1.8798,-1.8659,-1.8542,-1.8528,-1.845,-1.8228,-1.8109,-1.8109,-1.8149,-1.8149,-1.8149,-1.8043,-1.7963,-1.7909,-1.7922,-1.7963,-1.7922,-1.7922,-1.814,-1.8534,-1.3252,-1.3221,-1.3583,-1.3704,-1.361,-1.3383,-1.3231,-1.3216,-1.3108,-1.3057,-1.3155,-1.3361,-1.3161,-1.314,-1.3455,-1.3108,-1.2652,-1.2141,-1.1514,-1.115,-1.0972,-1.0193,-0.9596,-0.9182,-0.8829,-0.8593,-0.8563,-0.8839,-0.9059,-0.9809,-1.0197,-1.0132,-1.044,-0.9842,-0.9714,-1.0039,-1.0184,-1.0477,-1.1043,-1.149,-1.181,-1.2008,-1.2255,-1.2403,-1.2452,-1.2452,-1.255,-1.2745,-1.2803,-1.2861,-1.3084,-1.317,-1.3188,-1.3077,-1.3097,-1.2882,-1.3225,-1.3608,-1.3894,-1.4261,-1.4598,-1.4903,-1.5175,-1.5611,-1.568,-1.5799,-1.586,-1.5799,-1.5775,-1.5983,-1.6032,-1.6244,-1.6399,-1.6318,-1.617,-1.6225,-1.6349,-1.6423,-1.6466,-1.6436,-1.6509,-1.6808,-1.7102,-1.7406,-1.7502,-1.7611,-1.7747,-1.7989,-1.8189,-1.8411,-1.8581,-1.8542,-1.8581,-1.8644,-1.8581,-1.862,-1.8464,-1.8321,-1.8307,-1.8293,-1.8149,-1.8083,-1.8149,-1.8189,-1.8228,-1.8189,-1.8163,-1.8083,-1.8003,-1.8003,-1.8057,-1.7976,-1.7977,-1.8167,-1.8657,-1.1213,-1.126,-1.1742,-1.1825,-1.1505,-1.1164,-1.1052,-1.118,-1.1768,-1.2056,-1.2053,-1.2425,-1.2446,-1.2156,-1.2438,-1.2341,-1.164,-1.1474,-1.0974,-1.0282,-0.9956,-0.9357,-0.8791,-0.8357,-0.8111,-0.7843,-0.7909,-0.8349,-0.8461,-0.8933,-0.9405,-0.903,-0.9107,-0.8663,-0.8506,-0.8852,-0.9184,-0.9665,-1.0212,-1.078,-1.1116,-1.1309,-1.146,-1.1778,-1.1828,-1.1877,-1.2126,-1.2372,-1.2431,-1.248,-1.2696,-1.2745,-1.2793,-1.2861,-1.3024,-1.2939,-1.3253,-1.3619,-1.3887,-1.412,-1.425,-1.4398,-1.4731,-1.5175,-1.5534,-1.57,-1.58,-1.5864,-1.5812,-1.5836,-1.5836,-1.5836,-1.5836,-1.5836,-1.5836,-1.5836,-1.5913,-1.5988,-1.5988,-1.5913,-1.6044,-1.6293,-1.6637,-1.6989,-1.7282,-1.7488,-1.7611,-1.7788,-1.7949,-1.8149,-1.8386,-1.8503,-1.8581,-1.8683,-1.8581,-1.8503,-1.8489,-1.8386,-1.8268,-1.8228,-1.8083,-1.8163,-1.8321,-1.8307,-1.8228,-1.8189,-1.8123,-1.8123,-1.8083,-1.811,-1.8261,-1.8426,-1.8303,-1.8154,-1.8848,-0.9583,-0.9732,-1.022,-1.0099,-0.9521,-0.957,-0.946,-0.9288,-1.0608,-1.1136,-1.0976,-1.1385,-1.1286,-1.1151,-1.148,-1.1401,-1.1029,-1.0847,-1.0365,-0.9589,-0.9495,-0.8903,-0.8203,-0.7795,-0.7579,-0.7623,-0.7826,-0.8072,-0.8393,-0.8651,-0.8616,-0.8247,-0.827,-0.8011,-0.7757,-0.8222,-0.8645,-0.8929,-0.9622,-1.0249,-1.0387,-1.0482,-1.0685,-1.1217,-1.1418,-1.1519,-1.1927,-1.2126,-1.2076,-1.2076,-1.2126,-1.2175,-1.2323,-1.2461,-1.2725,-1.2851,-1.308,-1.3307,-1.3533,-1.3747,-1.3909,-1.4165,-1.464,-1.4777,-1.4915,-1.5558,-1.578,-1.5824,-1.5836,-1.5792,-1.5792,-1.5792,-1.5792,-1.5792,-1.5792,-1.5792,-1.5836,-1.5913,-1.5869,-1.5836,-1.5881,-1.6088,-1.625,-1.6595,-1.685,-1.7186,-1.7529,-1.7625,-1.7666,-1.7828,-1.7935,-1.8175,-1.8175,-1.8201,-1.8319,-1.8319,-1.8553,-1.8514,-1.8333,-1.8307,-1.8282,-1.8361,-1.8478,-1.8361,-1.8228,-1.8109,-1.8069,-1.8043,-1.807,-1.8165,-1.8358,-1.8851,-1.8781,-1.8561,-1.9051,-0.75,-0.7974,-0.8593,-0.8666,-0.8472,-0.8812,-0.8731,-0.8358,-0.9084,-0.9725,-1.0192,-1.0446,-1.0583,-1.052,-1.0786,-1.0684,-1.0267,-1.0074,-0.9642,-0.9033,-0.8719,-0.8407,-0.7602,-0.7349,-0.7139,-0.7148,-0.7374,-0.7817,-0.8296,-0.8246,-0.8,-0.7916,-0.774,-0.7486,-0.7368,-0.7908,-0.8318,-0.8448,-0.8945,-0.9614,-0.9865,-1.0226,-1.0533,-1.1006,-1.1267,-1.1469,-1.1819,-1.2067,-1.2076,-1.2076,-1.2076,-1.2076,-1.2126,-1.2175,-1.2274,-1.2363,-1.2559,-1.2803,-1.2939,-1.3132,-1.3228,-1.3334,-1.361,-1.3847,-1.4305,-1.5232,-1.5748,-1.5748,-1.5748,-1.5748,-1.5703,-1.5703,-1.5703,-1.5703,-1.576,-1.576,-1.576,-1.5804,-1.5804,-1.5792,-1.5792,-1.5869,-1.6001,-1.6194,-1.6411,-1.6795,-1.7227,-1.7406,-1.7282,-1.7282,-1.7227,-1.7393,-1.7488,-1.7557,-1.7787,-1.8054,-1.8252,-1.8383,-1.824,-1.8293,-1.84,-1.8321,-1.8228,-1.8282,-1.8202,-1.8029,-1.7909,-1.7976,-1.8017,-1.8167,-1.8574,-1.9087,-1.9459,-1.9361,-1.9768,-0.6192,-0.6733,-0.7492,-0.7841,-0.7915,-0.808,-0.7957,-0.7758,-0.8072,-0.8437,-0.8914,-0.9324,-0.9604,-0.9649,-0.9863,-0.9744,-0.9188,-0.9112,-0.8657,-0.8126,-0.7925,-0.773,-0.7353,-0.698,-0.6749,-0.671,-0.6859,-0.727,-0.8078,-0.7928,-0.766,-0.7567,-0.7304,-0.7209,-0.7184,-0.7674,-0.8072,-0.8257,-0.8502,-0.8869,-0.9302,-0.9562,-0.9925,-1.0395,-1.0702,-1.0956,-1.1401,-1.171,-1.1927,-1.1769,-1.161,-1.1392,-1.1392,-1.1493,-1.161,-1.1828,-1.2045,-1.2234,-1.2332,-1.2421,-1.2618,-1.2813,-1.3142,-1.3563,-1.38,-1.4628,-1.4949,-1.4949,-1.4949,-1.4949,-1.4949,-1.496,-1.496,-1.496,-1.5199,-1.5336,-1.5596,-1.5808,-1.5828,-1.5792,-1.5792,-1.5836,-1.5957,-1.6151,-1.6367,-1.6441,-1.6921,-1.6976,-1.6892,-1.6863,-1.6723,-1.6731,-1.694,-1.7141,-1.7393,-1.7652,-1.7841,-1.7974,-1.8054,-1.8002,-1.7935,-1.7975,-1.7975,-1.8057,-1.8017,-1.7774,-1.7747,-1.7894,-1.8055,-1.8229,-1.8732,-1.9341,-1.9691,-1.9997,-2.0268,-0.5251,-0.5743,-0.6603,-0.707,-0.7259,-0.7161,-0.6965,-0.6894,-0.721,-0.7294,-0.7342,-0.816,-0.8325,-0.8366,-0.8456,-0.8185,-0.8089,-0.8184,-0.775,-0.7504,-0.7377,-0.7098,-0.6948,-0.6787,-0.6535,-0.6452,-0.6579,-0.7217,-0.7919,-0.7683,-0.7492,-0.7285,-0.7086,-0.7008,-0.6961,-0.7097,-0.7404,-0.7774,-0.8044,-0.8296,-0.8527,-0.8745,-0.9204,-0.9569,-0.9821,-1.0079,-1.0626,-1.104,-1.146,-1.1351,-1.104,-1.088,-1.0872,-1.1032,-1.1259,-1.1486,-1.1886,-1.2135,-1.2243,-1.2283,-1.2431,-1.2676,-1.3094,-1.3372,-1.3563,-1.3742,-1.4014,-1.4154,-1.4154,-1.4294,-1.4351,-1.4351,-1.4351,-1.4362,-1.4671,-1.5005,-1.5348,-1.5697,-1.5718,-1.576,-1.5792,-1.5792,-1.5913,-1.612,-1.6194,-1.6324,-1.6411,-1.6411,-1.6411,-1.6454,-1.6423,-1.6504,-1.666,-1.6845,-1.6986,-1.7293,-1.7514,-1.7476,-1.753,-1.7544,-1.7516,-1.7611,-1.7719,-1.7921,-1.7812,-1.7671,-1.781,-1.8013,-1.8162,-1.8241,-1.8845,-1.9355,-1.9598,-1.9956,-2.0368,-0.3981,-0.4944,-0.5519,-0.5577,-0.5346,-0.5679,-0.5551,-0.5303,-0.6081,-0.6301,-0.6337,-0.6859,-0.7321,-0.7579,-0.7641,-0.7565,-0.7538,-0.7482,-0.7265,-0.7047,-0.6823,-0.6477,-0.6261,-0.6196,-0.6334,-0.6384,-0.6561,-0.708,-0.7463,-0.7494,-0.7526,-0.7342,-0.6634,-0.6553,-0.6667,-0.6756,-0.6722,-0.7203,-0.7694,-0.7931,-0.8468,-0.8732,-0.904,-0.9406,-0.9777,-1.0079,-1.0328,-1.0277,-1.0431,-1.0474,-1.0517,-1.0415,-1.0474,-1.0685,-1.1006,-1.1209,-1.166,-1.1977,-1.2085,-1.2135,-1.2234,-1.24,-1.2725,-1.2813,-1.291,-1.291,-1.3142,-1.3334,-1.3467,-1.4025,-1.4118,-1.4107,-1.4118,-1.4186,-1.4381,-1.466,-1.4971,-1.5279,-1.5472,-1.5605,-1.5792,-1.5792,-1.5836,-1.5913,-1.5957,-1.6076,-1.6194,-1.6194,-1.6076,-1.612,-1.6175,-1.6254,-1.6382,-1.6244,-1.6166,-1.6835,-1.7093,-1.708,-1.7167,-1.7336,-1.7392,-1.7267,-1.7429,-1.7705,-1.7783,-1.7694,-1.7862,-1.7958,-1.8195,-1.8336,-1.8896,-1.9359,-1.9613,-1.977,-2.0129]}]]